GFSMW_500_spd_000.txt.gz
Wind_Speed
2 5 6 7 8 9 9 9 7 6 5 4 3 2 3 5 6 7 7 7 8 9 11 11 12 13 13 14 15 15 14 15 18 20 19 19 19 19 19 19 17 17 18
2 6 6 6 7 7 8 10 10 9 7 6 5 4 4 5 6 7 9 9 10 12 14 15 16 16 17 17 16 15 13 14 16 19 22 20 20 20 22 22 20 18 17
6 10 10 8 9 11 11 11 10 10 10 8 8 7 6 7 9 10 12 13 15 16 16 18 18 18 18 17 18 18 18 17 17 18 20 23 23 23 21 21 22 21 19
5 5 12 12 11 12 13 12 12 13 13 11 11 12 12 12 14 17 19 19 21 21 21 19 18 17 18 19 19 20 19 19 20 21 20 19 22 25 27 24 22 22 21
9 11 10 15 18 16 15 15 17 17 16 16 16 17 19 21 24 26 23 23 25 25 23 21 19 18 18 18 19 20 20 21 23 24 24 24 23 22 25 28 27 24 21
15 17 17 14 20 20 18 19 21 22 20 19 21 23 27 30 27 23 22 24 26 27 24 22 19 19 18 18 20 21 23 24 25 27 29 29 28 24 22 24 26 26 25
14 14 10 13 17 20 20 21 22 24 24 26 26 24 23 24 26 23 21 22 25 25 25 22 20 21 19 19 22 24 26 27 28 30 31 32 32 31 28 24 22 25 28
15 13 10 12 21 21 22 22 21 21 19 19 20 20 20 18 19 19 21 25 26 26 25 22 22 23 23 23 24 26 26 29 31 32 33 34 34 32 31 30 27 29 28
17 10 10 12 15 19 21 23 19 16 18 19 19 19 20 19 19 21 22 23 26 27 25 23 21 23 25 26 26 27 28 30 33 35 35 36 38 37 38 39 37 41 38
18 9 10 12 13 17 16 14 13 16 19 21 23 24 25 25 26 28 26 25 26 25 25 25 25 26 27 29 28 27 28 31 34 34 36 38 37 40 43 46 44 43 41
16 8 12 8 9 15 15 11 10 12 16 20 24 28 29 32 31 31 30 30 28 26 25 27 27 27 28 29 26 25 26 31 33 34 33 36 39 44 43 46 44 42 42
18 15 13 14 7 5 4 6 9 13 15 17 20 25 25 35 30 31 33 34 33 31 28 29 29 30 29 29 27 26 28 33 36 35 33 40 44 43 40 47 43 41 43
17 13 11 5 7 8 6 11 12 13 16 21 25 28 30 32 33 32 34 34 36 33 34 30 31 32 31 31 28 27 31 32 34 35 36 45 40 40 45 43 41 43 46
18 16 14 9 5 9 10 13 16 19 23 28 30 31 33 37 31 38 30 37 39 38 38 37 36 36 35 34 30 30 31 26 33 31 40 42 40 41 42 43 45 45 46
23 22 17 14 14 13 13 16 19 22 24 24 28 29 33 37 45 35 38 33 41 41 39 38 40 39 40 39 33 31 34 39 44 41 46 40 43 42 45 46 46 47 45
18 12 13 14 18 22 22 20 24 27 29 27 30 34 40 44 47 44 28 27 31 39 39 41 42 42 43 43 35 33 38 37 37 42 45 43 43 45 45 46 47 47 47
14 13 15 19 26 29 29 29 31 34 38 35 31 36 41 45 34 50 48 26 32 37 41 40 42 47 46 45 40 35 40 38 43 49 47 45 44 47 47 47 46 43 43
18 21 22 25 31 32 34 33 36 38 39 38 37 41 43 47 36 41 46 33 33 35 38 40 42 48 53 51 41 36 43 45 49 50 45 45 45 47 45 46 46 42 37
22 27 32 36 35 35 38 38 40 43 44 40 42 42 43 43 42 37 45 39 34 33 36 29 37 46 48 51 50 43 45 43 50 44 42 44 43 44 45 44 41 38 35
32 38 40 45 37 38 44 45 47 48 51 52 48 47 44 42 39 40 42 46 43 41 41 37 41 39 41 39 41 43 39 39 42 43 43 44 44 44 43 40 38 36 33
38 40 40 42 44 47 49 51 50 54 53 52 44 41 41 42 43 40 45 46 44 43 42 39 30 49 34 37 32 37 29 35 38 42 43 40 41 40 38 38 36 35 33
38 42 46 50 51 52 54 50 54 53 50 39 42 47 46 44 42 47 46 47 43 39 47 33 39 39 38 42 44 32 31 32 36 38 39 40 39 37 35 36 35 33 33
39 44 48 54 59 53 45 48 46 53 55 44 47 52 49 40 36 37 38 45 42 33 35 35 39 46 44 43 40 34 35 37 36 38 38 39 37 34 34 34 32 33 35
42 50 56 60 49 46 48 47 48 54 52 47 46 45 42 41 34 37 38 37 37 32 32 40 53 55 49 33 33 33 34 37 38 36 37 36 33 31 31 31 30 29 25
46 49 56 54 50 52 47 50 54 54 49 49 42 43 34 35 38 37 41 36 30 40 38 40 42 44 41 45 39 40 41 42 39 36 34 33 31 32 31 30 27 24 22
48 37 36 50 54 47 40 42 39 38 40 42 44 39 39 39 42 44 41 43 50 50 48 40 42 43 43 39 41 40 39 40 37 34 32 32 32 32 31 28 26 25 24

GFSMW_500_spd_003.txt.gz
Wind_Speed
3 1 1 5 8 10 10 11 11 10 7 6 4 4 4 5 5 5 6 6 8 8 9 11 13 14 14 14 13 12 13 14 16 15 14 14 16 15 16 17 17 16 16
3 2 3 4 8 11 13 12 11 11 9 8 7 6 6 6 6 6 8 9 10 11 13 14 15 16 15 14 14 12 13 14 15 16 16 15 15 15 15 16 19 19 18
7 7 7 8 8 10 12 13 13 11 11 11 9 7 8 9 10 11 12 14 16 16 16 18 18 17 15 14 13 13 14 14 13 15 18 19 17 16 17 17 17 17 18
9 8 11 12 12 12 13 14 14 14 14 13 12 11 12 14 16 18 20 25 24 20 20 20 20 17 15 14 13 13 13 13 13 15 17 19 21 22 20 19 19 19 19
8 8 9 10 12 16 16 16 16 17 17 16 16 17 18 20 22 25 28 23 22 22 21 21 20 19 17 17 16 14 14 13 15 17 18 20 21 22 23 23 23 22 21
11 10 10 14 16 17 20 20 19 19 19 20 21 21 23 27 27 24 24 24 22 21 21 22 24 22 20 18 16 16 16 17 18 19 21 22 21 21 20 22 25 25 24
14 13 13 10 16 18 22 25 24 22 20 21 24 25 21 20 22 22 21 21 22 21 22 24 25 23 21 18 17 18 19 20 20 22 23 26 26 25 23 21 21 23 27
13 13 15 17 13 16 19 25 26 23 21 24 21 20 21 18 18 18 19 22 24 26 24 24 24 23 23 22 20 21 24 24 22 23 25 27 27 28 27 30 30 29 27
11 17 19 21 14 15 19 26 30 26 26 21 17 18 20 21 22 21 23 25 27 26 27 25 25 25 25 25 23 24 27 27 24 24 26 29 28 28 29 34 35 37 37
16 21 22 17 13 12 15 20 17 15 13 11 14 17 19 21 21 24 26 28 27 25 25 26 28 28 28 27 25 28 28 28 25 26 27 27 29 28 33 31 32 33 37
19 24 21 13 13 14 10 9 10 8 5 8 10 12 17 21 20 23 34 24 27 31 30 26 26 28 28 29 29 29 28 30 27 25 29 28 30 29 33 36 32 34 36
21 23 19 19 17 14 5 6 4 5 8 12 13 17 21 22 32 34 30 37 32 24 33 31 30 29 29 31 32 31 30 29 28 26 24 21 23 28 33 34 36 36 40
23 21 16 17 13 9 8 4 5 7 13 13 18 19 21 26 31 38 38 42 36 38 31 35 34 35 35 35 34 34 32 31 30 30 30 26 33 37 38 40 38 37 41
27 19 20 19 20 12 11 7 7 11 13 19 20 22 23 28 33 38 47 46 50 40 30 29 34 38 36 36 35 37 35 35 34 32 33 34 32 40 45 40 40 38 42
29 22 26 25 21 18 12 11 9 12 18 20 22 24 29 33 35 41 51 54 50 49 27 21 37 41 35 35 40 37 35 35 34 34 35 36 40 46 52 47 42 40 44
27 22 26 23 21 17 15 13 15 19 19 22 26 28 29 34 38 41 49 40 49 47 35 26 24 35 35 38 37 35 35 37 39 34 35 45 43 52 53 47 40 42 45
21 21 21 21 18 21 23 25 23 23 25 28 29 31 35 39 44 44 45 40 42 44 38 33 27 30 41 39 37 41 43 43 45 41 45 44 41 48 44 42 43 43 47
25 22 23 23 27 31 30 24 26 29 33 35 37 39 43 48 52 52 47 43 37 36 36 38 32 35 38 24 30 35 35 42 49 48 40 33 38 39 40 41 44 46 47
26 27 32 37 37 31 31 29 34 35 37 40 41 44 43 47 49 51 46 42 41 39 36 34 36 40 37 31 31 37 31 32 35 32 27 32 31 40 42 41 41 46 45
35 34 38 39 36 34 36 37 36 40 44 47 48 49 48 54 43 45 45 47 45 42 34 33 30 28 25 27 22 23 27 28 41 43 48 35 39 39 40 41 43 43 44
39 37 38 37 37 40 41 43 44 50 53 53 51 57 56 45 50 47 48 48 45 34 35 32 30 30 33 24 26 27 30 39 39 44 42 39 43 40 40 43 44 43 41
33 32 35 36 40 42 44 49 53 57 59 62 52 41 54 51 44 47 46 46 39 36 36 33 30 29 27 34 36 40 36 36 34 35 40 40 40 41 43 42 40 38 37
45 32 29 35 40 43 47 53 58 59 55 43 40 42 51 52 51 47 47 38 35 29 35 33 35 26 34 33 45 43 33 32 31 37 41 41 40 42 40 37 36 35 37
46 38 41 38 38 40 42 46 50 50 54 47 45 51 53 51 47 44 44 36 34 34 36 34 34 39 36 35 36 39 37 39 37 41 41 40 40 40 36 34 33 34 36
43 39 37 39 39 42 43 43 45 48 48 51 50 48 41 36 37 34 34 37 39 42 40 38 41 45 43 37 35 41 45 40 40 42 39 40 38 35 32 32 33 34 33
39 40 44 44 45 49 47 42 42 45 47 46 43 43 44 42 40 38 40 42 44 43 43 44 43 40 39 39 41 43 37 35 38 39 38 36 34 33 32 33 33 32 30

GFSMW_500_spd_006.txt.gz
Wind_Speed
6 6 7 9 10 11 12 12 11 10 9 8 7 4 4 4 4 6 4 6 7 10 11 11 12 13 14 12 12 13 12 12 13 13 15 13 13 13 12 13 15 16 15
7 7 7 7 10 12 12 12 12 12 12 11 9 8 6 5 6 6 7 7 10 13 15 15 15 15 15 14 13 13 11 11 13 13 13 13 13 13 12 13 14 17 15
9 9 8 9 9 10 12 13 13 13 13 13 10 8 8 8 8 10 11 12 16 22 23 22 19 18 17 17 15 15 14 13 13 13 12 13 14 12 12 13 14 16 16
10 11 11 13 13 13 12 13 13 14 14 12 12 13 13 13 14 15 16 19 24 22 21 21 21 19 18 19 18 18 18 15 15 14 13 14 16 16 15 14 13 15 17
7 12 11 11 12 14 14 14 15 16 16 16 16 17 17 18 20 21 23 26 23 21 20 21 20 19 18 18 18 18 20 18 16 15 16 16 19 20 19 18 14 15 16
11 11 12 10 15 17 17 18 18 19 18 18 18 20 21 21 23 25 22 20 19 19 19 20 21 21 21 19 17 19 20 20 19 18 19 19 19 23 22 21 21 20 20
21 17 14 13 7 14 22 22 23 21 20 20 20 19 19 22 21 21 20 18 18 19 20 22 24 23 21 19 18 20 24 23 21 21 22 23 21 21 22 22 21 22 25
21 15 13 12 10 12 14 18 18 21 22 21 22 22 25 19 19 20 20 21 21 22 25 27 27 28 24 22 22 24 26 25 25 26 26 26 25 23 22 20 20 24 26
23 12 14 12 14 17 14 16 19 21 20 21 25 24 20 17 18 17 18 19 20 23 25 27 28 27 28 25 25 27 29 29 27 27 29 27 27 26 24 22 24 26 26
16 15 16 18 17 11 14 16 16 18 19 19 16 14 11 12 15 18 20 20 25 22 29 30 29 31 32 30 27 27 28 29 27 28 30 29 29 29 26 26 22 25 27
19 19 20 24 22 18 12 14 15 15 14 12 9 9 13 16 17 16 16 25 32 25 37 30 28 29 27 30 32 30 30 29 28 27 30 30 29 27 23 22 24 28 30
28 24 22 26 27 22 14 14 14 12 11 10 9 12 13 12 14 19 21 28 30 38 35 26 41 40 32 37 33 32 35 32 30 30 30 31 32 30 26 33 32 32 35
28 27 26 21 21 19 15 13 12 11 11 9 11 13 14 18 22 26 25 30 33 39 40 44 36 38 33 34 35 33 33 33 31 32 32 34 35 35 37 33 32 38 39
22 24 24 25 23 20 19 17 16 14 15 15 16 18 20 20 23 25 30 36 39 43 40 33 37 16 26 28 33 37 35 33 35 36 32 32 35 39 37 36 41 47 48
28 24 27 23 25 21 21 20 20 21 21 22 21 19 22 21 23 27 31 38 41 45 37 37 31 20 26 29 35 37 34 34 37 39 35 35 36 39 41 39 38 41 38
28 27 28 31 27 27 25 27 26 25 26 21 20 23 25 28 33 33 37 39 44 44 34 30 34 35 30 26 32 33 37 39 38 40 43 43 41 43 44 45 47 46 50
31 29 29 35 34 30 28 29 28 25 23 23 22 25 30 34 36 36 41 42 46 44 42 39 39 40 36 29 35 32 33 33 35 41 39 40 43 44 40 38 37 44 45
30 33 37 33 30 32 34 33 26 23 28 27 29 32 36 38 40 41 43 47 48 48 44 42 42 42 38 34 34 29 27 22 35 39 37 34 25 33 37 40 40 44 46
32 37 34 31 33 35 35 34 29 28 33 33 34 35 37 43 46 48 50 55 61 45 47 44 45 45 39 29 29 26 32 24 22 23 32 34 37 41 45 41 44 48 48
31 39 37 35 35 37 38 36 34 32 32 34 37 40 45 50 52 56 49 56 53 50 49 46 41 41 37 32 31 33 33 28 30 33 33 39 43 41 48 46 49 51 50
31 31 34 40 39 40 41 43 37 38 37 37 40 44 50 55 56 47 42 51 48 45 48 45 38 36 35 32 37 30 29 35 40 40 43 40 39 39 41 47 50 51 51
38 36 34 33 44 48 48 43 44 39 40 42 44 49 52 57 55 56 48 54 52 50 42 41 38 36 35 34 37 33 32 33 37 45 39 39 39 41 45 47 50 51 51
38 37 38 37 41 49 46 42 44 43 41 40 44 49 52 60 53 52 51 48 44 38 39 39 36 37 36 41 38 35 36 37 39 40 41 45 45 44 44 49 47 48 45
41 40 39 41 42 47 53 38 45 42 42 40 44 46 52 47 54 55 50 46 44 37 36 34 38 42 44 40 40 45 43 40 40 41 45 48 44 43 44 40 42 41 37
45 42 42 43 47 50 47 43 45 49 47 49 51 48 47 52 45 42 46 44 41 39 39 43 43 44 45 41 40 39 41 41 41 44 45 40 38 38 39 38 38 36 34
45 42 40 44 45 46 45 47 50 52 52 52 47 49 46 42 44 46 44 44 43 41 42 43 43 44 43 40 40 41 44 41 42 40 38 39 39 38 38 38 37 34 32

GFSMW_500_spd_009.txt.gz
Wind_Speed
9 9 9 9 10 10 10 10 10 9 8 7 6 3 3 4 4 5 4 5 6 8 9 11 13 13 14 16 16 15 14 14 14 14 15 14 14 13 13 14 16 15 15
8 9 10 11 12 13 12 12 11 10 9 9 8 7 7 6 6 7 8 8 9 11 16 18 17 17 16 16 16 17 15 15 15 15 15 14 12 14 13 14 16 17 16
9 9 9 11 12 12 13 13 11 11 11 10 10 9 9 9 9 10 12 12 14 17 22 19 17 18 19 17 16 18 17 17 17 18 17 16 15 13 13 15 16 17 19
12 12 12 13 13 14 12 12 12 13 12 11 12 13 11 12 14 15 17 19 20 22 22 20 19 18 20 18 18 18 19 20 19 20 20 19 18 17 15 14 14 15 17
17 16 15 15 13 14 14 15 13 15 15 14 14 14 14 16 18 21 22 23 24 21 20 19 19 19 20 21 21 21 19 19 20 22 22 22 22 21 20 20 17 14 15
19 19 17 12 14 16 16 17 17 18 19 18 16 16 17 19 20 22 24 21 21 20 19 19 20 21 22 23 24 24 23 20 21 23 24 24 25 26 25 24 22 20 16
21 20 18 17 15 12 15 18 19 19 21 20 19 19 19 20 21 24 22 21 20 21 22 24 24 25 25 24 25 26 25 24 23 24 25 27 27 28 28 27 26 23 21
26 23 17 18 16 14 13 13 15 20 21 22 22 21 21 21 24 21 20 20 19 18 20 25 24 29 32 30 25 26 26 26 27 26 27 28 28 28 29 30 29 28 26
24 23 14 14 10 11 14 15 17 17 19 20 21 20 21 23 19 18 16 15 17 19 26 29 29 32 35 32 38 29 27 28 31 31 31 31 29 28 29 31 31 31 32
28 26 21 16 14 14 15 13 15 19 19 20 21 22 20 18 15 14 17 16 11 22 18 27 30 34 29 30 35 34 29 30 29 31 31 32 31 29 29 31 30 31 28
26 24 19 15 16 19 18 16 16 18 19 18 19 18 17 13 14 13 10 16 13 20 22 30 32 30 35 36 36 36 33 33 32 31 33 33 32 31 31 30 30 27 27
28 27 26 24 20 20 20 24 19 17 17 19 21 18 14 13 12 11 17 19 17 19 25 28 28 24 28 22 22 25 37 39 34 31 33 34 32 33 34 34 34 39 41
23 29 31 32 27 22 19 21 19 15 16 17 15 16 14 15 17 21 21 17 23 21 27 30 27 27 26 25 25 29 36 37 35 38 34 33 33 34 34 37 39 40 42
34 33 30 32 32 25 23 23 18 18 16 17 17 17 17 18 20 20 17 25 22 28 32 32 30 29 32 30 32 36 36 36 36 35 40 36 35 33 35 36 36 39 42
33 27 30 32 29 26 27 24 20 21 21 20 19 20 20 16 18 21 23 27 29 33 35 37 35 32 34 36 38 40 37 38 34 35 39 44 38 35 40 42 44 45 45
31 31 30 31 29 29 26 24 24 24 25 20 20 21 15 16 19 22 25 30 35 39 42 45 44 46 42 41 41 37 40 40 37 37 38 42 41 41 41 41 43 42 42
29 35 33 29 32 32 32 32 30 28 25 20 18 23 23 25 24 25 29 36 41 45 50 53 51 50 48 38 42 42 40 43 41 38 34 33 37 42 39 33 35 34 36
36 37 33 30 36 32 32 34 35 31 23 23 21 22 25 26 29 34 37 42 46 49 50 55 50 49 45 41 44 43 40 38 37 37 35 35 38 31 35 34 40 43 42
27 39 33 34 35 36 34 36 36 32 28 29 25 24 27 31 35 37 41 45 49 54 47 46 51 52 51 50 45 42 41 38 38 38 40 38 33 35 37 41 44 46 46
41 40 37 36 38 36 36 39 39 35 31 30 28 29 31 33 37 39 41 48 56 53 50 48 51 55 53 48 41 38 36 37 43 40 39 40 41 44 49 53 46 43 47
44 44 38 37 39 39 37 37 36 35 35 36 33 33 36 39 40 42 46 47 55 56 55 55 53 52 50 45 41 39 39 32 37 45 45 40 42 45 46 47 48 48 52
46 46 39 37 40 43 40 39 40 41 42 42 40 40 44 44 44 46 46 50 53 58 60 54 53 47 44 44 39 39 37 40 43 45 40 45 44 44 46 49 49 53 54
42 45 42 35 32 32 32 41 45 46 45 46 44 46 45 46 47 51 53 55 57 56 55 50 46 45 44 38 38 42 43 45 42 43 47 44 42 47 50 53 54 51 47
47 46 42 40 39 36 37 35 37 45 49 48 49 46 46 50 53 53 56 53 51 55 49 45 44 41 41 41 44 45 46 44 40 45 43 47 48 51 50 48 44 43 43
48 42 42 42 42 40 42 43 43 43 46 49 49 50 56 54 55 55 56 51 53 49 48 48 48 49 49 46 44 45 43 39 45 46 46 49 49 47 44 42 41 42 43
39 42 42 43 46 47 45 44 45 44 46 48 48 53 57 59 58 60 56 49 49 48 47 46 46 46 46 44 47 44 42 41 45 46 47 45 43 43 43 44 41 40 39

GFSMW_500_spd_012.txt.gz
Wind_Speed
11 12 10 9 9 8 7 5 4 4 4 4 2 2 2 2 2 1 2 3 5 7 8 10 15 16 16 16 17 14 15 16 16 16 16 16 15 13 12 12 11 11 11
10 10 9 10 9 8 7 8 8 7 6 4 4 5 5 4 5 5 6 7 9 11 14 18 19 18 17 18 18 17 16 15 17 16 16 15 14 16 14 15 14 12 10
12 11 10 10 9 10 12 11 9 9 8 7 7 6 6 6 7 8 10 12 14 17 19 21 20 20 19 20 20 20 20 17 17 18 17 17 18 17 14 16 19 17 14
13 12 11 11 11 12 12 12 13 12 11 10 10 9 8 9 10 11 14 16 19 20 20 19 18 19 19 19 19 19 22 23 21 19 21 19 20 21 20 17 17 19 24
17 16 16 16 16 15 15 16 15 13 14 14 13 12 11 13 13 14 17 18 19 18 19 18 19 19 22 23 24 24 24 25 25 24 21 23 22 23 23 24 21 21 16
15 18 19 20 21 21 17 15 16 18 17 17 16 17 17 15 15 17 16 19 18 17 14 15 17 18 18 20 23 24 25 26 26 26 26 26 24 24 26 26 26 25 25
23 20 19 18 16 16 17 16 17 19 19 19 20 20 19 17 18 19 19 19 16 13 11 15 17 19 24 28 30 30 24 23 24 25 27 28 29 29 27 27 27 27 27
27 23 22 17 13 16 14 18 16 19 22 23 22 22 21 20 20 19 20 14 9 11 13 12 14 19 24 25 24 26 27 28 24 24 26 28 28 30 29 29 29 29 28
29 29 21 18 15 10 10 13 14 17 18 19 21 21 20 21 20 19 14 9 6 8 11 14 18 22 16 29 27 30 32 29 26 24 25 28 30 31 33 32 32 30 29
31 37 27 23 18 14 11 12 14 14 15 16 17 20 20 20 20 13 7 5 3 8 13 16 18 22 20 19 26 27 29 26 17 26 29 29 31 32 34 34 35 34 32
36 35 26 26 18 17 14 13 14 17 18 17 18 20 22 19 13 8 5 8 13 11 13 16 19 18 22 25 28 29 29 26 29 33 30 33 33 31 32 34 34 37 37
26 32 30 24 23 19 16 13 14 19 19 17 16 16 17 14 9 7 8 12 9 9 13 17 19 22 22 25 26 30 34 32 32 31 31 31 33 36 31 33 35 37 39
35 31 29 28 26 24 21 20 15 19 17 14 10 7 7 6 6 9 12 12 11 11 15 20 28 34 30 27 34 37 40 39 37 35 35 35 32 31 33 33 36 37 38
37 27 28 30 22 26 23 23 19 22 18 12 8 6 6 5 7 10 10 10 9 15 20 26 31 37 41 39 39 38 40 40 39 38 37 37 37 34 38 41 40 38 37
37 37 37 38 33 32 27 26 26 27 21 16 10 9 8 6 9 5 6 14 15 22 26 30 37 39 42 43 40 39 38 38 40 40 41 40 42 40 39 34 35 36 41
37 50 41 39 36 36 29 27 28 27 24 20 13 13 10 10 13 15 16 16 22 26 31 34 42 45 45 36 41 42 44 43 46 42 40 39 41 40 33 29 36 39 36
36 47 45 38 36 37 35 32 28 28 26 24 15 15 10 9 13 13 16 21 24 27 33 39 47 52 49 46 45 44 46 46 47 40 38 39 38 35 38 40 41 34 33
39 40 48 47 41 38 36 34 33 29 27 28 22 20 16 13 13 18 21 25 26 31 35 41 46 53 57 50 50 48 49 50 45 40 38 40 41 34 37 41 43 41 45
38 49 52 53 47 39 35 35 36 29 29 28 25 21 24 26 23 23 27 30 32 35 39 43 48 53 52 55 55 53 51 47 42 40 38 39 37 39 42 43 44 44 50
47 49 51 46 37 38 38 37 38 33 33 30 26 26 27 26 26 30 31 34 36 40 42 45 49 54 55 56 54 52 44 44 43 40 41 37 38 41 46 47 45 44 49
48 57 41 36 42 35 37 34 34 35 31 31 27 26 27 30 31 33 34 37 42 44 47 50 52 52 54 53 51 42 41 42 39 35 37 35 46 46 47 46 48 51 51
63 58 47 51 36 39 39 37 36 35 32 32 31 30 32 34 34 34 38 41 46 48 51 55 56 59 54 52 46 45 41 41 42 43 43 44 47 46 45 49 49 49 51
52 64 65 54 46 44 43 40 38 36 35 36 35 35 36 38 42 38 42 42 49 57 56 57 58 61 54 48 50 48 47 47 46 45 44 45 45 43 46 53 53 51 52
47 47 48 48 48 46 43 37 37 37 37 36 38 42 41 39 42 45 48 53 56 57 57 58 58 56 50 49 48 48 48 46 45 45 45 40 45 44 49 51 51 49 46
47 46 45 45 45 45 42 38 36 34 34 35 40 44 46 45 46 45 50 53 57 59 60 60 56 53 53 50 49 46 46 46 43 39 39 42 46 47 48 47 44 43 41
46 48 42 39 40 41 44 41 39 41 43 43 45 47 45 46 49 50 54 58 60 60 58 53 51 47 45 47 46 45 43 40 40 40 40 42 45 44 44 40 37 39 40

GFSMW_500_spd_015.txt.gz
Wind_Speed
11 11 11 10 9 7 6 6 6 2 1 3 2 3 4 4 5 4 2 3 4 6 9 12 16 17 17 16 16 16 17 17 15 14 17 16 13 11 9 8 8 6 6
9 10 10 10 9 7 6 5 3 3 3 4 3 2 3 3 3 2 1 5 8 11 14 16 19 18 18 18 17 16 17 17 17 15 15 14 15 14 16 15 12 9 10
8 11 12 11 10 9 9 6 6 6 6 5 5 4 6 5 4 3 5 7 9 13 15 15 15 15 15 14 15 15 15 16 18 18 18 16 16 15 13 16 16 16 13
8 8 8 9 9 10 8 8 9 9 8 8 9 8 8 9 6 5 6 10 12 13 14 14 11 12 12 14 15 18 19 18 18 19 21 20 19 19 18 16 16 18 20
8 10 11 12 12 12 12 13 11 10 12 11 11 11 12 11 10 9 8 8 13 11 12 11 10 12 12 13 17 20 22 22 20 19 19 21 22 23 23 20 20 19 18
12 8 11 13 15 16 16 16 17 15 15 14 15 15 15 15 14 12 10 11 13 8 8 8 7 9 14 19 21 23 25 26 21 19 18 19 22 23 24 25 25 25 23
9 14 9 15 17 15 16 14 14 18 18 17 16 17 17 17 16 14 12 11 7 4 7 9 11 13 15 15 20 25 29 31 22 18 17 19 21 21 23 25 27 27 28
25 10 11 12 13 12 12 13 14 16 18 18 21 19 20 18 19 16 12 7 5 5 6 8 8 9 13 15 20 24 27 33 29 19 19 16 20 22 25 27 25 26 29
21 16 8 11 16 15 12 13 11 11 17 18 19 20 22 20 20 15 9 3 6 5 5 9 11 15 15 16 18 20 23 28 28 26 22 22 25 29 26 25 27 28 29
22 14 10 19 21 19 14 15 9 10 9 11 14 16 17 19 16 10 5 2 3 7 11 9 10 11 14 17 19 19 22 25 27 26 27 27 26 28 27 26 28 29 28
34 25 16 27 18 19 21 20 12 11 11 12 10 11 13 13 9 6 5 7 6 5 9 9 11 10 14 19 24 21 27 27 30 30 28 30 31 28 28 26 28 30 31
31 25 24 29 20 22 20 17 12 11 13 12 10 8 6 3 6 7 8 5 5 5 6 10 13 15 17 26 30 29 30 32 32 31 31 34 34 35 32 28 28 31 35
26 29 32 32 29 22 20 22 18 14 15 11 9 5 6 9 10 10 7 6 8 10 11 10 9 16 23 31 32 33 28 29 30 31 32 35 38 37 37 33 30 29 34
33 37 40 36 33 24 23 25 20 19 17 12 10 9 9 12 13 10 7 9 10 11 11 13 16 23 28 29 34 39 37 34 34 34 37 39 40 34 38 34 32 32 32
34 35 38 38 39 31 31 21 21 23 22 20 15 14 11 11 13 10 8 8 7 10 15 18 21 24 29 34 34 38 38 39 40 38 41 42 40 35 37 34 32 32 32
43 46 39 43 43 37 35 37 32 24 23 23 19 16 13 12 13 14 13 16 18 20 21 21 21 25 30 36 36 40 40 43 41 44 42 40 36 34 35 33 34 33 34
33 28 46 46 47 42 40 36 33 27 24 25 22 18 16 16 15 15 12 12 13 15 19 23 24 28 31 38 42 42 42 45 45 47 40 36 36 35 34 34 33 31 35
48 43 37 43 47 43 44 40 36 31 28 30 27 23 17 20 19 15 13 14 15 17 21 25 28 31 36 39 44 48 52 46 49 43 35 35 37 37 38 35 30 36 37
50 49 50 39 39 39 39 40 42 36 35 34 32 27 21 20 25 21 22 23 20 22 24 27 32 36 40 45 48 52 56 52 46 42 40 37 36 38 36 43 33 38 44
56 58 46 36 44 46 38 40 42 38 39 33 33 31 26 23 22 26 28 24 27 34 24 30 35 38 42 50 53 54 54 46 41 41 39 39 39 41 43 39 39 52 47
62 53 51 52 53 36 44 45 41 42 34 35 37 35 32 27 24 24 24 29 30 26 34 37 39 42 48 52 52 55 51 41 40 41 41 41 42 43 43 45 47 48 46
74 70 57 51 49 52 49 37 36 37 38 37 41 41 34 30 23 22 31 27 32 35 37 42 44 49 51 54 57 55 46 45 46 46 45 44 44 45 45 44 45 45 49
52 74 72 67 59 51 51 53 41 40 37 37 40 37 33 30 27 30 31 30 36 39 42 48 46 48 53 55 59 51 49 47 44 43 44 43 43 44 45 43 41 49 51
51 52 50 74 67 61 51 51 43 40 42 39 39 36 36 33 34 33 34 37 39 44 45 45 50 55 56 56 55 50 47 43 42 43 46 47 47 45 42 42 43 47 47
55 57 54 54 53 48 59 56 50 44 44 40 43 42 42 37 37 37 38 42 44 46 47 51 54 57 56 52 49 46 44 44 44 45 46 42 40 38 40 39 41 42 38
53 60 58 55 58 46 48 56 60 55 49 46 42 39 38 37 38 40 43 44 48 46 51 52 52 53 52 50 47 44 42 42 44 41 38 36 38 38 38 36 33 33 35

GFSMW_500_spd_018.txt.gz
Wind_Speed
9 13 14 16 15 13 10 9 9 7 7 7 6 6 7 7 5 4 2 3 4 5 8 11 15 16 14 13 13 13 14 12 12 13 12 10 10 8 8 6 6 8 10
5 8 11 12 14 12 10 8 6 6 6 5 4 6 6 6 6 3 2 1 4 7 10 12 13 13 10 9 12 13 15 17 14 12 12 12 12 14 11 9 10 9 7
6 7 9 11 11 12 12 11 8 5 5 7 6 5 6 6 6 4 2 2 6 9 9 10 12 12 13 13 15 18 20 20 20 18 16 13 12 12 14 14 13 14 16
11 3 4 5 7 7 7 8 9 9 8 7 7 7 6 7 6 4 5 6 7 10 9 11 11 12 12 14 14 17 20 22 21 19 18 16 14 12 12 14 14 17 16
12 8 4 4 4 5 6 7 6 6 6 8 9 9 10 9 8 9 8 9 10 12 12 12 9 9 9 10 11 14 19 22 22 17 16 14 14 14 14 14 14 15 19
12 9 7 5 3 7 10 11 12 12 10 10 12 12 12 11 12 12 12 11 12 13 13 10 7 7 10 13 18 19 19 21 21 11 12 13 13 14 16 15 16 18 18
19 17 10 9 8 10 13 15 17 16 15 13 13 16 15 15 15 14 14 13 16 14 10 5 6 7 9 10 14 14 14 19 21 19 16 13 13 13 16 17 21 23 23
23 13 13 15 13 9 13 13 15 15 16 16 15 17 19 18 18 15 15 15 16 12 7 3 3 6 8 9 11 13 16 20 20 21 21 19 18 17 19 20 22 24 25
11 21 21 25 10 1 5 10 12 11 11 15 16 17 19 21 21 17 17 17 14 8 4 6 8 9 9 8 12 14 17 20 22 23 23 22 19 19 19 21 23 24 23
17 18 11 10 8 5 5 11 10 10 9 9 11 14 20 21 19 17 18 17 12 8 5 9 8 7 7 9 12 15 17 20 20 21 21 23 25 26 27 24 22 22 24
19 14 16 21 22 16 5 12 14 14 11 12 10 10 15 17 15 18 18 16 12 7 7 8 9 10 9 10 11 15 20 22 25 23 22 22 26 31 31 32 25 25 24
21 20 17 22 23 13 11 12 14 14 11 12 10 9 12 14 16 19 19 17 12 9 8 10 10 12 12 12 14 15 19 22 22 25 27 27 29 34 35 33 30 28 27
27 30 25 20 19 14 15 13 15 15 14 14 11 9 10 13 18 20 18 18 15 10 10 12 13 11 13 17 19 19 24 29 30 31 29 30 34 38 39 36 31 32 29
37 32 31 24 22 22 21 14 18 19 19 18 14 9 12 15 19 21 19 19 16 13 13 15 14 16 18 19 20 21 26 28 32 38 38 37 40 41 36 34 32 32 31
38 45 42 25 30 30 26 18 20 19 19 19 20 15 16 19 23 21 21 21 16 15 17 18 16 17 14 18 20 23 26 30 36 40 41 39 38 35 33 32 32 31 33
31 39 37 26 35 32 28 23 25 20 23 22 21 23 20 19 22 22 23 21 18 17 17 17 17 16 15 19 22 25 27 29 35 37 38 34 31 32 32 29 29 30 31
30 30 31 30 32 36 31 31 30 31 32 31 24 23 24 20 23 25 26 23 26 23 17 16 16 15 16 19 24 27 30 35 40 42 38 30 32 33 33 29 28 30 31
36 38 37 35 37 34 35 36 38 30 25 27 27 23 25 25 22 26 27 27 25 22 22 21 22 21 22 19 26 30 34 40 42 44 37 33 33 34 36 35 35 34 34
57 52 47 41 37 42 47 41 44 33 33 31 31 27 28 29 28 25 28 28 28 26 25 27 30 33 23 22 28 33 37 41 44 45 37 35 37 38 40 39 38 37 38
63 57 59 56 47 38 44 51 47 39 40 32 33 33 33 36 33 28 31 33 32 34 33 34 30 28 31 30 34 36 39 44 48 48 42 41 40 41 41 41 39 39 43
63 62 57 62 58 49 54 45 44 50 41 34 36 35 36 39 38 33 33 33 39 38 40 42 40 21 29 31 36 37 43 48 52 49 46 45 43 43 41 35 40 42 42
53 66 67 62 58 60 67 60 55 42 44 37 39 43 39 44 43 39 35 36 38 38 43 48 30 27 32 35 38 40 46 51 49 47 47 45 43 42 42 38 40 44 43
43 57 73 72 68 66 58 60 55 52 54 45 43 40 41 46 45 44 43 39 38 42 46 37 31 34 36 38 41 43 47 48 48 48 46 44 44 44 45 44 41 42 43
47 46 51 56 59 62 65 62 56 51 48 47 44 45 42 44 47 48 52 42 45 46 42 28 35 37 40 43 46 47 48 51 51 46 43 43 44 46 41 39 39 41 42
51 52 50 48 49 48 51 58 66 60 59 48 48 47 46 48 47 50 51 50 47 47 28 36 38 41 44 47 49 51 53 53 48 44 43 43 44 42 39 38 37 35 33
50 48 51 53 51 56 51 48 53 60 64 64 71 42 44 50 51 55 53 43 32 35 36 40 44 46 50 51 52 56 55 50 45 43 44 43 41 38 35 32 31 34 34

GFSMW_500_spd_021.txt.gz
Wind_Speed
8 13 16 18 16 13 13 13 13 11 9 9 8 9 10 8 6 5 5 5 4 1 5 8 11 11 11 13 15 16 17 16 15 14 13 12 8 6 5 6 7 8 8
9 9 11 12 13 14 14 12 11 10 9 9 8 9 9 8 7 5 4 2 1 4 8 11 12 13 13 13 15 16 17 20 21 18 13 12 13 10 8 7 7 7 8
11 12 11 12 14 12 11 13 13 11 9 9 8 7 8 8 7 6 4 3 6 7 9 13 12 13 13 13 12 15 19 22 21 22 15 11 11 13 10 8 10 10 10
11 14 14 13 13 14 14 12 12 10 9 8 8 8 7 9 8 7 6 6 7 10 14 13 12 13 11 10 12 13 18 24 22 16 10 10 9 9 10 10 10 11 12
7 13 16 16 14 13 15 15 12 9 7 8 9 10 10 9 9 10 10 10 10 14 16 13 12 9 7 10 12 15 13 20 20 15 11 8 9 9 8 9 12 13 16
6 6 8 14 15 13 11 9 10 11 10 10 10 10 12 11 12 13 12 12 13 16 15 14 8 7 9 10 11 15 14 14 16 16 15 12 10 11 12 12 12 12 15
9 10 10 15 15 14 12 9 10 12 14 14 13 13 13 12 14 14 13 15 16 18 15 12 7 6 7 9 12 12 13 14 16 16 15 12 11 11 11 12 13 16 18
8 15 12 11 19 20 17 13 10 11 13 15 18 17 15 14 16 16 16 16 18 19 16 9 7 8 11 11 10 11 13 15 15 17 16 14 12 12 14 14 15 15 16
7 8 6 19 28 24 16 12 5 6 9 13 18 18 18 17 18 18 18 19 20 20 15 11 9 8 9 10 10 11 11 14 16 18 19 16 17 18 21 23 24 22 19
12 8 3 5 4 8 13 14 7 7 9 10 12 16 18 19 20 20 21 23 22 19 16 12 9 10 11 9 10 12 12 14 16 20 22 21 19 21 24 28 29 27 25
13 11 9 7 14 13 12 14 9 7 8 10 11 11 15 16 18 18 24 24 22 19 17 14 10 11 12 12 12 14 13 14 16 20 23 25 24 22 25 31 32 30 28
23 17 17 18 19 14 15 16 14 11 12 13 13 12 14 14 16 21 24 23 21 21 18 15 12 12 12 12 15 14 12 12 15 17 22 28 31 29 28 29 27 27 28
30 28 27 27 22 20 19 19 16 16 17 14 12 13 12 14 14 20 24 24 22 23 19 18 15 14 13 14 16 13 10 13 17 21 27 31 33 32 31 28 28 28 29
32 37 32 30 32 26 20 23 19 20 20 18 14 12 11 13 14 17 22 24 24 23 21 20 18 16 16 17 15 15 15 16 19 22 26 32 33 29 27 26 30 27 27
41 38 37 35 35 30 29 26 21 20 22 22 17 12 14 15 18 17 19 25 26 25 24 24 22 21 21 21 20 20 17 17 19 25 27 31 29 28 28 26 27 29 27
48 43 43 32 37 32 30 29 27 23 23 23 18 19 19 21 19 20 21 26 27 27 28 27 28 27 26 21 19 21 19 19 21 26 27 31 30 29 29 31 32 35 32
44 43 44 37 31 26 19 33 29 28 26 23 22 22 24 27 22 22 25 26 28 30 31 29 29 27 25 20 22 21 29 23 25 30 30 31 31 32 35 36 38 39 39
50 46 43 43 30 23 30 29 33 31 29 30 29 31 28 28 25 24 26 27 29 32 33 32 34 30 25 24 24 27 26 25 27 29 32 33 33 37 39 39 39 41 40
55 51 45 46 46 45 30 29 33 35 37 35 36 28 27 27 29 28 26 27 27 31 37 37 35 33 31 31 30 31 27 26 27 30 34 34 35 39 41 40 40 40 39
57 62 59 55 55 54 47 38 36 37 39 40 38 36 33 30 32 32 33 31 32 32 37 41 39 39 36 39 41 26 22 28 27 32 34 36 41 43 43 42 42 42 39
52 53 52 56 55 48 45 46 40 42 38 41 40 42 40 33 38 39 40 40 38 38 40 43 42 43 43 46 50 31 22 25 28 31 36 41 43 43 42 42 43 44 44
38 46 55 54 49 47 46 48 42 37 40 43 40 46 51 38 42 41 40 43 47 46 44 40 47 47 47 51 50 34 27 31 34 34 40 44 43 40 40 42 43 45 43
32 33 39 57 54 55 53 51 50 45 49 51 53 49 57 51 45 50 48 46 52 55 50 49 46 44 50 54 43 33 33 35 36 40 44 49 46 41 41 42 44 44 40
39 40 40 43 50 59 62 61 62 55 51 51 52 51 57 54 55 53 49 55 55 59 58 54 52 49 55 56 37 35 37 37 42 47 50 51 44 42 42 42 41 37 36
47 46 48 49 48 49 52 54 61 61 64 66 57 57 56 52 58 55 56 52 58 61 64 60 55 48 53 48 31 36 36 39 44 49 56 54 40 41 42 41 35 33 35
51 52 52 55 55 56 54 54 54 55 57 56 67 60 57 57 62 61 61 58 61 65 65 70 47 52 36 32 37 38 37 41 44 42 34 29 35 40 39 36 32 34 34

GFSMW_500_spd_024.txt.gz
Wind_Speed
8 12 16 18 18 17 15 15 15 16 14 13 12 11 12 11 10 8 6 4 1 2 4 7 10 11 12 12 12 14 14 15 15 10 10 9 8 8 9 10 7 4 4
12 16 15 14 16 17 16 15 14 14 13 10 10 11 10 10 8 7 5 3 2 5 8 10 12 13 12 12 12 14 15 18 21 18 10 7 8 8 9 9 10 9 8
11 14 16 18 16 13 11 10 11 11 11 11 10 10 9 10 9 7 5 5 4 6 9 12 12 12 10 10 11 13 19 21 22 17 6 4 4 5 7 10 10 10 11
13 12 14 14 14 14 13 10 9 9 9 11 11 10 9 8 9 9 7 7 7 8 11 12 11 11 8 8 10 15 17 21 21 19 13 7 4 6 6 7 9 11 12
15 15 14 15 15 13 12 13 13 13 12 13 13 11 11 11 11 11 10 9 9 10 12 13 12 10 6 8 11 14 13 15 18 19 17 13 9 6 6 8 10 11 12
16 16 14 13 13 16 14 12 12 13 13 15 16 15 14 12 12 12 11 11 11 13 13 13 12 10 7 7 10 14 11 11 11 13 14 13 10 10 10 10 11 12 15
18 16 10 3 5 10 11 11 11 11 13 14 16 17 16 15 15 13 13 13 12 13 12 13 14 9 7 9 10 11 11 11 11 10 11 12 11 10 10 11 13 15 16
21 19 10 5 7 8 10 12 11 14 18 19 19 21 20 18 17 15 15 15 15 13 13 14 14 9 10 9 9 10 11 10 9 9 11 11 9 7 9 11 14 17 18
18 15 16 10 10 13 8 10 11 13 15 17 21 21 23 21 19 19 17 18 17 16 13 16 16 12 10 8 8 10 11 10 8 10 12 12 11 12 14 15 17 20 17
23 19 15 13 10 18 14 11 9 12 14 14 14 18 21 21 22 23 20 20 21 20 14 16 18 15 9 8 8 11 13 15 15 12 13 15 17 17 17 20 22 23 20
29 26 22 15 17 20 17 14 12 13 14 12 13 14 16 19 22 23 22 24 25 22 17 17 19 17 11 9 8 10 14 15 13 12 14 17 20 23 22 20 22 21 20
28 26 25 22 22 20 18 16 16 14 14 15 16 14 15 14 17 17 21 27 26 24 21 20 21 18 14 12 10 11 17 11 13 14 17 18 23 25 25 20 19 22 24
29 28 28 29 27 26 22 20 20 13 15 17 17 17 13 13 15 16 18 24 25 25 24 23 21 20 16 16 13 15 13 11 14 15 17 19 24 27 25 21 22 23 25
34 34 30 31 31 28 25 23 23 21 20 18 20 18 14 12 15 16 16 17 23 26 25 25 24 23 20 18 16 17 17 15 13 16 18 21 22 23 19 20 25 27 27
40 41 40 34 36 33 33 27 27 26 24 22 22 16 16 14 12 13 17 17 15 21 25 28 26 25 22 21 21 21 19 16 14 17 20 22 23 22 21 23 26 28 30
43 41 39 36 38 39 31 24 30 31 27 24 20 22 22 20 18 17 20 21 19 20 23 27 27 26 24 24 25 25 22 22 21 24 22 23 22 22 22 25 26 29 31
35 43 44 41 37 37 32 32 25 33 33 27 27 23 24 24 24 23 26 24 22 24 23 26 28 28 27 28 29 30 24 27 28 30 25 23 23 22 24 27 30 30 30
34 35 36 39 38 37 40 36 33 30 27 27 34 29 27 23 25 27 29 28 24 23 25 29 30 31 33 34 34 34 29 27 33 33 28 28 27 25 26 28 29 29 31
36 37 41 41 42 40 38 37 36 33 31 19 23 33 36 32 31 30 28 30 29 26 23 27 34 36 38 39 39 39 33 32 34 37 30 29 27 27 28 30 31 31 34
42 41 43 43 46 45 44 42 36 32 27 26 29 37 37 37 33 29 28 30 33 35 31 29 29 36 41 44 46 40 37 38 37 33 28 28 31 31 31 31 30 33 35
42 41 45 48 46 45 46 46 46 45 33 34 34 38 40 39 47 44 36 35 37 40 39 38 40 41 36 43 44 44 42 42 37 26 30 29 33 34 36 34 33 35 36
38 41 41 47 51 51 50 49 45 40 42 44 37 38 40 43 47 46 42 48 41 44 44 47 47 49 49 44 44 49 47 46 45 39 38 31 35 38 39 35 34 36 36
42 42 40 40 46 49 48 42 45 46 45 46 45 36 42 50 44 40 56 50 56 40 44 48 51 54 54 53 55 51 52 51 49 43 44 35 36 38 41 36 32 33 36
40 42 42 43 40 43 51 54 50 51 51 52 51 49 48 48 42 48 59 61 54 57 59 57 50 51 55 61 64 63 61 52 51 47 45 36 35 33 33 27 28 32 34
46 41 42 43 44 45 45 46 50 58 59 54 54 56 56 58 59 62 65 48 52 64 57 56 56 58 67 68 73 59 69 47 47 35 30 35 32 35 32 31 31 32 31
48 47 43 45 48 47 48 49 51 50 51 57 63 66 70 73 69 60 61 61 63 67 58 69 70 53 68 52 72 75 45 38 29 34 37 32 36 38 34 34 33 32 29

GFSMW_500_spd_027.txt.gz
Wind_Speed
10 14 15 18 18 19 16 15 16 14 13 15 15 14 12 11 11 10 8 5 2 2 6 9 10 10 9 9 9 11 11 11 12 8 6 6 5 7 8 9 10 9 10
9 13 18 18 17 20 19 17 17 15 14 12 11 11 12 10 11 9 7 4 2 5 8 11 10 9 9 8 9 11 15 17 14 8 2 4 4 5 7 9 10 11 11
13 15 18 20 20 20 19 18 17 16 14 13 11 11 12 15 13 10 8 4 1 4 8 10 10 9 9 8 10 13 16 18 19 15 8 3 2 4 4 4 7 9 10
16 16 19 20 20 20 20 18 16 14 14 12 12 10 9 10 11 10 8 5 3 3 6 8 10 8 8 9 11 12 13 15 17 18 14 9 6 3 4 5 4 5 6
20 19 18 19 19 18 18 18 17 16 14 14 15 12 11 12 11 12 11 9 6 5 5 8 12 9 7 7 8 11 10 10 12 13 12 11 10 8 8 9 10 10 9
21 21 23 23 20 19 18 16 16 16 16 15 16 16 17 16 14 14 14 12 10 9 6 7 11 9 7 5 8 9 8 7 7 8 9 10 9 8 8 8 9 10 12
22 20 16 16 15 15 16 16 16 14 14 15 16 17 18 17 17 17 17 17 15 12 8 7 11 10 6 5 6 7 8 8 7 7 8 8 9 8 8 8 10 13 16
26 23 20 18 18 16 14 13 11 11 14 17 18 20 20 19 19 20 20 20 18 16 10 10 11 11 8 6 4 5 6 8 8 8 9 10 10 10 10 10 12 15 17
28 29 24 21 21 18 12 14 14 14 14 19 24 25 24 23 22 22 22 21 20 18 14 13 12 11 9 8 4 4 6 9 10 10 9 9 10 9 12 16 16 15 16
25 27 24 22 21 20 17 19 18 14 15 15 19 22 24 25 24 24 23 23 23 21 18 16 15 12 11 11 6 5 6 9 12 12 10 10 11 14 14 10 11 13 13
25 25 26 25 20 20 23 19 19 17 14 13 16 17 17 20 22 22 25 26 27 25 22 19 19 15 14 11 7 6 8 10 15 11 12 10 11 15 14 14 10 10 13
34 30 29 26 26 27 25 22 20 17 16 16 18 16 17 15 15 18 22 25 29 29 27 22 22 20 17 13 11 9 9 12 10 12 14 12 15 15 14 7 9 11 15
36 36 34 31 27 26 28 26 20 17 18 19 18 16 16 13 13 14 16 18 23 25 28 24 23 22 20 17 16 12 12 13 13 14 14 15 15 15 15 12 15 16 17
39 41 38 35 32 31 31 28 25 23 22 22 21 18 14 12 15 17 14 13 14 17 23 26 25 25 25 22 19 16 15 16 18 15 14 15 17 17 13 13 16 17 18
43 43 40 37 35 33 31 31 27 27 28 23 22 19 18 19 16 12 12 13 14 16 18 21 26 27 28 24 21 19 19 18 18 18 17 17 20 20 18 15 18 20 22
46 47 45 43 41 37 32 31 32 32 27 26 23 23 22 23 20 18 16 18 16 16 19 18 21 25 26 25 24 24 23 20 18 20 19 16 20 22 22 23 24 25 25
46 49 49 46 46 45 38 36 29 30 27 25 26 28 26 24 24 24 23 24 21 25 21 21 21 21 25 27 27 28 27 21 18 21 23 28 26 26 26 25 27 28 29
35 35 39 46 43 41 39 35 36 32 26 28 32 34 30 29 27 29 29 28 27 25 28 23 22 23 23 27 30 32 33 26 23 25 28 28 32 36 30 28 30 32 31
35 34 33 33 41 40 35 39 38 35 36 32 30 29 31 34 33 30 30 31 29 28 28 28 24 23 22 26 32 36 36 32 32 31 35 34 29 38 34 32 34 36 35
40 39 36 33 33 34 34 34 38 41 33 31 25 29 32 35 38 36 35 36 38 32 32 30 32 30 26 28 35 38 39 34 38 38 39 39 37 33 33 35 33 40 40
44 40 36 33 34 34 35 35 37 35 32 35 33 30 32 34 36 45 49 45 45 43 38 37 34 36 38 38 38 39 43 38 43 44 45 45 38 44 44 39 41 41 44
43 43 37 36 35 35 36 37 38 40 42 41 37 37 38 40 40 41 55 48 38 49 52 38 45 42 45 47 45 48 49 47 46 50 52 50 47 46 49 44 41 39 40
44 44 41 39 38 36 36 37 40 44 45 44 42 43 43 42 46 42 47 51 54 52 59 37 38 46 40 46 52 52 55 57 57 57 57 56 53 54 52 40 43 42 38
38 37 40 41 40 40 40 41 42 44 43 43 42 43 45 48 50 49 49 51 59 60 69 71 47 47 53 48 45 49 51 61 66 65 69 63 56 55 48 51 44 41 36
45 39 40 42 43 43 42 39 39 40 46 50 49 48 49 51 53 54 56 59 57 64 63 51 57 52 56 64 51 56 60 64 74 72 71 75 60 34 41 40 38 39 34
45 48 45 37 39 41 41 42 41 42 40 40 44 48 54 60 66 67 66 64 66 65 64 61 64 65 67 61 64 67 63 69 56 51 67 76 52 34 41 39 44 38 34

GFSMW_500_spd_030.txt.gz
Wind_Speed
18 17 18 22 21 20 18 19 19 16 13 14 15 14 13 12 11 10 8 7 4 4 6 7 5 6 7 7 7 9 12 11 6 5 4 5 5 4 5 5 6 7 9
19 18 20 20 20 21 20 19 18 17 15 14 15 12 11 11 11 11 8 6 5 6 7 6 7 7 7 7 9 11 15 14 11 8 3 1 1 2 3 4 5 7 8
23 22 22 24 22 22 20 20 20 18 16 14 13 12 12 12 13 11 7 5 4 5 6 6 7 7 5 6 8 10 13 13 16 16 12 8 5 4 3 4 4 5 6
19 22 22 22 23 24 23 22 22 20 16 14 13 14 14 13 13 10 10 8 4 1 2 4 8 9 6 5 6 9 8 10 13 14 15 14 11 8 5 5 5 5 5
20 23 22 23 25 26 24 22 21 20 17 16 17 15 14 14 15 16 14 11 7 4 3 3 5 9 7 5 7 7 8 9 10 11 11 11 10 9 8 7 7 8 9
22 24 26 27 24 22 22 21 20 20 19 19 17 15 16 15 16 17 15 11 9 8 7 7 4 6 6 2 3 5 7 8 7 7 8 8 7 7 6 5 6 6 8
24 25 24 24 23 22 20 20 19 18 18 18 17 17 17 16 17 17 16 15 14 12 9 9 9 6 6 4 1 3 5 6 7 8 7 6 7 6 7 7 7 9 10
25 27 25 25 24 22 21 20 19 19 19 19 19 20 20 19 19 18 18 18 17 14 12 13 13 10 7 6 3 1 2 5 4 6 9 9 11 12 13 12 9 9 11
26 25 27 27 27 25 23 21 20 19 19 20 23 24 23 21 20 20 21 20 19 18 16 16 15 15 11 7 7 3 1 1 3 5 6 7 7 9 11 13 13 9 10
27 28 29 28 27 26 25 25 24 23 21 23 22 24 25 25 23 22 21 21 22 21 19 19 18 17 16 11 9 7 4 3 2 4 5 7 8 10 10 10 9 7 8
24 28 30 27 25 25 25 22 23 23 22 19 17 17 19 21 23 22 22 22 25 23 22 23 22 20 18 16 12 11 7 5 4 4 6 8 8 10 8 6 4 6 9
29 28 33 30 25 25 26 25 21 24 20 18 15 14 16 17 17 19 22 25 25 26 26 27 26 25 21 20 16 14 10 8 7 7 9 11 10 9 10 6 6 9 13
31 28 32 31 30 28 24 20 22 23 21 20 17 17 14 13 13 15 16 17 18 20 20 20 24 26 25 22 21 17 15 12 9 9 12 12 14 12 10 10 12 13 17
39 37 34 33 35 31 30 26 24 26 24 22 20 16 14 14 14 14 11 10 11 12 13 14 19 23 26 25 24 20 18 17 12 12 14 14 16 15 13 12 14 16 20
44 44 41 43 39 36 33 28 29 28 25 20 20 18 18 18 19 16 12 11 8 7 9 13 15 19 24 25 23 22 21 20 18 14 15 17 18 14 17 16 17 19 22
47 44 45 46 43 41 39 35 33 30 30 25 21 23 23 21 21 19 18 17 14 12 14 16 17 17 18 19 22 24 23 22 19 18 19 20 19 19 18 22 25 23 26
50 47 45 43 43 41 42 38 36 34 30 27 29 28 26 21 22 24 25 23 20 20 19 17 19 18 18 18 18 22 24 24 23 22 23 23 23 23 24 26 25 27 32
45 45 44 46 47 45 44 39 40 39 34 31 26 29 16 22 26 29 24 24 26 25 24 25 23 22 19 19 21 22 27 28 27 28 29 29 29 29 33 32 31 33 33
38 44 43 41 46 46 46 46 44 45 44 36 30 25 22 24 27 31 29 30 30 31 29 29 29 26 23 21 23 26 30 30 29 27 31 31 34 33 34 36 33 29 33
39 37 39 36 34 34 43 49 41 39 37 34 34 32 30 31 33 34 39 38 39 38 38 33 35 32 32 30 29 29 33 33 30 26 28 31 34 37 39 40 40 38 41
42 40 38 35 34 34 34 33 34 31 33 39 39 38 38 34 35 40 43 45 46 47 45 44 41 43 44 42 33 36 40 41 38 41 39 37 38 43 47 46 46 47 47
42 42 41 38 36 36 36 35 32 31 33 34 36 37 37 35 36 34 36 40 43 43 45 51 50 42 47 47 42 42 46 52 51 47 49 47 48 50 51 46 51 55 54
39 41 41 40 39 37 36 36 35 33 34 35 36 35 36 38 40 38 42 43 44 49 50 48 55 52 50 44 43 41 44 57 64 60 58 49 53 61 60 62 59 62 55
41 39 40 41 41 38 37 36 37 39 40 38 38 39 40 42 43 42 46 45 49 50 52 56 53 50 52 50 54 55 59 63 56 55 50 62 57 54 56 69 72 71 63
39 38 37 37 36 35 37 38 39 38 38 38 39 40 40 42 45 46 48 48 51 51 56 58 55 60 56 53 55 58 60 59 68 58 68 68 62 63 59 61 78 71 64
41 43 40 35 35 33 33 33 36 38 40 40 40 41 42 45 46 48 49 50 53 54 58 60 63 64 63 62 64 63 63 66 63 64 64 65 55 70 75 57 58 74 62

GFSMW_500_spd_033.txt.gz
Wind_Speed
17 18 19 21 22 21 21 21 20 18 18 18 17 17 14 11 9 8 7 6 5 4 2 4 5 7 7 9 11 12 13 10 8 4 2 3 2 3 3 4 5 6 7
19 20 20 21 21 22 23 22 21 19 20 20 19 16 14 12 10 10 8 7 6 4 3 5 5 6 7 8 11 11 16 17 15 12 7 5 4 3 1 2 3 4 5
18 19 20 23 22 22 22 23 22 22 20 18 17 17 15 15 14 13 10 9 8 4 3 5 6 7 7 6 9 10 12 13 16 16 13 10 7 6 4 6 6 7 7
19 20 19 22 23 25 25 24 24 23 19 18 18 18 17 15 13 11 10 10 7 3 1 2 5 6 7 6 7 8 9 8 10 12 14 13 11 8 7 8 9 8 9
20 19 22 24 26 26 25 24 25 23 21 20 18 16 15 14 14 15 14 10 8 5 4 2 3 5 6 5 6 6 8 7 7 8 9 8 7 6 6 7 7 9 11
21 22 23 26 26 25 24 22 21 22 21 20 19 17 17 15 16 17 15 11 8 7 6 5 5 5 3 2 5 3 5 5 6 6 7 6 6 7 8 8 7 6 8
23 27 26 24 24 23 24 22 23 22 21 20 19 18 18 17 17 16 15 14 12 10 9 8 6 6 8 1 4 3 2 3 5 6 6 6 7 9 11 11 9 8 7
24 26 25 26 26 25 24 22 21 21 19 18 17 18 17 17 17 17 17 16 14 12 11 12 10 8 8 8 3 5 3 1 1 3 4 6 8 11 13 12 7 4 6
24 25 26 27 28 27 26 24 22 20 18 18 17 17 17 17 18 20 21 19 16 14 14 13 13 12 10 10 9 8 6 4 2 1 1 4 5 5 8 10 6 2 3
24 26 28 28 28 27 26 25 23 20 20 21 20 19 19 20 22 23 21 21 19 17 16 15 14 14 14 12 11 11 9 9 6 6 4 3 4 7 8 6 3 4 6
31 25 27 29 29 29 27 24 23 23 23 21 20 19 19 20 22 22 24 24 23 19 17 17 17 18 17 17 14 14 13 12 10 9 6 4 4 7 7 9 8 9 11
33 23 26 31 31 29 28 26 24 24 23 22 22 18 18 15 12 13 17 20 21 21 20 19 20 20 20 20 18 16 15 16 14 12 9 7 7 7 11 13 11 14 15
34 29 28 30 28 27 25 25 25 23 23 24 24 19 16 12 11 12 14 14 14 17 17 15 16 18 20 20 20 20 17 19 17 14 12 10 10 10 11 13 12 15 17
42 38 36 31 29 27 27 26 24 24 24 24 22 19 14 12 12 14 15 10 11 10 9 8 9 10 13 16 18 20 18 19 19 16 15 15 14 13 14 15 17 16 18
37 34 32 32 29 28 28 28 29 27 25 24 20 16 15 15 14 15 17 13 12 10 6 2 5 9 10 10 12 13 16 19 21 19 19 18 19 18 16 15 17 20 22
43 44 41 38 33 34 34 32 31 29 26 23 19 17 16 15 17 17 20 18 14 14 12 11 9 7 9 10 10 13 17 21 24 24 23 24 24 22 19 18 20 17 20
41 43 41 39 37 38 38 37 37 35 27 23 22 20 21 20 19 21 19 19 19 19 18 16 15 13 11 14 14 16 19 21 25 25 27 27 28 26 26 26 28 28 28
47 46 45 43 40 41 41 40 40 36 32 29 25 23 23 20 20 20 19 22 25 23 24 24 22 20 16 18 20 22 24 23 23 27 27 30 32 32 31 32 35 33 32
38 47 49 49 48 44 43 41 38 35 38 35 31 28 29 26 23 19 18 23 27 29 27 28 28 26 25 23 26 27 30 32 29 29 29 30 34 35 35 35 40 36 36
42 41 41 47 47 42 44 44 40 38 38 37 37 37 38 33 28 25 26 28 29 32 35 33 33 33 30 31 32 33 36 38 39 36 38 34 30 32 35 34 39 41 40
40 39 35 33 34 38 38 40 43 44 41 45 44 44 46 38 33 33 32 34 32 34 37 38 36 36 34 35 34 40 43 40 46 48 45 40 42 40 41 44 47 49 50
43 42 40 37 35 33 32 33 38 43 45 45 47 49 45 41 38 36 38 35 36 36 37 38 39 38 38 41 37 41 48 43 48 52 50 41 45 47 52 56 61 58 62
41 43 43 40 38 35 33 34 34 35 34 34 32 35 39 42 42 41 40 38 39 39 38 41 42 41 44 48 48 48 47 46 50 50 56 52 48 51 49 49 62 66 65
44 42 42 43 41 39 36 35 35 33 34 35 35 34 35 36 37 40 39 40 41 42 41 44 45 44 47 49 49 49 53 55 53 53 53 60 62 55 51 53 65 69 70
43 44 43 42 41 40 39 37 36 34 35 34 34 35 37 38 39 42 43 43 44 47 49 47 50 52 53 51 53 55 56 58 58 58 61 63 67 62 59 61 69 68 74
46 46 44 44 42 42 41 37 36 36 37 37 39 40 39 40 42 45 45 45 46 49 54 57 54 53 54 51 55 58 62 64 63 66 67 67 69 67 66 64 69 63 68

GFSMW_500_spd_036.txt.gz
Wind_Speed
12 13 14 16 21 20 20 20 19 18 16 18 17 14 11 9 8 7 6 6 4 4 5 6 8 10 11 13 12 13 16 15 10 5 5 4 5 5 6 6 9 8 6
11 12 13 15 18 21 22 21 21 20 19 18 18 15 12 10 8 7 6 6 5 4 6 7 7 9 9 11 13 12 15 17 16 13 9 10 9 8 9 9 9 10 9
12 10 14 14 18 20 22 22 22 22 22 20 17 15 13 12 11 10 8 7 6 6 5 5 6 7 6 8 10 10 10 12 15 14 13 12 11 12 10 9 10 10 11
14 10 15 14 17 20 22 23 22 23 23 20 18 17 17 14 9 9 11 10 7 5 4 4 6 6 5 6 8 7 7 7 8 10 11 13 12 12 8 6 6 8 10
17 12 17 18 19 20 21 23 22 23 22 20 21 20 16 13 11 13 13 11 7 4 1 2 4 5 4 2 4 5 5 4 7 6 6 6 6 6 3 4 5 7 11
14 16 20 20 18 20 21 22 21 21 21 22 20 18 17 15 15 14 12 10 7 4 3 2 3 4 4 3 3 3 4 3 4 5 5 6 5 5 3 4 4 4 5
20 19 21 20 19 19 19 20 20 20 22 22 20 18 16 15 14 12 11 10 9 8 6 6 3 4 6 5 5 3 4 2 1 4 5 6 8 7 9 8 6 4 5
24 14 16 20 21 21 22 22 21 20 20 19 17 17 15 13 13 11 12 11 11 10 10 9 7 5 5 5 5 6 5 4 3 1 2 5 7 8 10 12 8 7 5
27 17 13 17 22 22 20 21 22 21 19 19 18 17 16 14 15 16 15 14 13 12 12 13 11 8 8 8 7 6 8 8 7 5 3 4 5 5 8 9 8 5 4
33 23 9 17 21 23 22 23 24 21 20 20 18 16 14 14 15 14 15 17 17 17 15 16 14 11 11 11 10 8 8 10 10 8 6 4 4 4 6 7 10 11 10
34 29 11 14 21 26 25 24 22 20 18 18 18 17 15 14 15 16 17 19 19 19 18 18 16 15 13 12 12 12 11 12 12 11 8 8 8 8 8 8 11 14 14
34 33 18 16 23 25 25 23 22 20 22 23 21 18 14 14 12 12 12 11 12 13 15 16 17 17 17 16 15 15 13 13 13 12 12 12 13 12 11 11 12 13 17
35 36 31 20 21 24 25 23 22 22 24 22 19 17 16 15 12 10 8 7 8 9 10 11 14 15 15 15 14 14 14 13 14 15 16 16 15 16 13 12 13 15 19
38 35 37 24 22 23 23 24 23 23 21 18 17 17 15 14 12 10 7 7 8 8 8 7 8 10 10 9 9 11 13 14 16 17 17 20 17 19 18 14 18 16 17
38 39 42 33 27 28 26 26 25 23 23 22 20 16 18 14 9 9 7 8 8 8 7 6 7 7 5 6 7 9 11 12 15 19 20 22 23 21 21 20 20 20 18
45 46 37 31 27 24 25 28 28 26 26 23 18 16 18 15 6 8 10 8 7 10 9 10 10 8 5 6 8 10 11 14 17 19 19 23 25 24 26 27 27 24 26
39 40 36 36 33 27 26 29 27 26 24 23 19 14 14 13 13 12 9 10 10 11 13 15 15 12 11 11 12 11 12 14 17 20 22 24 26 28 28 29 31 34 31
35 33 32 30 34 32 31 28 28 28 24 23 19 14 12 14 14 15 13 13 14 13 13 12 16 18 16 15 15 17 19 18 18 21 22 26 29 29 30 32 35 39 40
37 39 39 37 35 35 38 37 36 31 29 25 23 20 18 18 19 17 18 19 17 16 15 17 18 18 16 19 21 24 26 24 24 28 26 29 30 32 32 33 32 36 39
36 32 32 36 40 39 41 38 36 29 28 25 26 27 29 28 25 24 24 25 25 23 25 22 20 22 22 21 21 24 32 33 31 32 30 31 32 35 38 39 39 38 37
33 32 31 30 30 26 24 26 24 29 28 31 34 34 32 34 33 37 32 32 33 34 31 27 24 24 24 22 22 23 28 31 35 35 34 37 37 40 40 42 45 45 48
35 36 36 33 33 32 28 29 28 29 27 35 36 37 38 37 39 41 42 40 37 36 33 29 27 28 25 25 27 29 33 35 41 40 42 44 45 44 47 46 44 48 47
40 39 38 36 38 33 31 27 26 29 30 32 33 37 41 40 43 43 47 43 40 39 37 35 32 30 31 34 36 38 39 42 45 43 46 49 52 52 53 53 55 55 53
41 43 40 39 37 35 33 32 32 31 31 31 32 32 31 31 35 38 39 39 41 40 40 38 36 36 40 43 42 44 45 46 50 50 53 55 57 56 57 58 57 61 61
42 41 41 42 40 35 35 34 33 34 32 31 32 33 33 33 35 36 36 37 39 40 40 41 42 43 45 48 50 53 53 51 51 58 59 57 60 63 62 62 62 62 62
46 45 43 43 43 41 39 35 34 37 37 36 35 35 36 36 37 37 38 39 41 42 44 45 46 48 49 51 55 56 56 58 55 56 58 60 63 65 66 68 67 70 68

GFSMW_500_spd_039.txt.gz
Wind_Speed
11 8 3 8 15 20 18 19 19 16 15 16 16 13 10 8 7 5 4 4 6 8 10 8 8 10 14 13 14 17 20 19 12 10 8 8 8 9 10 11 10 10 9
11 12 4 3 16 23 21 20 19 19 18 19 17 14 11 10 9 8 6 4 6 7 7 8 8 9 10 12 14 13 19 22 14 11 11 9 9 10 12 12 11 10 9
10 11 6 5 13 18 19 19 20 20 20 21 18 14 11 11 10 8 6 6 7 7 6 7 6 6 7 9 11 11 12 16 15 14 12 11 11 11 9 9 8 9 9
12 6 6 8 11 17 18 18 18 20 20 19 18 16 15 13 10 9 9 8 8 7 5 6 5 5 6 7 9 8 9 8 9 9 8 6 7 7 6 10 8 9 9
13 4 6 11 12 15 17 18 19 20 20 19 18 17 15 12 12 12 11 9 7 6 4 4 4 5 5 6 5 6 7 5 6 6 3 3 5 7 8 7 6 6 9
7 6 7 11 12 16 15 16 17 19 18 19 18 17 15 14 14 12 10 9 8 5 3 2 3 4 3 3 5 5 5 3 4 5 5 5 5 8 10 8 8 6 5
6 6 11 9 13 16 18 16 17 15 17 19 18 17 16 16 14 11 11 10 8 6 3 1 0 1 2 3 3 4 5 5 3 4 4 4 4 8 9 9 6 5 4
16 10 10 10 14 17 19 18 18 20 19 18 17 16 14 14 12 11 11 11 10 8 7 6 5 4 3 3 4 4 5 6 6 5 5 6 6 4 5 6 6 4 5
20 8 9 9 15 18 19 18 19 19 21 21 18 14 13 13 13 13 11 10 10 11 11 10 10 9 7 5 4 5 6 8 8 8 5 6 6 8 8 7 8 10 10
26 9 8 9 11 15 19 19 21 20 22 20 19 17 16 14 13 11 12 13 14 13 14 14 12 11 11 9 7 5 6 8 9 9 8 6 5 7 10 9 8 8 10
33 11 12 7 4 12 17 18 20 21 18 17 18 18 16 15 13 12 13 16 16 15 15 17 14 12 12 12 11 10 8 9 10 11 9 9 8 9 10 11 11 12 14
33 21 13 12 8 10 15 19 18 17 19 20 19 17 15 13 11 10 11 12 12 10 11 14 14 14 16 14 14 15 14 13 12 13 11 11 12 12 13 14 13 13 15
36 33 25 16 11 10 15 18 18 19 21 20 18 16 15 14 11 9 7 6 6 4 3 6 7 6 7 11 12 12 12 12 13 12 14 15 15 17 17 16 17 16 17
40 38 30 20 14 14 17 19 20 21 22 20 18 17 15 14 10 8 6 4 2 1 0 2 3 6 7 6 7 7 7 8 12 12 13 16 16 19 21 20 20 18 17
44 45 31 27 22 19 17 21 23 23 22 18 17 15 13 11 9 7 5 2 1 1 0 1 2 2 2 3 3 4 4 6 7 10 12 15 17 19 23 25 26 27 25
40 38 40 34 27 24 23 24 25 22 20 19 15 13 11 12 10 8 8 4 2 3 2 2 3 4 5 5 6 4 3 5 7 7 8 11 14 16 21 25 28 31 31
45 44 41 33 24 20 20 23 25 27 25 22 16 14 11 13 12 9 7 8 6 5 2 2 4 8 9 8 7 6 3 4 5 7 9 10 11 14 18 20 23 26 31
38 41 41 30 25 25 20 19 28 28 25 21 20 15 12 15 13 10 7 8 10 9 9 6 5 3 6 11 11 12 11 12 10 12 12 12 16 16 17 21 24 27 29
38 33 26 23 24 27 27 23 26 25 26 23 19 19 17 16 14 11 10 10 10 13 13 13 10 8 7 9 10 14 16 14 15 18 20 20 21 20 22 26 27 31 29
31 31 32 31 26 27 24 26 26 28 25 22 20 21 21 20 17 16 17 17 16 15 19 19 16 16 14 13 15 18 21 20 20 24 23 24 23 25 27 32 34 32 30
33 33 29 29 29 31 32 32 29 27 27 24 22 24 26 25 24 25 25 23 24 24 24 24 26 23 20 20 21 23 26 24 27 29 29 32 32 33 35 36 40 38 39
39 36 32 30 30 29 28 26 23 20 19 25 29 27 29 30 31 31 29 30 31 31 30 31 29 29 27 26 27 26 28 30 32 32 33 36 38 39 41 42 42 45 50
38 36 35 33 32 30 28 25 23 22 29 29 33 35 32 33 36 35 36 35 35 37 38 38 37 35 33 30 32 33 33 35 36 36 39 41 43 45 46 47 48 52 56
39 39 37 36 36 34 29 25 24 23 23 31 36 35 36 38 40 40 38 37 36 37 39 42 42 39 38 36 35 37 38 38 40 44 44 46 48 48 50 54 54 54 56
43 42 40 40 36 34 29 30 32 28 28 28 28 32 35 38 39 38 35 33 33 34 34 35 38 37 36 37 38 39 40 43 45 48 50 52 55 60 58 58 60 59 61
51 44 47 45 41 38 34 34 35 34 34 33 32 32 33 34 34 36 37 34 35 35 36 36 38 38 39 40 41 44 46 47 50 51 52 55 57 60 60 61 61 61 63

GFSMW_500_spd_042.txt.gz
Wind_Speed
1 3 6 11 17 20 18 19 18 17 17 17 16 14 12 10 9 7 9 9 10 8 10 10 12 13 16 15 14 18 13 15 14 10 12 9 10 10 10 9 8 10 9
4 4 6 8 15 23 21 21 21 19 20 19 16 14 12 9 8 8 8 8 8 8 8 9 10 12 14 14 13 17 16 15 16 11 13 11 9 10 11 11 9 8 10
10 5 8 8 14 20 21 22 21 20 20 19 16 12 10 10 9 8 7 7 7 6 7 9 9 10 11 12 12 12 12 15 16 13 13 13 10 9 9 7 8 8 9
10 9 9 11 12 18 19 20 20 20 19 18 16 15 13 11 8 8 8 7 7 5 6 6 8 8 8 9 9 10 9 8 9 11 10 7 5 6 3 4 9 8 9
12 9 9 13 15 16 19 20 20 20 19 19 18 16 13 10 9 9 7 8 8 6 4 4 4 6 5 6 7 8 9 8 7 6 5 4 4 5 7 8 6 5 5
8 6 4 14 14 16 18 19 18 18 19 19 18 16 14 13 12 10 8 9 7 5 4 2 2 4 4 4 5 6 7 6 5 3 5 4 5 8 10 9 7 5 8
6 11 4 10 11 13 16 18 19 17 18 18 18 17 16 16 14 11 10 9 7 5 4 2 1 3 5 5 4 4 4 4 2 3 3 3 4 6 10 10 9 9 9
11 8 4 6 12 13 16 18 20 20 18 20 20 18 17 17 16 14 12 12 10 8 6 4 3 1 2 4 5 6 5 3 3 3 1 2 2 5 6 7 8 8 9
13 8 7 5 12 16 17 19 21 22 20 20 20 19 19 17 17 17 15 14 13 11 9 8 7 6 6 6 6 7 7 6 6 5 5 4 3 4 4 4 6 8 8
23 10 12 5 11 17 19 20 20 21 22 22 22 21 19 20 19 17 15 14 12 12 11 13 11 10 10 9 9 10 11 10 8 9 7 7 6 6 5 8 9 9 10
16 16 9 9 10 18 19 20 20 21 20 20 22 22 19 18 17 15 13 13 13 13 15 16 15 13 13 13 11 11 13 13 10 9 10 9 10 11 12 12 13 13 11
23 19 13 13 14 14 20 20 19 20 21 23 23 22 21 19 17 14 11 11 13 15 16 17 16 16 15 13 14 13 13 15 15 12 9 10 10 11 14 14 15 18 18
30 24 20 19 18 15 20 20 19 20 23 24 23 22 21 20 17 12 8 8 8 8 8 6 9 12 13 12 11 11 12 13 13 11 9 10 8 11 13 14 16 17 19
33 31 24 25 20 16 16 22 22 21 22 22 22 22 21 20 16 11 11 11 8 7 8 8 9 9 7 6 6 6 6 6 5 5 5 8 9 11 14 16 17 20 21
34 31 28 28 23 19 14 21 24 23 23 23 21 20 21 18 14 13 12 12 9 10 10 9 8 6 6 4 4 3 2 3 4 3 4 2 5 9 11 10 13 15 18
33 35 34 28 27 22 18 14 22 24 25 23 21 21 20 16 15 14 15 12 10 11 10 8 5 4 4 3 3 2 4 7 7 4 3 2 2 4 7 9 13 16 15
25 30 31 31 29 26 23 21 17 23 25 23 22 20 17 15 17 16 14 12 10 11 9 8 8 6 4 3 3 3 6 7 5 5 3 2 5 9 11 13 15 18 21
29 30 29 28 33 32 31 27 27 24 27 25 22 19 15 15 18 17 14 14 13 13 11 9 8 7 6 7 10 12 10 8 9 9 12 11 13 13 15 18 20 22 24
31 30 28 24 18 23 22 21 22 29 27 27 21 18 18 18 19 17 17 17 15 12 11 13 12 10 12 13 13 14 17 16 16 16 16 18 18 21 24 25 26 26 25
33 32 29 24 17 22 23 26 23 23 29 27 21 23 27 25 22 21 21 19 18 14 15 13 14 15 15 16 18 20 20 18 22 23 21 21 23 24 26 29 31 33 31
34 31 28 26 25 24 26 27 26 21 20 29 35 33 31 29 29 27 25 25 23 21 20 18 17 18 18 23 25 25 26 25 26 25 25 26 27 29 32 35 35 33 34
36 32 29 27 25 26 28 31 31 33 35 38 37 35 32 32 32 31 33 30 28 27 26 27 25 24 25 26 27 30 30 32 30 28 29 31 34 35 36 38 39 39 41
42 37 38 38 37 30 27 27 29 31 36 39 38 38 33 32 34 37 39 39 36 34 33 32 32 32 32 34 34 34 33 33 32 31 33 35 36 38 39 42 44 47 50
43 43 38 38 33 31 30 28 24 24 29 37 40 41 42 42 41 39 41 43 43 40 40 38 38 39 39 37 37 36 37 36 35 37 37 38 40 42 45 47 50 51 53
48 43 43 41 38 36 33 31 28 28 28 30 34 40 44 45 46 48 47 47 45 43 39 39 40 39 38 39 40 41 40 40 40 40 41 43 44 47 50 53 54 55 57
50 41 39 37 36 37 36 33 33 33 32 31 31 37 41 42 43 42 41 39 37 37 37 36 35 34 35 35 36 38 41 41 42 44 46 48 49 51 54 56 57 58 59

GFSMW_500_spd_045.txt.gz
Wind_Speed
6 4 10 16 19 23 20 21 21 20 18 19 18 16 13 10 9 7 7 8 7 8 8 10 14 14 16 20 19 16 17 13 10 10 9 9 9 8 9 10 9 9 9
8 9 7 13 19 23 25 24 22 22 22 21 21 17 15 13 11 10 8 8 6 8 9 10 12 14 15 18 18 16 15 12 13 10 10 10 11 10 10 11 10 10 8
3 9 4 11 19 21 24 24 22 22 22 21 19 16 14 14 13 11 11 9 7 7 8 10 11 12 13 16 17 13 13 11 13 11 12 10 8 8 9 8 10 9 8
2 6 3 8 14 23 26 26 25 23 23 21 20 19 18 14 12 11 10 9 7 6 7 7 9 9 11 12 13 10 9 8 6 8 9 7 5 7 8 7 8 8 8
2 4 3 6 9 20 26 24 24 24 24 23 22 21 17 12 11 10 9 8 7 4 4 6 6 7 8 9 9 6 7 7 7 6 7 8 9 9 8 7 9 8 9
5 3 2 5 12 18 23 23 24 22 23 25 22 18 17 14 12 11 11 9 8 5 2 4 4 6 7 6 5 4 5 6 5 4 6 8 9 10 11 11 10 7 7
10 6 4 3 14 18 22 21 22 22 22 23 22 19 17 17 14 11 11 10 9 6 3 0 1 3 5 5 5 4 4 4 3 4 5 5 6 8 10 10 9 6 5
11 8 9 6 14 19 22 23 23 23 23 23 22 20 17 17 15 14 13 10 8 7 5 4 2 2 2 3 4 7 7 6 3 3 4 4 4 6 7 8 8 7 7
17 11 13 8 8 20 23 25 24 24 25 25 24 21 19 17 16 17 15 13 10 9 8 8 8 6 7 6 5 7 7 7 8 5 5 5 4 5 6 6 6 7 9
27 21 17 15 6 18 23 26 25 25 25 23 22 22 20 21 18 17 16 14 13 12 11 11 11 10 10 10 8 8 8 8 8 7 6 4 5 7 7 8 9 8 6
23 25 21 15 10 16 24 25 25 25 23 20 22 24 23 21 18 17 16 15 13 13 14 16 16 15 14 13 12 12 10 9 9 7 5 4 3 3 5 6 6 7 7
21 21 24 21 16 10 23 25 26 23 22 23 25 26 24 20 18 17 16 14 13 13 17 17 17 16 15 17 15 13 12 11 11 10 6 5 6 4 4 5 7 9 10
28 27 30 28 20 14 19 25 25 25 25 24 26 26 22 21 20 20 18 14 14 14 13 13 15 17 17 16 15 13 12 14 12 9 7 5 5 7 7 8 9 11 11
35 30 32 33 24 17 17 25 25 24 26 26 26 26 25 24 24 23 18 16 14 10 11 11 12 11 11 11 10 11 11 10 8 4 5 4 4 4 5 6 7 7 9
36 38 32 35 30 22 21 23 27 25 26 26 25 25 27 27 26 23 19 18 14 14 14 13 10 10 10 10 10 8 8 8 7 7 6 4 3 2 3 5 8 7 9
37 40 32 27 31 24 22 20 26 28 27 26 27 27 26 25 24 21 20 18 17 17 17 16 12 11 12 9 9 8 9 10 9 8 7 5 3 4 6 8 11 12 13
34 30 28 23 24 26 21 20 20 27 28 28 30 28 26 25 24 23 21 19 18 17 17 16 15 14 13 11 9 9 11 13 10 9 8 8 9 11 13 15 15 17 18
28 28 27 31 28 24 24 21 22 22 23 27 28 27 26 25 25 23 23 21 17 17 15 13 14 14 14 12 11 12 12 13 13 13 13 12 13 14 18 22 22 22 22
31 31 26 30 33 30 25 23 23 22 21 25 28 25 23 21 24 22 22 21 19 17 16 15 16 14 15 14 14 16 18 18 17 18 16 19 19 21 24 25 26 25 22
33 30 25 27 26 29 30 28 28 22 22 21 26 27 26 24 24 27 26 26 24 22 21 19 18 17 18 18 16 16 17 17 20 22 22 22 24 25 27 30 32 31 30
35 28 23 26 26 26 25 27 22 20 19 27 28 33 33 31 30 32 30 28 27 27 23 20 20 18 16 18 19 22 21 20 22 23 25 26 29 32 33 34 34 34 35
32 28 27 23 27 27 28 27 28 27 27 25 33 34 33 33 35 32 32 31 31 29 26 24 24 23 22 24 27 29 27 27 25 22 24 27 31 32 34 37 37 40 43
35 29 29 26 25 30 32 33 32 32 34 33 33 33 36 37 38 37 42 38 38 33 32 32 30 31 31 32 32 33 34 34 33 32 32 32 34 35 37 39 41 44 47
39 34 31 29 29 32 38 40 40 41 42 43 43 44 44 46 49 52 50 45 45 38 39 39 38 39 38 37 39 39 40 39 40 40 39 40 40 40 41 43 44 47 51
43 42 38 36 34 32 32 33 33 35 38 44 47 48 49 49 50 45 44 47 46 44 48 48 48 47 47 45 44 45 43 43 44 44 44 45 43 44 46 46 47 50 51
51 47 46 45 42 42 39 34 31 28 27 30 32 39 47 52 52 53 54 55 53 53 53 53 53 52 51 47 44 45 45 44 44 44 44 42 43 45 47 49 50 53 53

GFSMW_500_spd_048.txt.gz
Wind_Speed
9 4 9 15 23 18 18 20 22 22 18 19 18 17 15 15 13 12 10 9 9 12 12 12 13 17 17 17 19 17 12 10 10 11 11 12 12 12 11 9 9 8 9
10 4 7 13 18 23 21 20 22 23 23 21 20 17 16 14 13 13 10 10 8 10 12 12 15 16 16 15 15 13 11 13 11 11 11 12 12 11 11 10 9 8 9
11 7 6 12 18 25 22 22 23 23 24 22 18 15 13 12 11 12 11 10 9 10 11 12 12 14 11 12 13 14 12 11 11 12 12 11 9 8 8 10 11 11 11
13 7 7 9 14 24 27 26 26 24 25 22 19 18 18 15 13 13 13 11 9 8 11 10 10 10 9 10 11 11 9 8 7 6 8 8 8 8 9 10 10 8 10
14 10 6 10 12 22 29 27 27 24 24 24 23 21 17 14 14 14 14 13 11 8 10 10 9 8 7 6 6 6 7 8 7 7 8 11 10 8 10 9 8 10 10
17 14 8 7 11 18 29 29 28 26 25 24 24 20 17 16 16 16 16 16 12 9 8 9 8 7 6 6 3 5 4 5 5 6 8 10 11 11 12 11 8 8 9
21 18 11 5 11 15 25 26 26 25 23 24 23 20 18 17 17 16 15 16 14 10 8 7 7 4 4 6 7 7 6 3 3 4 5 6 8 10 12 11 10 8 6
23 21 17 9 12 16 24 26 26 26 25 25 25 23 19 18 16 16 17 16 15 11 8 6 4 1 2 4 5 7 9 8 3 4 5 4 6 8 10 9 7 6 4
27 21 19 16 13 18 21 25 26 28 28 27 28 27 23 20 16 17 17 16 14 12 8 5 3 4 4 2 3 4 6 6 6 5 3 7 7 8 10 10 8 7 7
31 29 25 19 14 18 23 26 28 29 29 31 31 30 27 25 22 18 17 15 14 11 9 7 6 8 8 6 5 5 4 5 5 6 5 3 6 7 7 9 8 8 9
35 29 27 23 20 20 25 27 29 29 30 29 30 31 27 27 23 21 21 17 15 12 10 11 12 13 12 11 8 8 7 8 5 5 5 1 2 4 6 7 6 5 6
36 27 26 29 23 21 23 27 30 28 28 29 29 30 31 30 25 24 23 19 17 15 14 15 15 16 16 14 11 11 10 10 8 6 7 5 4 3 3 3 2 3 4
38 32 27 27 26 23 19 27 29 30 29 31 29 29 30 29 26 26 24 21 19 16 17 15 16 17 17 15 13 12 14 13 11 8 8 6 6 5 3 2 1 0 2
40 39 38 36 30 26 19 23 29 31 31 30 31 30 29 28 26 27 24 21 18 17 16 16 17 15 15 15 13 14 14 14 11 8 9 8 7 3 2 2 2 1 2
46 46 41 33 37 32 25 22 27 31 32 31 29 28 32 31 29 27 24 22 19 17 16 15 13 10 11 14 14 14 13 11 11 11 11 9 6 4 4 3 5 5 7
49 50 44 36 36 29 26 22 26 30 31 31 31 32 33 32 29 27 25 23 20 19 17 16 15 13 16 16 14 12 10 10 12 13 11 9 5 6 8 8 9 10 11
28 33 47 43 42 35 31 26 27 30 31 31 34 32 32 30 30 27 25 23 21 21 20 19 16 16 17 15 15 13 12 14 13 13 13 10 9 9 12 14 13 12 15
27 32 34 45 35 36 32 28 26 29 33 33 32 32 31 30 29 26 26 24 22 20 19 18 18 18 17 17 16 14 12 13 13 13 12 10 13 15 17 18 18 19 22
29 35 38 44 35 27 26 27 28 30 33 33 29 30 30 30 29 28 27 27 25 22 20 20 19 19 19 19 18 16 14 15 16 16 15 16 17 19 23 25 25 23 24
25 36 42 28 29 29 29 27 27 27 29 31 26 29 31 30 29 29 29 30 28 25 23 21 19 19 20 20 19 14 9 6 12 19 21 20 21 23 27 29 28 28 31
25 28 31 32 33 32 33 30 30 24 24 21 22 27 32 30 30 33 31 29 30 29 26 25 24 22 22 22 20 18 16 13 12 14 15 17 22 26 28 30 31 31 33
37 37 37 36 35 37 38 34 32 32 28 26 26 26 31 34 31 32 33 32 30 28 27 26 25 22 23 23 23 23 22 22 20 20 19 21 25 26 25 27 29 33 35
45 41 37 32 34 36 37 34 31 28 31 26 24 26 30 39 38 33 32 31 32 31 31 29 29 27 29 29 29 29 29 30 30 28 28 29 31 33 33 36 37 39 41
48 44 39 32 37 35 36 34 32 29 28 26 25 27 25 36 42 33 35 38 38 36 37 37 36 36 35 34 37 37 37 37 37 37 36 38 38 39 40 42 44 45 48
49 47 42 31 34 38 36 36 36 35 35 34 34 34 32 36 41 41 43 44 43 45 43 48 44 43 44 40 41 41 43 43 43 42 43 43 42 42 43 42 43 48 48
48 46 42 38 34 34 35 39 41 43 41 41 39 39 41 45 49 52 50 51 51 55 51 50 52 50 52 49 48 50 50 51 52 50 45 46 45 46 43 43 43 43 45

GFSMW_500_spd_051.txt.gz
Wind_Speed
16 15 18 25 21 21 19 21 22 22 19 18 17 15 14 13 13 12 13 13 13 14 13 16 19 18 17 14 14 13 13 12 11 12 12 13 13 12 11 10 11 11 13
16 15 17 21 24 24 23 23 23 22 22 21 21 18 14 12 12 12 14 14 12 14 16 17 19 17 15 14 13 12 12 11 10 11 13 13 12 10 9 8 9 12 14
17 15 17 20 28 26 25 25 26 25 24 22 19 17 15 13 14 14 13 14 13 13 14 15 15 16 15 14 15 14 12 11 10 10 10 9 8 8 9 8 10 12 14
19 16 16 19 24 29 29 28 29 28 25 23 20 19 21 19 17 16 14 12 12 13 12 13 14 13 13 12 11 11 11 11 7 5 6 8 8 7 9 9 9 9 11
21 20 18 20 24 32 32 31 30 29 24 22 22 21 18 14 14 15 15 14 11 12 12 11 11 9 8 9 7 7 8 9 7 6 7 9 9 8 8 10 10 8 8
23 22 22 20 22 26 33 33 31 29 25 23 24 22 17 15 15 15 15 15 13 12 12 11 10 8 6 6 6 4 5 7 8 8 9 10 10 10 10 9 9 9 9
25 23 22 21 20 23 31 32 32 29 27 25 24 22 18 17 16 15 15 15 14 13 12 12 11 10 8 9 7 5 4 4 4 5 7 10 10 10 11 10 8 7 6
34 28 24 24 21 21 30 35 32 30 28 28 27 24 20 18 16 15 16 17 15 14 13 12 9 9 9 8 8 8 7 6 4 4 6 9 10 10 10 8 7 5 3
32 29 25 25 24 21 25 34 33 33 31 31 31 28 23 21 18 17 19 19 17 16 13 12 10 8 7 6 5 4 4 4 5 4 6 8 10 11 9 8 8 7 5
34 32 29 27 27 25 28 34 33 34 35 34 33 31 28 25 23 20 20 21 20 17 14 13 11 9 7 6 5 3 3 2 2 3 5 8 9 10 10 11 11 11 9
37 34 32 30 28 28 31 32 32 33 34 35 35 35 31 28 25 23 24 23 20 18 15 13 11 10 10 7 5 6 6 5 2 1 2 7 9 8 9 9 10 9 7
38 35 32 31 31 31 31 31 33 33 33 34 35 33 33 31 28 25 27 26 24 21 19 16 15 13 12 9 8 8 8 8 5 5 2 6 9 8 7 7 6 5 3
45 42 38 35 33 29 31 33 32 32 34 35 34 34 33 30 28 28 29 28 26 24 21 18 16 16 13 11 10 10 10 9 9 9 6 7 11 10 8 6 4 2 0
51 48 43 38 36 32 27 32 33 34 33 34 34 34 32 30 31 32 30 31 28 26 23 20 18 16 15 13 12 12 12 12 11 11 9 10 12 11 8 5 2 3 1
56 52 46 39 36 35 30 29 33 35 34 33 32 32 32 33 34 33 32 32 29 27 25 21 19 16 14 13 13 15 15 13 13 13 13 13 13 10 8 6 2 3 4
59 54 52 46 40 34 29 27 27 33 34 33 31 35 34 32 31 33 32 32 31 28 24 21 19 15 16 16 15 14 14 13 14 15 15 14 12 9 6 5 6 6 7
60 57 55 52 45 39 35 33 28 31 34 34 35 34 33 33 33 33 31 31 30 28 24 23 20 17 19 18 16 16 13 12 12 13 14 15 13 8 7 7 9 11 13
58 58 56 55 46 39 41 34 30 30 31 34 35 34 33 33 36 34 32 31 30 28 27 25 23 18 21 18 18 16 13 11 13 15 16 15 13 12 13 12 13 16 18
55 57 51 50 47 44 38 34 32 32 28 33 32 32 33 34 34 33 32 32 33 30 28 28 24 20 20 18 17 15 12 11 13 15 16 16 16 17 18 18 19 19 21
53 39 37 40 52 53 44 37 35 34 25 26 29 30 33 35 33 34 34 34 34 32 29 27 22 21 20 18 18 15 9 8 13 18 16 17 17 20 22 21 21 20 23
32 35 33 42 39 51 46 41 36 28 26 23 28 32 33 34 35 35 35 34 32 30 28 26 24 23 21 19 19 16 14 12 13 10 9 11 14 17 18 20 21 20 22
32 34 32 44 47 46 42 41 37 32 26 25 27 34 35 35 35 34 33 32 31 30 29 26 23 21 21 21 20 21 18 19 17 15 15 16 18 21 23 25 27 29 31
32 33 38 45 49 44 45 43 42 37 30 29 27 30 33 33 35 35 34 34 33 32 30 27 26 25 25 26 26 25 25 23 23 22 23 25 28 27 28 31 34 36 37
42 41 40 39 43 43 43 40 40 40 35 31 31 30 30 30 32 36 38 35 35 32 30 30 30 31 31 31 31 30 29 31 33 33 32 32 32 33 35 36 38 38 38
50 48 46 46 46 43 39 42 43 42 38 31 33 32 32 33 36 38 41 37 36 35 36 37 38 38 36 36 37 35 36 40 37 34 34 38 40 42 43 41 39 37 41
53 53 51 51 47 44 44 45 45 42 40 38 35 40 39 39 40 32 43 44 43 43 41 46 46 47 45 45 43 44 43 43 44 45 42 43 46 48 48 44 41 41 42

GFSMW_500_spd_054.txt.gz
Wind_Speed
18 18 22 21 20 21 21 23 24 23 20 16 17 16 14 13 11 11 12 12 12 15 15 18 16 16 14 13 15 14 13 13 13 11 11 11 10 10 10 12 12 14 15
17 18 19 23 22 23 23 23 23 23 23 21 20 18 15 13 13 11 12 14 15 17 18 18 16 15 15 14 13 14 12 11 11 11 10 8 8 7 9 10 11 12 14
17 17 22 24 25 25 24 25 24 25 23 21 19 17 15 15 15 13 12 14 16 17 18 18 16 15 13 12 12 12 11 11 10 8 6 5 6 7 9 9 10 11 11
17 17 21 25 29 27 28 28 28 26 24 21 19 19 20 20 17 14 13 13 14 16 16 16 15 16 14 13 12 12 11 10 8 5 3 4 6 6 8 8 9 8 8
19 19 20 24 29 34 31 30 30 29 25 23 21 21 20 16 15 15 14 13 13 13 13 13 13 12 11 10 9 8 8 8 7 6 6 5 7 7 7 7 8 7 7
23 21 19 22 26 31 34 33 31 31 27 24 23 21 18 16 17 17 16 15 13 13 12 11 11 10 9 8 7 6 6 6 6 7 8 8 7 7 8 8 9 8 7
29 26 23 25 24 27 32 33 32 32 30 26 26 24 20 18 18 18 17 16 15 13 11 10 8 8 8 9 7 6 5 5 5 6 8 10 9 7 7 7 6 7 6
33 27 25 25 26 28 31 36 34 33 32 30 29 28 22 21 19 19 18 17 15 13 12 11 8 7 8 9 9 8 7 5 4 5 7 9 9 8 8 7 5 4 3
35 30 27 27 27 28 29 33 37 37 34 32 33 31 27 24 20 20 21 18 17 15 14 13 11 9 8 8 8 6 5 6 5 6 8 10 10 9 8 7 6 5 4
39 36 32 31 28 27 27 34 38 38 37 36 35 34 30 27 25 23 22 21 20 19 16 15 14 11 9 7 6 5 4 4 4 4 7 9 10 8 8 8 7 7 7
41 38 33 31 27 29 30 31 36 39 37 36 37 36 32 30 28 24 24 23 21 21 18 17 15 13 11 10 9 8 7 5 3 2 5 10 10 10 10 10 9 8 7
42 40 37 36 33 29 31 31 36 40 37 36 36 36 36 34 30 26 25 24 23 24 22 20 18 16 15 13 13 11 10 8 6 4 5 11 12 11 11 11 10 8 6
50 47 46 42 36 34 32 33 35 37 38 39 37 38 35 33 31 29 28 26 25 25 23 22 20 20 17 16 15 14 13 11 9 8 7 11 16 15 12 9 8 7 5
57 49 47 44 42 37 31 31 34 37 38 38 39 38 35 34 33 33 30 29 28 26 25 25 24 22 18 17 16 16 15 13 11 11 9 11 16 15 12 8 8 7 6
61 53 49 47 44 40 36 33 32 36 38 38 38 36 37 37 37 35 32 30 29 28 28 27 26 22 18 17 18 18 16 13 11 12 11 13 18 17 15 11 7 5 4
62 57 53 51 46 40 37 32 30 30 35 34 35 37 38 38 36 35 35 33 30 30 30 29 28 23 19 19 19 18 15 12 11 13 13 14 17 17 15 10 7 5 6
65 62 58 55 50 44 37 34 34 29 31 34 34 36 37 37 35 35 35 33 32 32 32 31 28 24 21 21 20 16 15 13 12 13 14 15 18 17 15 10 6 4 6
65 64 60 57 53 47 41 38 35 29 26 30 34 36 35 35 35 33 31 32 33 32 33 31 28 26 21 22 21 17 15 12 11 12 13 15 18 18 15 11 8 7 10
64 68 66 57 54 53 43 41 36 35 30 29 28 34 34 35 37 34 32 34 33 32 31 30 29 26 23 22 21 17 14 11 11 11 12 16 18 18 16 12 11 12 13
61 65 66 61 58 57 49 47 39 39 33 29 22 26 35 35 34 33 34 37 36 33 33 32 31 28 26 23 19 17 14 12 12 13 15 18 18 18 18 15 12 9 11
52 60 61 61 59 57 55 51 44 39 36 34 30 25 32 33 34 36 37 37 36 34 32 31 31 29 27 24 21 18 14 15 14 13 15 16 17 16 15 14 13 14 17
43 53 60 59 55 55 54 51 46 45 40 40 32 26 29 32 33 34 36 35 35 34 33 32 30 28 27 24 20 17 17 20 17 15 16 16 16 17 18 17 20 22 23
39 45 47 48 50 52 56 58 54 50 45 42 32 30 26 32 33 32 33 33 33 32 31 30 29 27 25 24 23 20 21 22 22 22 22 21 20 21 22 22 23 25 27
38 37 40 44 50 48 51 56 58 54 48 41 36 31 26 28 34 35 34 33 32 31 31 30 29 29 29 28 28 24 22 24 24 23 25 27 27 27 30 31 32 33 35
40 41 42 43 47 46 50 49 59 55 47 45 43 34 31 29 33 35 34 34 34 34 33 32 33 34 35 33 32 30 28 28 29 31 31 32 34 33 32 32 34 36 40
47 47 46 45 45 48 50 51 57 52 48 46 38 38 37 37 37 37 39 41 40 38 38 36 37 38 39 37 37 36 36 36 35 36 37 37 39 39 39 41 43 42 41

GFSMW_500_spd_057.txt.gz
Wind_Speed
20 19 18 16 16 18 20 24 25 18 16 17 17 16 14 14 11 9 9 10 10 11 14 14 14 14 13 13 10 10 9 7 9 9 9 10 10 10 10 11 13 14 15
17 16 18 18 17 19 20 22 25 21 17 19 18 16 15 13 12 10 9 9 12 15 15 17 17 16 15 12 11 10 10 9 8 8 8 8 8 9 9 11 10 12 12
15 16 18 20 20 21 21 23 24 23 20 18 17 15 14 15 14 12 10 12 14 16 16 15 15 15 15 14 12 10 9 8 7 6 5 5 6 7 8 11 10 9 9
12 13 16 22 24 24 25 25 25 24 23 18 17 16 16 16 15 13 13 12 13 15 14 14 12 12 11 11 10 8 8 8 5 3 3 4 5 8 7 8 10 9 7
17 15 13 19 26 29 27 27 27 25 23 20 19 20 17 16 14 14 14 14 14 14 13 13 11 9 9 9 9 8 7 5 5 3 3 4 4 5 8 6 8 7 7
22 21 17 16 22 27 30 30 29 28 24 22 21 19 18 17 17 17 15 15 14 12 12 12 10 7 6 5 5 6 5 4 5 5 5 5 5 5 5 5 6 5 5
28 25 18 16 14 22 28 30 30 30 28 24 22 20 18 18 20 18 15 14 15 14 11 10 9 7 3 3 4 4 4 5 6 6 6 6 6 5 5 4 3 2 3
32 28 23 21 20 21 26 30 31 31 30 27 25 25 22 21 21 20 18 16 14 13 12 10 9 7 5 4 2 3 4 5 6 7 7 7 5 5 4 4 3 1 1
37 32 27 26 22 22 24 27 34 35 32 31 29 28 26 23 21 20 20 19 17 16 15 12 9 6 6 6 4 4 4 6 5 7 8 7 6 5 4 3 1 1 1
38 39 32 28 23 23 24 25 30 35 36 35 34 31 29 26 25 23 23 21 20 19 17 14 12 9 8 6 4 3 2 3 4 6 9 9 8 6 5 3 2 4 3
38 41 34 30 28 28 27 27 28 34 38 37 35 34 32 29 28 26 24 23 22 22 20 18 15 13 10 8 7 7 6 4 4 4 8 10 9 8 7 6 6 7 5
42 42 39 34 34 30 29 26 27 28 36 38 37 35 36 34 31 27 25 25 24 25 24 22 19 17 14 12 11 11 11 9 7 7 7 12 12 11 10 9 8 8 7
45 45 44 42 36 34 32 27 26 25 31 39 39 38 36 35 32 29 28 26 25 25 26 24 22 20 17 15 14 14 15 12 11 10 9 12 16 15 13 12 10 9 7
57 45 50 47 41 40 35 30 26 27 28 35 39 38 35 34 33 33 31 26 25 25 26 26 25 23 19 17 15 16 17 15 15 15 13 13 17 17 15 13 12 11 9
54 53 47 53 47 43 40 35 33 28 27 29 34 33 34 35 35 34 33 29 26 25 28 28 27 24 19 17 17 17 17 16 17 16 14 14 18 19 16 14 11 10 9
64 66 65 56 50 48 43 38 34 28 25 28 30 33 34 36 35 35 34 33 30 28 29 28 28 25 22 18 18 18 16 14 14 14 15 14 17 20 19 15 11 9 8
64 61 58 58 55 52 47 42 36 33 29 23 30 33 35 34 35 36 36 35 33 33 30 30 29 27 24 20 19 19 16 13 12 14 15 13 17 21 20 16 13 11 8
55 56 59 59 59 53 50 46 40 35 30 27 25 29 32 34 35 35 34 36 37 35 33 32 31 29 25 22 19 19 16 13 13 13 15 15 18 21 21 18 15 12 8
48 57 60 61 60 60 50 48 43 37 34 31 26 25 28 30 32 32 32 33 35 36 33 34 32 29 27 24 21 20 17 14 15 14 15 15 15 19 22 21 16 11 11
48 52 59 60 62 60 54 51 47 41 35 30 27 23 21 28 30 30 31 33 34 33 34 34 32 31 29 27 22 21 18 17 17 15 16 14 14 17 20 18 16 14 14
54 48 54 60 63 61 57 54 52 46 33 36 33 29 24 21 28 31 33 35 35 36 33 32 31 32 30 28 24 23 21 20 20 18 17 13 14 16 17 18 17 13 14
47 50 53 54 59 62 62 56 55 46 43 42 38 32 32 25 26 32 32 33 34 33 32 33 32 31 30 27 24 23 22 23 21 19 17 13 13 15 17 18 16 17 19
51 47 49 52 57 62 65 60 58 58 49 45 42 37 39 32 28 31 34 33 33 34 33 34 32 31 30 27 24 23 24 24 22 21 19 16 18 20 22 20 18 21 22
49 47 47 51 56 59 64 65 65 60 58 51 50 47 43 35 30 28 34 32 32 33 33 34 32 31 29 27 25 25 25 24 22 21 22 24 27 26 26 26 27 30 29
47 45 45 48 53 55 57 58 57 58 57 55 56 53 48 39 33 28 33 34 34 34 34 34 34 32 30 30 31 31 31 29 27 28 29 29 29 30 31 31 32 33 31
44 45 45 48 50 52 54 52 55 56 58 57 58 56 53 42 35 33 31 35 35 35 36 36 35 36 37 36 36 36 34 31 31 31 31 31 33 33 33 34 36 36 38

GFSMW_500_spd_060.txt.gz
Wind_Speed
14 15 14 13 10 13 16 22 19 14 14 13 12 11 11 9 8 8 8 9 10 9 8 9 11 11 10 10 10 7 8 8 9 10 9 10 11 11 11 12 15 16 16
12 12 12 13 11 14 17 21 23 16 14 14 14 12 12 10 10 10 10 9 13 13 13 12 12 10 9 9 8 6 9 8 9 10 10 8 8 9 11 10 12 13 14
10 9 10 13 14 14 17 20 25 21 15 14 14 12 11 11 10 11 11 13 14 16 15 15 14 12 9 8 7 6 6 8 7 8 8 8 8 8 11 9 10 10 13
8 2 3 11 18 17 19 20 23 23 19 15 14 14 12 10 9 9 11 14 14 14 14 14 14 11 9 7 6 6 4 4 4 5 7 9 7 11 10 8 10 10 10
11 9 6 7 15 20 22 22 23 22 19 16 15 16 14 12 10 10 12 12 13 13 12 12 12 9 8 5 3 5 3 2 3 4 4 7 7 7 9 7 7 8 10
18 14 11 10 8 15 21 24 23 23 20 18 17 17 16 15 13 13 12 12 12 11 11 8 7 7 5 3 1 1 1 2 3 3 3 5 6 7 7 6 7 6 7
24 19 15 13 12 7 17 23 24 23 22 20 18 18 18 18 16 14 12 11 11 10 9 8 5 4 2 1 1 1 1 2 4 4 2 3 4 6 6 6 5 5 6
29 25 18 17 16 13 10 20 25 25 23 21 20 20 18 19 21 18 16 15 13 11 11 9 6 5 2 2 3 2 2 2 3 4 2 1 3 3 5 3 3 4 6
40 29 22 20 19 20 17 16 25 28 27 26 25 22 20 19 20 21 20 18 16 15 13 11 9 7 4 3 5 4 4 4 2 4 4 2 1 1 3 3 3 5 6
57 33 32 26 23 20 19 18 21 29 31 31 30 27 25 23 22 20 20 20 18 17 15 13 10 7 7 6 4 3 2 2 2 2 5 5 4 3 2 2 3 4 5
47 47 42 31 26 24 21 18 18 23 29 31 30 30 27 25 25 23 21 20 20 19 18 15 13 11 10 9 6 3 2 1 1 2 6 7 6 6 5 5 6 5 5
43 26 32 25 29 24 21 19 20 18 24 31 34 33 32 29 26 25 23 22 23 22 22 20 17 15 13 11 9 7 5 5 5 6 5 8 9 9 8 8 8 8 5
35 48 41 40 22 28 23 21 19 19 22 23 32 36 34 32 28 26 25 23 23 23 24 23 21 19 17 15 11 10 9 8 8 9 9 9 12 12 11 11 10 10 9
40 45 42 34 30 34 28 25 22 21 19 19 22 33 35 32 30 29 28 25 23 23 24 25 24 23 20 17 14 13 12 11 11 12 12 12 14 16 14 12 11 10 9
47 45 45 47 39 38 31 32 28 25 22 18 16 21 32 33 33 30 30 30 26 24 24 25 25 25 21 19 17 16 14 13 12 13 14 14 15 18 17 15 15 12 10
39 39 49 49 51 37 37 37 34 31 25 17 17 20 26 32 31 31 30 32 30 26 25 24 24 24 21 21 19 18 16 13 12 13 15 16 16 16 19 18 14 13 13
52 51 55 48 49 45 42 41 36 34 29 20 18 20 22 26 29 30 30 29 31 30 28 26 25 25 24 22 21 20 17 14 13 13 14 16 16 17 20 21 18 16 15
58 59 58 57 66 51 39 27 35 37 33 25 22 20 19 23 27 27 27 29 30 31 31 29 27 27 27 26 23 22 18 15 13 14 15 15 16 18 20 23 20 20 17
52 54 57 59 59 50 47 45 46 40 36 29 25 21 20 20 25 25 26 28 29 30 30 31 30 28 28 28 26 24 19 16 16 16 16 16 16 18 19 21 22 21 18
42 51 53 59 59 57 53 51 46 39 34 29 26 25 21 21 23 25 27 29 29 29 30 31 31 32 31 31 29 27 23 18 18 19 18 18 18 17 17 21 24 22 20
51 59 51 53 58 57 54 52 49 43 35 34 36 31 26 23 20 24 26 29 29 29 29 29 30 31 32 33 31 30 27 22 21 21 21 20 19 17 17 18 21 21 22
31 49 48 52 55 57 54 52 52 46 43 39 41 37 31 27 23 22 22 28 31 30 29 30 30 30 31 32 32 31 28 25 24 25 25 22 20 17 16 16 18 20 19
43 49 51 49 49 52 55 52 51 52 49 47 44 42 37 32 29 27 24 23 30 32 31 31 29 29 32 32 31 30 29 28 25 27 27 23 23 19 17 17 17 17 18
60 53 53 54 52 49 53 53 52 53 53 52 47 45 41 35 34 31 29 25 26 32 33 33 32 31 34 35 33 32 30 28 26 27 26 27 26 23 22 19 20 22 24
74 54 53 52 46 50 50 53 55 57 58 58 53 50 46 42 38 36 30 29 26 28 34 34 34 35 35 36 35 33 30 29 29 31 30 30 29 27 25 26 29 31 32
82 69 56 55 52 47 50 51 54 57 60 60 59 55 52 47 44 41 37 34 30 28 34 36 35 34 34 34 34 33 31 32 34 34 33 32 32 30 30 31 33 33 34

GFSMW_500_spd_063.txt.gz
Wind_Speed
9 8 9 11 9 8 11 15 14 11 9 7 8 9 8 7 5 6 9 8 7 5 7 6 8 8 5 7 10 9 10 11 11 11 10 11 11 12 12 14 18 18 20
8 5 7 10 11 11 13 16 17 12 12 10 11 11 10 8 7 9 9 9 11 12 11 10 9 9 7 8 8 10 9 11 11 9 12 11 10 12 11 12 15 17 17
9 7 6 11 11 12 13 17 20 14 11 12 12 11 10 8 9 9 11 12 13 14 13 12 11 9 9 9 8 9 8 9 10 7 9 11 10 12 10 10 16 14 17
10 9 7 7 12 12 15 18 20 18 12 11 12 12 11 11 9 10 12 12 14 15 15 12 11 11 10 9 8 8 6 8 7 8 6 12 10 10 11 12 12 13 17
17 11 9 6 12 13 16 17 20 20 16 12 13 13 12 12 10 11 14 14 15 14 14 12 10 9 9 8 7 6 6 5 3 7 7 9 9 7 9 10 10 11 13
19 16 14 11 6 4 13 17 18 20 19 15 14 14 14 14 13 14 14 13 14 14 13 10 8 5 6 5 5 4 4 3 3 6 8 8 9 10 9 7 7 13 10
24 21 15 12 8 2 6 16 17 19 20 17 15 15 17 15 15 15 14 12 12 11 10 8 5 3 3 4 4 4 3 3 2 4 7 9 9 8 10 7 10 12 12
28 27 20 15 13 8 6 12 19 20 20 18 18 17 17 18 18 16 13 14 13 11 10 7 5 2 1 2 4 5 5 3 2 3 6 7 9 8 7 8 10 9 12
36 36 29 22 18 13 12 9 16 22 23 22 22 21 19 19 21 21 18 15 14 13 10 8 6 3 1 2 6 6 6 5 3 1 3 4 6 8 8 7 9 9 10
35 40 37 29 25 19 17 13 15 20 26 27 25 23 22 22 22 22 21 19 17 15 12 10 8 7 5 4 4 5 4 3 4 1 0 2 4 5 6 6 7 7 7
38 35 38 25 20 26 25 17 15 18 21 25 27 27 24 22 22 21 21 22 19 17 15 13 11 9 8 8 5 4 2 1 1 0 1 3 3 4 4 5 7 7 7
30 38 37 44 41 42 26 19 17 15 19 23 29 29 29 26 24 23 21 21 21 20 20 17 16 14 12 11 7 5 3 2 3 3 3 5 6 5 6 6 6 6 6
25 32 36 44 50 36 29 20 17 15 16 18 22 28 29 28 26 24 23 21 21 21 22 21 18 16 14 12 10 9 7 5 6 7 7 7 8 10 9 9 10 9 7
27 32 31 38 21 25 27 23 17 12 15 14 18 21 28 31 30 29 26 25 23 22 22 22 21 19 18 15 13 12 10 10 9 10 10 10 10 12 13 12 12 12 11
33 30 34 35 33 34 35 33 23 15 14 14 10 16 21 30 34 32 29 28 27 24 23 23 22 21 19 18 17 15 13 12 12 12 12 12 13 12 14 15 15 15 13
45 31 37 33 30 30 33 36 27 20 19 16 15 14 16 21 30 32 31 30 29 27 25 23 22 21 20 20 20 18 15 13 13 12 12 13 14 15 15 17 17 17 17
28 35 35 35 39 34 40 59 40 33 28 21 19 14 14 15 22 30 32 30 28 30 28 25 23 21 22 21 20 21 18 15 13 13 13 15 16 17 17 18 21 19 18
50 42 46 46 45 30 36 49 48 38 35 31 23 16 12 12 17 24 27 28 28 29 30 29 27 25 24 24 23 22 21 18 15 15 15 17 18 19 20 20 21 22 21
59 50 47 48 43 44 50 42 38 36 33 27 22 17 15 15 14 18 24 27 28 29 28 30 30 28 27 27 26 25 23 21 18 17 18 18 19 20 21 20 20 24 25
63 63 54 52 54 55 54 48 41 35 24 19 24 22 22 19 18 18 23 27 28 28 32 31 31 31 31 31 29 27 26 24 21 20 21 21 21 22 20 19 21 24 28
63 65 55 62 61 55 46 33 39 38 32 23 26 26 25 23 21 21 21 24 27 28 29 30 32 32 31 32 32 30 26 24 25 23 23 23 23 23 21 19 20 24 28
57 49 59 63 67 62 56 50 20 31 38 33 34 33 28 26 26 24 22 22 27 28 29 30 30 30 30 31 31 30 28 28 27 27 27 25 25 24 22 21 22 23 27
59 70 55 63 63 67 64 54 54 51 43 38 38 37 34 31 32 26 26 24 23 28 29 30 29 30 30 30 29 29 29 29 28 30 30 28 28 27 24 24 25 25 25
67 67 63 60 56 50 61 61 53 52 47 42 42 40 39 35 37 32 29 28 24 23 23 30 31 32 32 32 31 31 31 29 29 31 32 31 30 29 28 28 27 26 26
86 76 66 46 51 61 58 50 47 49 49 47 47 45 43 42 39 38 36 31 28 25 23 20 30 34 33 32 33 34 34 33 32 34 34 32 31 32 32 32 29 27 27
78 80 75 55 59 53 50 47 48 46 48 50 51 50 48 47 45 42 40 36 32 28 26 26 25 30 32 34 36 34 36 37 37 35 35 35 34 34 35 36 34 30 29

GFSMW_500_spd_066.txt.gz
Wind_Speed
11 13 15 13 13 12 13 16 15 13 12 8 9 8 7 6 5 4 4 5 4 6 8 11 8 10 12 11 11 12 13 13 11 10 11 10 12 13 15 17 20 20 20
12 12 14 12 14 14 15 16 16 12 11 8 8 8 5 4 4 6 3 4 6 8 11 10 9 12 11 10 11 12 10 12 10 9 11 10 10 11 12 13 15 19 19
16 19 15 13 11 15 14 18 20 15 14 10 8 7 5 6 6 4 5 7 6 10 10 10 10 10 10 11 11 11 9 9 10 11 8 10 10 9 10 11 12 15 18
13 18 18 14 12 13 15 17 22 17 14 12 9 10 9 8 8 7 7 10 11 12 12 12 12 11 10 10 8 9 6 7 11 13 11 11 12 9 8 8 11 13 17
13 14 20 18 17 15 16 17 23 21 15 13 10 10 10 10 9 10 11 12 13 12 12 13 12 10 8 8 7 7 5 7 8 13 12 12 12 10 8 8 8 9 15
14 14 18 18 14 15 16 17 20 24 20 15 13 11 12 11 12 13 11 11 11 12 11 11 10 9 8 7 5 5 5 5 7 11 15 12 10 12 11 10 10 11 13
11 18 15 17 12 10 15 16 18 22 23 19 16 13 14 15 14 14 14 13 14 13 11 8 7 7 6 5 5 5 4 4 5 8 12 16 10 10 13 11 13 15 15
14 19 18 19 19 17 18 20 20 21 23 23 21 18 16 17 16 16 16 14 15 13 9 6 5 4 5 5 6 7 5 4 4 7 10 9 13 10 12 10 13 14 16
17 18 22 23 23 19 17 22 24 23 23 25 24 23 20 19 19 18 17 15 15 13 9 7 4 1 2 5 6 6 6 6 4 5 7 8 9 10 11 12 11 11 14
22 18 24 26 20 23 22 22 26 26 27 27 25 24 25 23 23 21 20 18 17 13 11 10 7 3 1 3 4 4 4 5 5 4 5 5 6 6 9 11 13 10 9
7 17 22 29 28 22 21 20 18 23 27 26 26 25 23 23 22 21 21 19 17 15 14 12 8 6 4 4 4 3 2 3 2 1 3 4 5 5 7 7 8 11 10
14 12 17 27 34 26 27 21 16 18 24 29 29 29 28 26 24 23 22 20 19 18 16 13 12 11 10 9 7 4 3 1 2 3 2 5 6 7 6 7 8 8 10
22 16 11 15 28 30 36 24 23 22 25 29 31 29 29 28 26 24 24 23 23 23 22 19 17 16 14 13 11 9 6 4 4 5 6 6 8 10 9 9 10 9 8
29 25 23 22 28 44 48 41 30 28 23 26 29 29 30 29 30 30 28 26 25 23 23 23 22 20 19 17 15 14 11 7 7 7 8 10 10 10 12 13 13 12 12
33 39 31 30 37 33 41 54 42 32 26 21 22 25 26 30 33 31 30 28 26 25 24 24 23 22 20 20 18 17 16 13 10 9 11 12 14 13 14 16 17 17 17
42 41 34 36 25 31 40 41 42 35 29 25 22 23 22 22 28 34 32 32 29 28 26 24 23 22 21 22 22 21 19 17 14 12 12 14 16 16 16 18 20 20 21
42 42 44 41 34 39 35 40 34 38 34 30 28 26 25 21 22 31 35 32 31 31 29 27 26 23 23 24 24 23 22 22 19 15 14 14 16 18 18 19 21 23 23
44 46 43 36 41 40 34 40 42 43 40 36 32 29 25 25 23 25 31 33 32 31 30 30 29 27 25 25 25 25 25 24 22 19 18 18 18 19 19 20 21 23 25
48 50 49 44 44 49 41 37 40 45 44 40 33 32 26 21 22 23 25 30 33 33 31 32 32 30 29 29 27 27 25 25 25 23 21 20 21 22 21 21 21 22 24
56 51 52 54 40 37 35 32 40 47 56 48 39 37 34 26 22 23 26 29 31 32 35 34 33 33 33 33 32 30 26 25 26 25 23 23 24 25 23 23 22 21 25
58 60 59 50 54 50 48 45 34 48 57 44 58 44 40 32 28 27 26 28 30 32 32 33 34 34 33 34 35 34 30 26 27 27 26 27 26 27 26 23 22 24 26
71 64 65 68 61 58 59 52 42 39 42 39 36 50 42 34 32 30 30 26 26 29 32 34 34 33 35 36 36 36 34 33 30 29 30 31 30 29 28 25 25 27 27
77 68 77 68 68 65 58 59 56 47 50 56 46 43 41 37 35 33 32 28 24 23 29 32 33 34 34 36 37 37 37 36 33 31 33 35 35 35 31 28 29 30 30
88 80 73 78 73 77 71 61 62 57 52 47 51 46 45 44 40 40 38 34 28 24 22 27 31 33 35 35 36 37 37 36 34 32 33 38 40 38 35 33 32 32 33
80 88 84 75 80 81 65 64 69 63 56 46 46 45 44 46 46 43 41 39 33 31 29 27 27 33 34 34 38 38 38 38 37 39 39 39 39 38 36 35 35 36 37
82 80 89 85 80 71 63 67 57 63 62 55 48 48 47 47 51 49 44 44 40 35 34 32 32 29 28 32 37 38 39 40 42 43 41 37 36 40 39 38 38 40 39

GFSMW_500_spd_069.txt.gz
Wind_Speed
18 21 20 20 18 17 18 19 18 16 13 11 9 9 5 6 4 4 4 3 4 4 5 7 9 12 13 12 11 10 11 10 10 9 13 15 15 15 15 15 18 20 20
16 20 21 18 21 21 21 21 20 18 15 11 10 10 6 5 4 5 5 4 8 8 9 10 10 10 12 10 10 9 11 10 9 7 10 12 14 13 13 12 14 16 17
15 19 20 22 22 21 21 25 23 20 16 14 12 10 8 6 6 5 6 8 9 11 11 11 11 11 10 9 8 9 9 9 10 10 9 9 11 11 11 10 11 14 16
14 17 21 22 20 23 25 26 23 21 17 16 14 12 11 10 9 8 8 10 11 11 11 11 12 12 10 10 8 9 8 8 9 12 11 9 12 11 9 8 7 11 14
15 17 16 19 23 23 24 27 23 20 17 16 14 11 10 11 10 12 11 10 13 12 12 10 10 11 9 10 8 8 7 9 8 12 12 10 12 10 9 8 8 8 12
18 18 20 21 18 21 21 23 25 20 19 16 14 11 12 13 13 14 14 12 11 13 11 9 8 8 8 7 6 6 7 10 9 13 14 11 11 10 8 9 12 11 15
18 18 16 15 13 14 17 18 23 22 19 18 16 13 14 14 14 15 14 14 15 14 12 9 8 8 8 7 6 4 7 10 9 11 14 14 10 11 10 11 15 17 18
19 18 17 17 15 16 19 20 21 23 23 20 18 17 16 17 16 16 15 14 15 15 10 8 7 6 7 6 6 5 5 8 10 10 11 13 12 10 11 10 14 17 19
15 15 14 16 17 16 20 24 23 23 24 24 22 20 19 18 19 19 17 15 14 12 11 9 5 5 4 7 7 6 5 8 9 8 11 12 11 9 10 10 11 13 14
25 19 16 19 15 13 16 20 24 24 25 26 25 23 22 22 22 22 20 20 16 14 12 10 7 6 7 7 7 5 5 5 8 9 9 11 10 9 10 10 11 11 10
33 29 21 18 22 21 20 15 14 21 23 25 25 25 23 24 24 23 23 20 18 16 14 12 9 8 7 9 7 6 5 3 3 5 8 9 9 9 8 8 8 9 8
32 31 30 33 30 30 27 20 16 13 16 25 27 27 27 27 26 23 22 21 21 19 18 14 12 11 8 8 8 6 4 3 3 3 3 7 9 9 9 10 9 9 9
36 39 38 37 39 39 36 33 29 23 21 20 28 31 30 29 28 28 27 26 24 23 20 18 16 15 13 11 10 10 9 6 5 4 4 5 7 10 11 12 13 11 10
41 38 34 36 40 37 41 37 35 30 29 27 27 34 34 33 33 32 31 29 28 27 25 23 21 20 17 16 15 14 13 11 8 7 7 8 8 9 13 15 15 16 15
42 42 40 36 37 41 44 47 39 40 34 34 31 31 38 38 39 37 34 32 29 28 27 26 24 23 22 21 19 19 18 16 13 11 10 10 11 12 13 16 19 19 19
46 45 41 37 39 44 44 50 48 47 39 35 34 35 36 42 43 43 40 37 32 31 30 27 26 26 25 24 24 23 22 20 18 16 14 13 13 15 16 17 18 21 22
47 50 45 42 44 45 35 46 53 54 47 39 41 39 37 37 42 46 44 42 38 36 33 32 30 27 25 25 26 26 24 23 21 20 18 16 16 17 17 18 20 20 23
47 52 50 49 49 51 38 39 43 47 54 52 46 44 42 39 40 42 44 45 43 41 39 36 34 32 29 28 27 27 26 25 24 23 22 20 19 19 19 19 20 21 22
62 52 55 53 52 52 41 39 39 45 50 46 46 46 43 40 41 39 39 43 47 45 42 41 40 37 34 33 31 29 26 25 25 25 24 23 22 22 22 21 21 22 23
62 61 56 58 57 54 47 38 48 49 50 46 47 46 44 41 39 37 36 38 42 47 47 45 42 40 38 38 36 33 29 25 25 27 25 25 24 26 26 24 25 23 23
62 61 63 62 62 59 51 47 51 57 57 54 52 49 45 43 39 38 37 35 36 42 46 45 44 41 39 39 38 36 33 28 27 27 27 27 28 30 31 28 26 25 28
69 65 64 66 64 62 58 42 48 60 58 55 58 52 50 45 42 40 38 37 37 37 40 41 41 40 40 38 38 38 35 34 32 30 30 31 32 33 35 34 27 28 30
75 71 71 70 70 66 61 59 44 53 51 51 49 43 44 55 49 46 43 38 37 36 37 38 37 38 40 40 39 39 38 37 36 35 35 36 37 38 38 36 34 32 30
78 77 77 75 74 73 71 68 58 67 60 45 41 42 50 58 58 54 46 41 40 36 33 33 35 39 39 39 39 40 39 39 39 39 40 41 40 41 40 39 38 36 34
79 79 76 83 78 78 73 80 72 54 50 51 50 48 45 55 52 58 51 49 44 40 37 33 32 34 36 38 41 42 40 40 40 44 46 42 39 41 42 42 42 41 37
84 81 80 78 87 83 85 85 65 63 51 58 55 51 46 51 49 57 51 55 50 46 43 40 37 34 31 36 38 40 39 39 43 45 41 40 39 38 40 42 44 44 41

GFSMW_500_spd_072.txt.gz
Wind_Speed
16 17 19 19 21 22 23 21 20 19 17 14 11 10 10 8 8 5 4 5 6 8 12 12 14 13 13 12 9 10 11 10 12 11 13 15 16 15 14 14 15 16 16
16 16 16 18 22 25 25 24 21 17 14 12 10 10 9 7 9 8 8 7 9 8 11 12 13 12 11 11 11 9 8 8 12 11 11 12 14 12 11 13 14 15 12
17 16 14 15 17 21 25 23 22 17 13 12 12 12 10 11 11 9 8 9 10 11 12 11 11 10 10 9 9 8 9 9 9 11 12 9 10 11 10 11 11 11 12
16 16 15 14 17 20 25 24 22 19 14 13 14 12 10 10 12 12 11 12 13 13 13 11 10 9 9 10 9 7 8 10 10 10 12 9 10 9 8 8 9 11 13
22 19 18 19 21 20 24 26 23 21 18 16 13 10 11 11 10 12 13 14 14 14 15 13 11 9 8 10 10 9 8 10 12 12 12 10 10 9 8 8 9 11 12
21 19 20 21 18 19 23 26 23 21 20 18 15 12 11 12 13 13 15 18 17 15 15 14 13 10 7 8 9 9 9 12 13 13 13 11 10 9 7 10 12 12 12
17 16 16 16 18 16 17 21 25 22 22 20 17 15 15 14 14 15 14 17 17 15 14 13 12 10 8 7 7 6 8 11 13 13 14 13 10 10 9 11 13 16 16
20 20 19 18 20 21 19 20 26 26 21 22 20 18 17 16 16 17 15 15 16 15 13 11 9 8 8 7 7 7 8 9 13 14 12 14 11 9 9 10 13 18 17
20 20 18 19 22 22 22 22 24 29 25 21 20 19 18 18 18 18 18 16 15 16 14 11 9 8 8 9 7 6 8 9 11 14 14 12 11 10 10 11 14 17 17
19 21 23 24 23 20 20 22 24 26 30 26 22 19 20 19 19 19 18 18 17 16 14 12 9 8 8 9 9 7 7 8 10 12 13 13 12 12 12 13 15 14 14
22 22 27 26 28 28 25 23 23 25 27 28 27 24 21 21 20 20 20 20 18 16 15 12 10 9 8 10 9 8 6 6 7 9 12 13 13 13 14 14 14 15 13
30 28 31 31 31 32 29 26 25 25 27 27 28 28 27 25 23 22 22 22 21 19 17 13 12 12 11 11 11 10 8 6 5 6 8 10 13 13 12 13 13 13 12
35 37 37 37 37 35 33 29 27 27 29 32 30 29 30 29 27 26 25 23 22 21 19 16 16 15 15 13 12 11 10 8 6 5 5 6 10 13 15 14 14 13 13
32 42 43 41 39 36 36 35 31 31 29 30 34 34 33 33 32 32 30 28 27 25 23 22 21 19 17 16 13 13 13 12 10 9 7 7 9 10 14 16 17 16 16
37 36 42 41 45 43 40 38 39 36 34 32 31 33 36 36 37 35 34 33 31 30 29 28 26 24 22 21 19 17 16 17 15 13 11 11 10 11 12 14 18 19 20
43 41 43 42 43 40 42 39 38 41 40 36 34 35 35 39 39 39 39 38 36 35 33 32 31 30 28 27 24 23 21 20 20 19 17 15 12 13 15 16 18 19 22
51 49 46 49 45 43 43 39 40 45 48 46 42 39 38 37 38 43 44 42 40 39 36 36 34 33 31 29 27 27 25 25 23 23 23 20 17 16 15 17 19 18 20
58 56 53 50 54 49 47 46 50 46 55 54 50 45 41 38 39 40 43 46 45 43 40 39 37 36 33 31 30 30 28 27 27 27 26 24 22 20 19 17 17 19 20
59 62 57 57 56 56 51 49 52 48 52 57 56 52 46 42 40 39 40 45 49 48 46 44 43 40 37 36 34 34 31 28 28 28 28 25 25 24 24 21 20 19 20
57 64 64 60 61 59 55 52 54 49 43 43 53 60 54 53 50 46 44 45 46 48 50 47 46 45 43 41 39 38 33 31 28 28 27 26 26 28 28 25 25 21 23
65 64 67 68 63 60 59 54 56 56 47 42 47 51 61 59 51 49 47 45 45 45 45 46 47 49 48 47 45 43 38 34 33 30 28 27 29 31 32 30 28 25 28
72 69 68 71 71 68 62 61 58 57 49 47 42 47 57 55 52 49 47 45 44 44 41 42 44 47 49 47 46 45 42 40 38 34 33 32 33 35 35 34 31 30 30
75 77 73 70 72 72 69 67 65 60 56 53 50 52 55 56 55 52 47 45 46 44 40 39 39 40 46 46 46 46 44 43 41 40 40 40 40 40 39 35 35 34 32
76 80 81 77 72 74 71 68 71 67 64 61 57 58 62 64 60 57 54 53 48 42 39 39 35 36 41 44 45 47 48 47 45 44 46 44 44 42 41 40 38 38 38
76 81 83 83 77 75 76 73 74 73 71 66 57 61 67 65 61 62 67 57 53 46 42 41 40 37 39 40 44 46 46 48 48 49 45 42 42 41 40 41 41 41 41
54 69 83 86 85 79 80 81 78 80 77 66 74 65 58 72 65 68 58 56 50 52 49 48 47 39 37 38 40 41 45 46 47 45 42 41 40 41 41 40 40 40 40

GFSMW_500_spd_075.txt.gz
Wind_Speed
14 16 16 18 19 22 23 21 21 19 18 14 11 10 10 9 9 8 8 10 7 7 9 10 10 10 10 11 11 12 12 13 14 16 14 13 11 10 10 11 13 13 13
11 14 16 18 21 24 24 23 20 21 16 12 10 9 9 8 10 8 7 8 10 9 10 12 12 9 9 9 9 10 11 11 12 15 13 12 9 9 11 13 12 11 13
13 14 16 19 22 24 25 25 23 20 15 13 13 13 11 10 10 10 9 9 10 11 11 12 10 10 9 8 8 10 10 10 10 12 11 10 8 8 9 12 11 11 14
16 15 19 18 21 24 26 24 22 18 16 14 14 13 11 9 10 12 12 12 12 12 11 12 11 11 9 9 7 8 10 10 12 12 11 10 9 9 9 9 10 12 13
20 17 16 20 23 23 26 26 23 19 16 16 14 12 11 11 11 13 15 14 14 13 12 11 10 10 10 8 7 9 12 12 12 12 10 10 8 8 9 10 10 12 12
24 22 23 24 20 21 22 26 23 22 19 16 14 12 13 14 14 15 16 16 15 13 12 10 9 8 9 9 7 8 13 14 13 13 12 11 9 8 8 11 13 14 12
24 22 17 16 16 16 17 24 26 23 22 19 17 15 15 15 14 16 16 16 15 15 14 11 10 9 9 9 9 8 10 14 14 14 14 12 10 8 8 11 13 15 14
23 22 21 20 20 20 18 22 27 26 24 23 20 18 17 17 16 15 16 15 15 15 14 11 8 8 8 8 8 10 10 13 14 13 14 12 9 8 8 11 13 16 16
26 25 23 21 22 23 22 25 27 29 27 25 22 20 19 19 19 19 18 17 17 16 14 13 10 8 7 8 7 8 10 11 14 14 12 10 9 8 9 11 14 16 15
21 20 22 23 24 26 27 28 29 30 32 28 27 26 25 21 19 19 20 19 18 17 15 12 11 10 8 8 7 6 9 11 13 15 14 12 10 9 10 11 14 15 14
20 23 25 26 28 29 29 30 29 29 34 32 28 26 27 24 21 20 20 20 18 18 17 14 12 11 10 10 9 7 7 10 12 13 14 14 13 12 11 12 12 13 12
27 18 19 26 30 30 28 27 30 30 31 35 34 30 28 26 24 22 23 22 21 21 19 17 14 12 11 11 11 9 7 7 9 11 12 13 14 13 13 12 12 12 12
30 29 23 25 26 29 30 29 29 29 33 33 36 36 34 29 27 27 27 26 24 23 22 20 18 15 13 13 12 11 10 8 6 7 9 11 13 15 15 15 15 14 15
35 36 34 30 30 30 32 32 30 29 29 35 36 35 35 33 32 31 30 30 29 28 25 23 22 18 16 15 14 14 14 12 10 8 7 8 9 11 15 16 16 17 16
36 36 36 40 38 35 34 35 35 34 30 30 35 37 34 34 34 34 33 32 31 30 29 27 26 22 18 18 17 18 18 17 15 13 11 10 9 8 11 14 18 19 20
38 36 37 37 45 43 41 40 39 36 36 42 36 34 35 37 36 37 36 35 33 34 34 31 29 27 24 23 23 22 21 21 19 18 17 15 13 13 13 14 16 17 19
43 43 42 41 45 48 48 45 44 45 46 51 43 35 35 35 37 40 40 38 37 36 35 35 34 31 30 30 29 28 27 27 25 23 21 21 20 19 17 17 17 16 17
48 48 46 46 47 49 50 49 48 47 48 43 41 41 41 40 39 39 39 42 42 40 39 38 37 36 34 33 33 33 33 32 30 28 27 26 25 25 24 22 19 18 17
51 54 54 52 52 52 53 54 53 49 47 48 42 47 47 48 45 42 41 41 43 44 43 42 40 37 36 35 35 36 35 32 31 30 29 28 28 28 29 27 25 22 20
54 56 63 61 59 58 58 57 57 58 57 53 51 48 54 56 55 50 45 43 42 43 45 46 44 44 41 40 39 38 37 34 31 31 30 29 30 31 31 30 29 26 25
62 61 62 65 71 67 65 64 61 61 63 61 58 55 55 58 60 57 55 50 44 44 43 44 45 45 45 46 45 45 42 37 36 34 32 32 31 32 33 31 29 26 31
63 66 67 67 67 72 75 72 67 64 64 65 63 60 58 51 61 61 60 58 53 50 46 44 47 46 47 49 49 49 47 44 41 38 37 36 36 36 36 33 31 31 31
70 71 71 72 73 73 72 78 76 71 69 67 66 65 62 58 53 51 57 61 60 57 50 48 47 45 46 47 50 52 51 48 45 43 42 43 41 41 40 37 34 34 32
78 77 78 77 75 77 78 76 80 79 75 73 69 67 65 56 53 47 48 55 62 56 49 48 45 44 44 42 43 45 49 50 47 45 45 45 44 41 40 40 39 38 36
51 69 84 84 83 81 80 82 81 82 82 79 76 72 67 60 57 53 53 56 63 55 53 51 47 46 43 39 43 44 45 45 44 45 45 44 42 42 41 41 40 40 39
49 53 54 76 90 88 85 83 85 85 82 84 82 76 72 67 61 58 56 52 60 61 62 57 52 48 45 42 43 44 41 40 41 40 39 39 39 41 41 41 41 42 42

GFSMW_500_spd_078.txt.gz
Wind_Speed
15 17 15 16 18 20 20 21 20 16 15 14 13 11 12 12 9 9 7 7 7 7 7 6 7 8 8 8 10 12 12 12 12 11 10 10 9 7 8 9 12 13 13
12 16 16 17 19 21 22 22 21 18 14 12 12 11 12 12 10 10 9 7 9 9 8 7 8 7 8 8 10 10 12 12 13 12 11 10 9 8 8 11 12 13 13
15 15 16 17 18 20 22 23 22 19 17 13 12 13 12 10 11 11 10 9 8 9 10 8 7 8 7 8 8 10 10 11 11 10 9 8 8 8 8 10 9 13 12
17 18 19 17 19 23 24 24 23 20 18 16 13 12 10 8 9 12 11 11 10 9 9 9 7 6 6 7 7 9 10 10 10 10 8 7 8 7 8 9 9 12 11
20 21 21 20 23 24 27 26 25 22 19 18 15 13 10 11 12 13 12 13 12 10 11 10 9 7 6 6 8 10 9 9 10 9 8 8 8 6 7 8 10 12 10
19 22 25 25 23 24 28 26 26 24 20 18 17 13 11 12 11 11 13 14 13 12 11 11 11 8 7 5 5 7 10 10 9 9 8 7 6 5 7 10 10 11 10
23 23 25 24 22 22 24 28 27 25 22 19 17 15 14 13 12 13 15 16 14 13 13 12 11 10 8 6 6 8 10 11 11 10 9 7 5 4 5 9 12 11 10
24 17 24 23 22 21 21 24 28 27 25 22 20 17 17 16 14 15 15 16 15 15 13 11 10 9 8 7 7 7 10 12 11 11 10 8 5 4 4 7 12 13 12
26 26 24 23 25 26 23 23 25 28 28 26 22 20 19 19 18 18 18 18 17 15 14 12 10 9 9 8 9 8 8 11 12 11 9 9 6 4 5 9 12 13 12
23 29 27 26 27 27 28 28 29 29 31 30 25 23 23 22 19 19 20 21 19 18 16 14 11 9 8 9 9 8 10 10 13 13 12 11 9 7 7 9 11 12 11
24 26 26 25 27 27 28 29 29 30 32 32 28 26 25 24 22 21 22 22 21 21 19 15 12 11 10 9 8 9 10 11 12 13 12 11 11 10 9 10 11 11 10
35 36 25 22 24 27 28 28 29 30 31 35 33 28 26 25 24 23 24 24 24 24 22 18 16 14 12 12 10 9 8 7 9 11 14 14 12 11 10 10 11 11 11
21 27 8 17 25 24 27 28 27 29 29 31 35 32 28 27 26 27 26 27 27 27 25 22 20 17 15 14 13 12 10 9 9 9 11 13 14 13 12 13 12 12 13
28 24 22 21 22 22 24 28 30 28 29 31 30 33 34 31 29 29 29 28 29 28 27 25 23 20 17 16 15 14 13 12 10 9 10 10 10 13 15 15 16 16 15
40 38 36 32 29 27 27 26 31 34 33 30 31 33 36 38 37 35 32 31 30 29 29 28 26 23 21 19 17 16 15 15 15 14 12 11 9 9 11 13 16 18 19
46 45 42 42 40 39 37 32 33 36 37 33 32 34 37 36 37 39 40 38 34 31 31 30 29 27 24 23 22 20 18 18 17 17 17 16 15 13 12 12 12 13 16
43 44 45 46 46 45 42 43 41 37 37 38 35 36 35 30 34 39 39 40 39 37 35 33 32 30 28 28 27 26 24 23 22 22 21 21 20 20 18 17 16 15 14
46 47 47 46 45 44 44 43 44 45 42 41 41 40 39 39 43 38 42 42 41 41 39 37 35 34 33 32 32 32 30 28 28 27 26 25 25 25 24 24 22 21 19
50 50 50 51 50 49 47 47 46 48 49 49 47 47 46 46 51 45 43 42 41 41 42 40 38 36 35 34 35 36 34 32 30 31 29 28 28 28 29 28 26 26 24
53 53 54 55 54 54 53 52 52 51 53 54 52 51 52 52 43 40 40 46 43 40 40 40 40 40 38 39 38 38 37 33 31 31 32 30 28 30 32 31 29 27 28
55 55 56 57 59 60 59 59 58 58 58 60 59 57 55 51 51 46 41 42 45 46 44 43 41 39 39 41 41 42 41 38 35 35 35 35 32 32 32 31 28 25 29
50 54 58 61 62 64 65 65 64 63 63 63 62 65 61 57 57 53 47 42 44 48 50 48 46 41 40 41 42 45 46 45 44 41 41 39 38 37 37 34 28 28 29
55 56 58 59 63 65 68 70 71 71 69 69 69 66 66 67 65 63 60 57 56 55 55 56 51 49 44 40 41 43 46 46 45 44 45 44 44 41 39 37 34 33 31
51 56 60 64 67 69 70 71 74 77 77 76 74 73 72 71 69 69 67 63 62 56 55 52 54 53 53 49 47 49 47 48 46 45 46 47 46 43 41 39 37 35 35
50 50 51 52 56 63 74 78 77 77 81 81 81 81 80 77 73 73 72 70 68 63 61 60 56 57 59 54 52 48 47 47 45 44 43 42 41 41 40 41 40 39 36
41 44 43 43 50 55 58 66 82 84 83 83 86 86 85 83 81 77 75 74 72 65 59 59 60 58 51 53 53 51 48 44 43 40 36 36 36 35 37 39 40 40 39

GFSMW_500_spd_081.txt.gz
Wind_Speed
18 17 15 15 15 18 18 18 18 14 12 9 9 8 9 8 6 5 4 3 4 5 6 7 7 8 8 7 6 6 7 8 8 8 8 7 7 8 8 10 10 12 16
15 15 15 16 16 19 21 20 20 15 12 11 11 10 11 10 7 6 4 3 4 6 6 7 7 7 6 7 6 5 6 7 10 11 11 9 10 10 10 11 11 12 14
16 17 17 18 17 19 22 22 21 16 14 14 12 11 9 7 7 7 6 5 5 6 9 8 8 8 6 6 6 5 6 7 8 9 8 8 8 10 12 11 11 11 12
18 19 20 20 18 19 22 22 21 19 16 15 12 10 9 10 9 9 8 7 6 7 8 8 7 7 6 6 6 6 5 6 5 5 6 6 9 7 10 10 12 10 10
17 20 21 20 21 20 21 23 22 20 18 16 13 11 10 10 9 9 9 7 6 6 7 8 8 8 7 6 7 8 7 6 6 4 3 3 6 7 6 6 12 11 11
17 22 22 23 23 21 21 23 23 22 19 18 14 13 11 10 9 10 11 10 8 7 6 7 7 8 6 6 5 7 8 7 6 5 5 3 2 4 6 8 10 8 9
18 21 23 23 22 20 19 21 24 23 21 19 16 14 12 11 11 12 13 12 12 10 9 8 7 7 7 6 5 5 7 7 7 5 4 3 0 2 5 8 9 8 8
19 17 20 22 21 20 19 20 24 24 24 22 18 15 14 13 13 13 13 14 14 12 10 9 8 7 7 7 7 6 6 7 7 6 5 3 1 1 1 5 8 10 10
21 19 22 21 24 21 22 22 23 25 26 25 21 18 16 17 15 14 14 15 15 13 12 10 9 8 8 7 7 7 7 8 7 7 6 4 2 0 1 4 7 9 8
23 16 25 25 25 26 27 27 27 27 29 29 25 21 19 19 17 16 16 17 18 16 12 12 10 8 8 7 7 7 7 10 9 8 8 6 4 3 3 5 6 8 9
26 28 30 26 29 29 30 30 30 29 30 30 28 25 23 22 20 18 17 18 19 19 17 15 11 9 8 7 8 8 9 9 10 10 9 8 8 7 6 7 7 8 8
32 31 37 31 28 30 32 32 31 29 29 31 30 27 25 23 22 21 19 18 20 20 20 17 14 11 9 9 9 8 8 10 10 10 11 10 9 10 9 8 9 9 9
26 30 27 32 34 30 30 29 29 29 27 27 29 30 28 25 24 23 21 20 19 21 21 20 17 15 12 11 10 9 9 10 11 11 11 12 12 11 11 11 10 11 12
30 29 33 25 33 32 31 28 26 26 24 23 25 26 30 30 27 26 24 22 21 21 22 22 21 18 16 14 12 11 11 10 10 9 9 11 11 13 13 13 13 14 14
33 32 32 30 32 35 29 25 27 27 28 26 26 28 28 29 32 29 28 26 24 24 24 24 24 23 20 18 17 15 14 14 12 10 9 9 9 10 12 13 15 16 17
40 39 36 30 37 24 22 21 21 23 28 28 29 29 28 28 30 34 34 31 29 28 27 27 27 26 24 23 22 20 18 17 16 15 14 14 13 13 13 13 12 12 14
46 45 44 40 38 37 34 34 32 30 27 27 32 33 34 31 30 32 34 36 36 36 33 31 31 30 28 27 27 27 24 22 20 19 18 18 18 18 17 18 18 17 16
46 49 49 47 44 44 43 43 42 39 39 37 34 33 36 35 34 32 31 33 34 35 37 37 36 34 32 32 31 32 31 28 26 25 24 22 23 22 22 23 23 23 23
47 49 49 50 50 49 49 50 48 46 45 43 42 40 37 38 38 37 36 33 35 34 35 38 39 38 36 35 35 36 36 33 31 30 30 28 27 27 28 27 26 25 25
49 50 50 51 52 52 52 51 50 49 46 47 46 46 45 44 43 43 44 41 42 41 45 41 39 40 38 37 38 40 39 36 34 33 33 32 31 31 31 30 30 26 27
51 51 52 53 53 53 54 54 54 53 52 50 50 49 50 51 49 47 47 50 46 50 50 44 38 37 37 37 38 41 42 39 38 37 36 35 34 34 34 33 31 27 30
55 56 56 57 56 57 57 58 58 57 56 56 56 54 54 54 55 54 54 51 50 47 50 48 47 41 39 38 38 38 42 45 45 42 41 39 39 38 38 37 33 32 32
53 55 56 58 60 60 60 61 62 62 62 62 61 61 61 60 60 60 58 57 57 53 49 50 44 43 45 42 41 43 43 45 45 44 44 44 44 43 42 41 40 37 35
46 48 50 52 54 56 60 62 62 66 67 66 67 67 67 67 67 66 64 63 62 60 59 53 50 46 44 42 44 49 51 47 44 43 42 42 43 41 43 43 42 41 40
48 49 50 52 55 57 59 61 63 65 66 69 72 72 73 74 74 73 73 70 69 69 65 63 61 57 51 51 52 50 54 57 53 47 47 44 41 41 41 39 39 41 41
51 49 49 49 49 51 54 58 62 64 68 72 73 75 77 79 80 79 79 78 75 75 73 70 67 65 61 59 57 54 53 56 58 57 36 41 39 37 39 38 37 38 40

GFSMW_500_spd_084.txt.gz
Wind_Speed
18 18 17 16 14 17 15 15 15 12 9 6 5 5 6 5 3 2 3 5 6 6 7 8 9 9 8 8 9 7 9 8 7 8 6 8 9 11 12 13 12 15 16
20 19 18 17 16 16 18 17 16 12 8 7 7 5 4 3 1 0 2 2 5 4 5 7 6 8 9 8 7 8 8 9 10 11 9 6 8 11 12 14 14 15 13
21 21 18 19 17 16 17 17 17 13 10 10 8 5 2 4 4 1 1 2 3 5 4 4 3 5 8 6 7 7 7 8 7 9 7 11 7 10 12 14 13 12 11
23 23 20 20 20 19 17 17 17 15 12 10 8 5 6 6 5 4 1 2 2 5 5 3 4 4 5 7 8 7 4 3 3 4 6 6 8 10 6 10 13 10 10
24 20 20 20 21 21 18 18 18 17 13 11 8 6 7 9 6 4 4 3 5 5 6 5 4 4 2 3 4 6 5 5 3 2 3 5 3 6 7 7 11 9 9
26 24 16 20 21 22 20 18 20 19 15 13 11 8 9 6 6 6 7 8 9 7 5 6 4 3 1 2 2 4 5 3 3 2 2 4 5 5 3 6 9 8 9
21 17 23 19 17 20 19 20 19 19 17 15 14 10 9 8 8 9 9 11 11 8 5 4 4 3 2 2 2 2 4 4 4 3 1 4 4 4 3 6 5 6 6
31 15 14 19 15 17 18 20 20 20 18 17 15 12 11 10 9 10 10 10 7 7 8 8 7 3 2 1 3 2 3 4 5 3 1 3 4 4 4 3 6 4 3
12 17 17 17 20 16 19 21 22 23 22 20 17 15 12 12 10 9 10 9 12 11 9 9 8 7 4 4 5 5 5 4 5 5 4 2 2 1 2 3 3 6 7
18 19 17 22 24 22 19 22 24 23 25 25 22 18 15 13 12 10 9 11 14 17 11 11 7 7 6 5 6 7 6 6 4 4 5 5 5 5 3 3 4 4 4
26 24 27 34 34 28 24 23 25 25 26 27 27 23 20 16 13 11 10 11 16 14 11 4 8 9 5 4 5 6 6 5 6 5 5 6 6 5 5 5 6 7 7
29 27 32 26 34 30 26 22 25 26 26 26 25 26 23 19 17 15 13 12 14 16 12 13 12 8 4 5 5 6 6 7 7 8 7 6 6 6 6 7 8 7 8
31 30 25 23 24 29 28 34 26 19 19 22 27 26 26 24 20 19 16 15 14 16 15 13 13 8 7 6 6 7 7 7 8 8 8 9 9 7 8 9 8 10 10
32 28 28 28 33 26 26 33 25 29 25 33 33 21 22 27 24 21 20 19 18 18 19 18 17 16 14 12 11 10 10 10 9 8 9 10 10 9 10 11 11 11 13
36 31 29 31 33 37 35 39 36 31 29 28 24 22 21 20 24 25 24 22 20 20 22 23 22 21 20 19 17 14 13 13 13 11 10 10 8 8 8 9 11 13 15
39 36 35 36 37 34 42 41 32 28 32 32 29 27 20 20 22 23 26 25 23 22 22 23 25 24 22 23 22 20 18 17 16 16 15 14 12 12 11 11 11 10 12
43 43 41 42 45 38 36 30 28 28 32 34 34 30 25 23 23 24 25 25 28 28 24 23 23 24 25 26 27 26 26 23 20 19 20 18 18 17 16 17 17 17 16
45 45 46 45 44 41 36 37 39 20 20 22 17 21 24 24 26 27 25 24 25 26 28 29 30 28 27 29 31 32 32 29 27 25 25 23 23 23 22 22 21 21 21
43 46 47 47 47 45 40 38 38 42 39 36 33 30 28 27 27 29 31 29 26 26 26 27 27 26 27 31 34 35 36 35 33 31 31 30 28 29 30 27 27 25 24
46 47 47 47 47 49 48 44 44 44 45 45 43 41 38 36 36 35 34 35 33 30 31 29 28 29 29 30 35 37 39 37 37 37 37 36 34 34 35 34 31 26 28
49 50 50 51 50 50 50 50 48 46 47 47 47 46 44 43 43 42 40 40 39 38 36 38 38 37 36 35 39 42 42 41 41 40 40 40 40 40 39 38 34 29 32
49 50 51 51 52 51 52 52 52 50 49 48 48 49 49 49 47 45 46 45 48 46 44 44 45 45 42 44 42 40 38 40 40 42 43 43 43 42 43 42 37 36 36
49 52 53 53 53 53 53 54 53 53 52 52 51 51 51 51 52 52 51 50 50 51 52 51 49 47 45 44 44 46 45 42 40 40 43 44 46 44 43 43 43 42 41
49 52 53 55 56 56 56 57 57 57 57 57 58 57 57 58 57 57 57 55 57 55 54 53 52 53 51 50 48 51 51 49 44 46 45 41 40 44 46 46 46 46 46
46 48 49 51 52 53 53 55 57 57 58 58 59 61 64 64 64 63 63 62 62 62 62 60 59 57 56 56 53 53 55 51 52 55 48 40 43 42 42 43 42 44 46
46 47 49 49 50 51 52 53 53 53 55 57 58 61 63 65 68 69 70 69 68 68 68 68 68 65 62 62 60 59 58 59 56 52 51 49 44 44 44 49 47 47 47

GFSMW_500_spd_090.txt.gz
Wind_Speed
11 13 13 13 11 11 10 10 9 8 8 7 7 8 10 7 8 7 8 5 7 10 13 12 12 14 13 13 13 11 12 12 11 13 13 11 12 15 16 17 16 15 13
11 10 10 13 14 14 12 12 11 7 5 6 7 5 6 6 7 8 7 7 6 7 9 10 11 12 12 12 13 10 9 12 11 9 12 11 10 13 16 16 15 13 13
13 10 11 14 13 15 16 13 12 9 6 6 7 5 6 5 4 6 5 8 8 8 8 7 8 9 11 11 11 13 12 12 11 7 4 10 10 12 14 14 14 13 12
19 16 14 13 16 16 17 15 12 12 8 6 5 5 5 4 3 4 5 6 7 8 7 8 9 8 7 9 9 12 11 10 10 11 6 4 7 7 11 12 12 11 11
18 22 16 17 18 17 18 18 16 15 12 10 8 5 4 4 3 4 7 7 7 6 8 7 8 8 7 7 7 9 10 8 8 11 11 6 5 5 6 10 10 9 10
13 21 20 21 21 19 19 19 18 19 17 14 12 8 5 5 5 6 8 9 6 6 8 7 7 7 5 7 10 8 8 7 8 9 7 10 6 5 6 7 7 6 5
27 21 24 20 22 20 21 21 21 19 19 17 16 12 7 5 5 5 7 7 8 6 6 7 9 9 6 6 6 9 8 8 8 10 7 5 7 7 6 7 6 7 5
17 21 26 23 22 23 22 21 21 22 22 20 17 14 10 7 5 5 6 7 8 7 7 5 6 8 7 4 4 7 8 8 7 7 7 6 5 5 9 9 8 6 5
15 17 30 27 25 23 21 24 25 25 25 23 19 16 15 11 8 7 7 7 9 9 9 9 8 7 9 7 5 5 7 6 7 7 5 4 4 4 5 8 11 10 8
16 20 32 33 27 21 23 23 25 27 29 27 24 20 17 13 11 9 10 9 9 10 10 10 9 7 6 7 7 7 7 7 7 8 7 6 4 4 5 6 9 11 10
12 7 24 35 29 24 26 25 27 27 29 31 29 24 20 17 15 13 11 11 13 14 13 13 11 9 9 8 6 6 7 8 8 8 8 7 6 6 6 6 7 9 11
13 10 13 15 20 32 14 33 31 27 29 27 29 27 26 23 19 15 14 14 15 17 18 17 15 14 13 11 11 9 8 7 9 9 9 8 8 7 7 7 8 9 10
17 15 16 18 19 24 30 31 35 28 27 28 27 28 27 25 23 21 19 18 18 18 17 18 18 17 18 15 15 13 11 9 9 9 9 11 10 10 9 9 9 9 11
18 17 19 19 20 24 25 20 22 29 37 30 30 27 28 28 28 26 24 22 21 20 19 21 22 22 20 19 18 14 14 13 11 10 10 11 13 12 13 12 12 12 12
22 21 22 22 20 21 21 15 14 24 17 22 23 25 28 29 28 27 27 26 25 25 23 21 22 21 23 23 20 17 16 14 13 12 12 12 13 13 14 14 14 15 15
25 25 25 26 24 21 19 15 23 23 26 23 21 32 30 27 27 28 32 31 33 30 28 26 25 23 23 22 21 21 20 17 16 15 15 14 14 13 14 14 14 14 14
24 23 23 26 27 26 23 21 18 22 31 27 22 27 25 24 30 27 35 37 39 30 28 28 27 26 26 27 27 26 24 22 20 19 19 19 19 18 18 17 17 17 17
20 21 23 23 23 24 23 24 26 27 25 22 21 20 35 30 31 27 33 37 41 34 31 30 28 28 27 28 29 28 28 27 25 24 23 23 23 24 23 22 21 21 21
27 27 26 25 26 27 27 28 28 28 25 24 22 23 30 34 37 25 23 30 25 33 36 34 32 29 29 30 30 29 28 28 29 29 29 28 27 29 29 27 26 27 26
31 32 35 35 34 32 31 31 32 33 32 27 27 30 30 29 39 18 29 18 18 28 27 26 26 30 32 35 34 33 33 30 30 32 32 34 34 34 36 34 33 30 32
28 28 30 31 31 30 33 32 33 35 34 34 33 33 33 30 31 35 27 27 21 23 23 24 24 26 28 32 33 34 36 33 32 33 34 34 35 37 39 40 39 38 38
39 38 37 40 40 39 38 36 37 38 39 39 39 37 34 32 30 28 28 30 32 32 33 34 30 32 34 34 33 33 34 32 32 31 34 35 34 35 38 39 41 43 42
40 43 46 48 48 47 47 46 45 44 43 43 41 40 39 38 38 37 35 35 35 36 37 40 40 39 40 41 41 43 43 42 42 42 42 40 39 38 38 39 42 45 44
48 52 55 54 54 52 51 50 49 47 46 45 45 44 43 42 42 42 41 39 38 40 40 40 40 42 44 45 45 46 48 49 48 47 45 45 44 42 41 42 45 46 45
49 49 46 46 47 49 48 48 48 48 47 46 46 45 45 45 45 46 46 46 44 41 44 46 45 45 47 47 48 47 48 48 48 48 49 51 50 49 47 46 44 49 49
42 44 45 47 48 48 47 47 47 48 48 48 47 47 48 48 48 48 48 49 50 49 48 49 52 54 54 53 54 54 55 54 53 52 51 52 51 49 51 51 51 48 48

GFSMW_500_spd_093.txt.gz
Wind_Speed
18 18 17 17 15 14 13 10 9 7 6 7 8 8 8 8 7 8 10 9 10 10 13 14 12 14 13 12 13 14 14 12 11 12 11 9 10 11 13 13 12 13 12
13 15 16 15 17 16 16 13 11 7 5 4 7 6 4 7 6 7 8 10 11 9 9 12 11 11 12 10 10 13 12 10 10 8 10 10 9 10 11 11 9 9 9
14 14 16 16 16 17 16 13 12 11 8 8 9 9 7 5 6 7 8 9 9 10 10 9 9 9 10 10 9 13 11 8 9 7 7 8 7 8 10 9 9 8 6
18 18 17 17 16 16 17 16 14 14 12 10 9 8 8 6 6 6 8 9 9 8 7 8 10 8 8 8 10 11 10 8 7 10 8 7 6 6 8 8 8 7 6
16 17 12 14 17 18 17 17 15 13 12 10 10 8 7 8 7 6 8 8 10 10 9 8 7 9 8 8 9 9 9 9 8 8 10 8 6 5 6 6 6 5 4
20 19 16 13 12 14 17 17 17 17 15 12 11 9 5 5 6 7 8 9 8 10 9 9 9 8 8 7 7 10 9 9 9 5 8 11 7 5 6 7 6 4 3
15 21 16 17 14 14 17 18 19 19 18 16 14 11 8 6 7 8 11 9 9 9 9 9 9 7 8 8 7 6 8 8 9 8 4 6 9 8 7 9 6 7 6
15 18 32 27 24 18 17 20 20 21 21 19 18 16 12 10 9 10 10 11 12 11 11 10 9 10 8 7 8 9 9 9 9 8 6 4 4 6 8 10 10 9 8
13 18 15 13 24 23 20 20 21 23 25 24 21 18 16 12 12 13 13 13 14 14 13 12 12 11 12 11 10 11 10 11 12 12 10 7 6 6 9 11 12 11 10
11 13 12 18 22 19 21 21 24 25 27 26 26 24 21 17 15 13 13 14 15 15 14 14 12 12 13 12 12 12 12 12 13 13 12 11 9 7 7 9 12 12 11
11 10 11 16 23 23 26 25 25 25 25 25 26 26 25 22 19 17 16 17 17 18 15 14 14 14 13 12 12 12 11 11 12 12 12 12 11 10 9 9 8 10 11
16 9 9 20 32 35 38 27 22 26 26 28 28 29 28 24 22 20 19 18 19 18 19 18 18 17 16 14 13 13 13 12 11 12 13 12 12 12 11 10 10 11 10
21 15 13 18 21 36 34 25 34 31 29 30 31 31 30 27 25 22 21 21 20 19 18 21 20 20 18 17 15 14 13 12 13 12 12 11 11 11 12 11 11 11 12
25 18 16 18 19 20 26 24 26 35 29 38 34 31 32 32 31 28 27 25 22 21 21 21 22 22 20 20 18 16 16 15 14 13 13 12 12 11 11 12 11 12 13
24 23 18 17 15 20 24 17 16 17 21 37 36 34 34 33 33 32 31 31 28 26 27 26 26 25 24 22 20 20 18 17 15 15 14 13 12 13 14 13 13 13 13
25 23 19 20 20 19 22 23 14 16 27 22 29 36 33 33 37 34 34 35 33 34 33 31 29 26 26 27 26 24 22 20 18 18 17 16 15 16 16 14 14 14 14
28 26 24 22 23 24 22 21 19 15 17 24 23 18 30 30 38 36 36 31 37 43 40 36 33 28 28 29 28 28 27 25 24 22 21 20 19 18 17 16 15 15 16
26 28 27 24 21 23 23 24 23 21 22 25 21 20 20 22 37 37 31 32 34 34 37 37 34 33 33 30 29 29 29 29 27 27 26 25 23 23 21 20 19 20 20
29 29 27 24 22 21 23 20 20 20 21 23 22 18 17 21 22 26 35 31 36 37 33 36 33 36 34 33 31 30 31 31 31 30 31 30 28 28 27 25 25 25 26
27 31 29 26 24 24 24 24 25 25 24 21 21 21 20 21 24 25 26 20 36 33 34 31 42 42 35 39 34 31 32 31 32 33 32 33 33 33 34 32 30 29 32
36 35 33 34 33 33 33 33 30 29 30 28 26 25 26 25 22 21 20 24 32 31 33 27 23 44 39 35 29 30 32 32 33 33 35 34 35 37 37 36 37 35 34
42 41 41 41 41 41 34 31 29 28 29 28 28 28 28 27 28 25 23 24 27 43 35 17 13 18 22 27 26 30 29 31 33 35 38 37 34 37 38 36 36 37 38
45 49 44 47 40 38 35 35 37 39 39 38 38 36 34 33 31 31 30 29 29 28 26 27 29 26 29 28 28 35 36 36 34 33 35 36 36 38 41 39 39 41 41
38 40 43 42 45 46 46 45 49 52 52 50 45 42 41 39 37 37 36 35 34 33 33 33 33 37 36 37 42 43 45 43 44 43 45 45 46 47 48 49 48 47 46
49 51 55 53 49 51 49 55 55 55 53 51 49 46 44 42 41 40 40 40 40 38 38 38 38 40 39 40 42 43 46 46 46 46 48 49 52 52 53 54 54 54 53
51 52 52 53 54 55 55 53 53 53 52 51 48 47 45 44 44 43 44 44 44 44 44 43 43 43 45 47 47 47 48 48 48 49 49 50 52 53 53 54 53 54 53

GFSMW_500_spd_096.txt.gz
Wind_Speed
19 19 18 15 14 11 10 10 12 13 11 11 10 12 11 11 8 8 9 9 9 10 11 11 12 12 12 12 11 11 11 9 9 11 10 9 11 12 11 10 10 10 10
16 16 18 19 16 14 13 11 9 10 10 10 11 10 8 6 7 9 9 10 9 8 9 8 9 9 10 11 11 10 10 9 7 9 10 10 10 11 10 8 7 7 6
18 16 18 18 19 18 15 11 10 9 9 10 10 10 9 4 5 8 9 10 10 10 8 7 7 7 7 8 10 9 8 7 6 6 8 8 8 10 10 7 6 4 3
21 22 19 20 21 20 17 15 13 11 8 7 8 8 8 7 6 6 9 12 12 11 10 10 9 8 6 6 8 8 7 6 6 6 8 7 7 9 9 7 5 3 2
22 18 15 16 18 18 18 17 17 15 11 10 9 9 9 7 7 7 9 10 11 12 11 12 10 9 8 7 7 6 4 3 5 5 6 8 7 6 7 6 4 3 2
23 22 20 16 17 16 15 17 18 18 16 14 13 10 10 9 9 10 9 10 10 10 10 10 10 11 10 9 9 8 7 5 5 5 7 8 8 6 7 7 5 4 4
20 23 20 19 16 15 15 16 19 18 19 17 17 15 12 11 10 12 12 11 12 11 11 9 8 8 10 11 11 10 10 9 8 6 6 8 9 8 9 9 8 8 6
13 14 18 18 19 15 15 17 17 19 19 20 18 17 14 12 12 12 13 13 12 13 12 10 9 9 10 10 10 11 11 11 10 8 7 7 8 8 10 11 10 9 8
18 12 25 30 24 23 21 19 21 19 21 20 20 20 17 15 14 15 14 15 13 14 13 13 12 12 10 9 11 11 12 11 11 10 8 7 7 8 9 11 12 10 9
14 13 21 19 15 19 23 22 21 22 21 21 22 21 20 17 16 17 17 18 17 18 15 14 13 11 12 12 10 10 11 12 12 11 10 9 8 6 7 8 10 11 9
16 16 14 16 21 29 22 22 21 21 22 23 24 24 23 21 19 19 19 20 20 19 19 18 16 15 15 14 15 13 13 12 12 13 13 12 10 9 8 8 8 9 9
15 12 12 16 17 32 29 24 22 19 21 24 26 27 27 25 23 21 21 21 21 21 22 21 20 18 18 17 16 15 13 13 13 13 14 12 12 12 11 9 10 9 8
18 15 12 13 18 26 26 31 24 23 22 22 26 29 30 29 28 27 24 22 22 22 22 23 22 21 19 19 17 16 15 15 13 13 13 13 12 14 12 11 11 11 11
22 20 17 16 18 28 28 35 32 33 29 32 23 28 33 33 32 33 31 28 24 23 25 24 23 23 20 21 20 18 17 16 14 13 14 14 14 14 14 14 14 13 12
23 20 21 19 19 21 22 17 32 35 26 24 31 28 37 37 34 35 34 32 29 27 26 26 26 25 26 25 23 22 20 18 17 17 16 16 16 16 15 15 14 15 14
20 25 23 22 21 21 20 27 24 25 20 16 18 32 38 33 35 33 35 36 34 32 30 28 29 27 28 28 27 25 24 21 20 19 18 18 18 18 16 15 14 14 14
25 18 20 21 22 22 21 25 25 16 11 14 19 22 22 34 36 32 38 37 37 38 37 34 34 35 31 32 31 30 28 26 25 24 22 19 19 19 18 17 16 16 16
30 28 26 25 26 25 26 29 25 23 20 20 18 18 20 22 24 24 30 38 44 42 40 40 37 34 39 38 33 31 32 32 31 28 26 24 25 21 20 21 21 22 21
31 26 28 30 29 28 27 28 25 22 25 22 19 16 20 21 18 19 28 26 43 44 40 34 36 35 35 31 37 37 35 35 34 32 30 30 29 27 27 26 24 25 26
37 30 30 32 30 28 26 28 25 20 18 16 15 16 17 19 19 21 20 26 27 46 46 38 40 40 36 34 38 39 39 39 32 34 35 33 32 31 32 31 31 29 30
38 42 35 37 36 34 30 30 27 25 23 22 23 24 22 21 21 22 24 22 22 28 27 26 28 43 39 35 39 37 36 39 35 36 37 35 34 34 35 34 36 33 32
39 40 43 42 39 36 36 34 33 30 29 28 25 21 20 19 20 22 24 22 23 22 23 26 26 35 41 39 39 36 41 42 40 38 38 37 36 37 38 39 38 37 34
44 46 47 47 45 41 42 42 42 40 38 37 30 30 28 26 27 27 28 28 27 27 25 24 30 25 24 22 22 22 27 33 32 34 36 38 38 40 41 41 43 42 41
48 51 45 46 47 48 46 44 45 44 43 43 39 36 37 41 43 41 37 34 33 32 30 29 29 31 31 31 33 35 37 36 31 34 39 40 40 41 43 42 43 44 46
51 53 50 49 50 50 47 50 51 51 48 45 45 49 53 50 48 45 42 41 40 39 38 36 36 36 36 36 37 39 39 39 41 43 45 44 47 50 51 52 51 52 53
42 47 48 48 51 49 49 51 52 53 55 54 54 58 56 53 50 46 45 45 45 44 43 42 42 41 42 42 42 43 44 46 48 50 51 53 53 52 54 56 56 55 57

GFSMW_500_spd_099.txt.gz
Wind_Speed
21 20 19 16 13 12 12 11 12 12 12 12 11 11 11 11 12 12 11 10 10 11 11 10 10 10 9 9 9 9 10 10 9 9 9 11 13 12 11 10 10 9 7
19 21 21 20 17 16 13 13 12 12 11 12 12 10 9 8 9 10 10 12 10 10 10 9 7 7 7 6 6 6 5 7 7 8 8 10 12 13 10 9 8 7 5
21 23 22 21 20 19 17 14 13 12 10 10 10 10 9 8 6 8 9 10 11 10 9 8 7 7 7 6 5 5 4 3 5 6 7 9 11 12 10 9 7 5 2
21 25 25 22 21 19 18 17 15 13 11 11 10 9 7 8 8 8 9 9 10 9 9 9 8 7 6 6 6 5 4 3 3 5 7 7 8 9 9 8 6 3 2
20 18 21 22 22 21 18 18 17 15 13 13 12 11 8 6 6 8 9 8 10 11 10 11 10 9 8 7 9 7 4 1 2 4 7 8 8 7 9 7 5 3 1
23 19 19 22 22 20 20 18 17 16 14 14 14 12 10 9 8 9 9 11 12 10 10 9 9 10 9 8 8 7 5 3 3 4 5 8 9 9 8 8 7 5 4
26 23 19 19 21 22 21 21 19 18 18 16 15 13 12 11 11 10 11 11 12 12 11 10 10 10 11 11 10 9 7 6 5 5 4 7 9 9 9 9 9 7 5
24 21 23 22 21 21 22 21 22 21 19 19 15 14 13 12 12 11 11 14 13 12 11 10 9 9 10 10 10 10 10 10 9 7 5 6 8 9 10 11 9 8 7
17 17 25 26 23 19 18 21 21 22 23 23 19 19 17 14 13 13 13 14 13 13 12 11 10 10 9 10 10 10 11 11 10 9 7 6 5 8 10 10 10 8 6
20 16 17 21 22 19 24 20 19 23 24 25 24 22 20 18 15 14 14 15 16 16 15 15 14 12 11 11 10 11 11 11 11 10 9 8 7 6 7 7 9 9 7
16 20 19 22 23 18 28 24 24 23 26 26 26 24 23 21 19 16 15 16 15 17 18 17 17 15 13 12 12 11 10 10 10 12 11 10 10 8 8 7 7 8 7
20 23 21 22 26 23 34 28 25 25 22 25 25 25 23 24 22 21 18 16 17 19 19 18 20 17 17 16 14 13 13 12 13 13 12 12 11 10 10 9 9 9 7
22 22 21 21 23 33 35 17 34 22 24 25 26 27 27 27 28 27 23 22 19 19 20 22 22 21 21 19 17 16 16 15 14 14 14 13 12 13 12 11 10 9 10
22 21 23 16 19 22 24 31 27 25 26 32 26 26 26 27 29 30 29 27 24 22 22 22 23 23 22 23 22 20 19 17 16 16 16 15 14 15 14 13 11 11 9
25 24 22 20 21 18 18 26 32 24 33 33 32 35 26 27 29 32 33 31 30 28 26 25 24 23 23 25 24 22 21 21 20 20 19 17 17 16 15 15 14 13 14
18 20 22 23 22 21 19 21 21 21 23 38 32 35 34 25 32 31 34 33 33 32 32 30 28 26 25 24 27 27 27 26 24 22 22 20 19 18 18 17 17 17 16
18 14 13 22 20 20 21 19 19 26 20 26 27 22 19 15 24 31 37 36 35 35 38 36 33 32 30 28 26 29 28 30 27 27 25 25 21 22 21 21 20 19 17
24 23 18 17 17 18 21 20 21 22 18 17 15 17 16 23 18 23 25 21 26 39 39 40 39 38 36 35 34 36 37 33 34 32 31 29 27 25 25 24 23 22 21
29 29 27 25 28 26 24 25 23 22 22 20 23 21 20 17 18 20 26 18 23 29 27 35 44 41 39 39 39 37 40 42 36 38 35 34 35 31 29 29 26 27 26
42 42 43 36 30 28 28 27 27 25 26 23 22 20 20 15 14 14 14 18 23 21 29 27 37 45 42 39 35 39 34 35 40 31 37 38 39 36 35 33 32 31 31
38 39 40 39 33 31 29 30 29 28 27 24 23 21 16 14 15 17 19 18 20 21 21 22 18 28 37 42 41 44 40 39 39 39 39 40 42 39 38 38 36 35 34
34 35 36 41 43 37 35 34 33 31 30 25 24 20 20 20 19 20 21 21 20 19 20 18 23 28 27 30 30 36 39 41 40 41 40 42 42 44 41 40 40 39 39
34 39 42 43 46 46 45 39 40 37 33 31 30 24 24 27 26 23 22 21 20 21 23 24 25 28 30 29 33 35 36 44 44 43 44 46 47 47 46 42 42 42 42
46 43 46 44 46 46 45 46 48 44 40 38 39 36 37 37 37 37 36 32 29 30 32 33 32 32 32 31 34 32 32 34 36 37 38 33 37 44 41 40 43 43 43
44 44 45 49 50 50 51 49 49 47 44 43 45 46 41 42 44 44 45 45 42 42 40 39 40 38 37 36 38 39 38 38 38 36 36 39 36 38 38 39 42 44 45
44 48 52 53 55 57 61 57 55 51 49 48 48 46 47 49 50 49 49 46 46 50 50 45 43 42 43 43 43 43 44 43 43 43 44 44 46 47 49 50 50 53 53

GFSMW_500_spd_102.txt.gz
Wind_Speed
21 20 19 16 13 12 11 10 11 11 11 10 10 10 11 11 11 12 12 14 13 12 10 10 9 8 8 7 8 8 9 10 10 10 11 13 12 11 11 10 8 7 7
21 19 20 19 16 14 13 11 11 11 11 10 9 9 9 9 10 10 10 9 10 9 8 7 6 5 5 5 6 7 7 7 8 8 10 11 12 12 11 10 7 5 4
23 23 21 20 19 16 14 13 11 10 10 10 8 9 8 10 10 9 9 9 7 8 7 6 5 5 3 3 3 3 5 6 6 7 7 9 11 11 10 9 7 5 4
25 27 25 22 20 18 16 15 13 12 11 10 10 9 7 7 9 9 7 10 10 8 6 6 5 5 4 2 2 2 3 3 4 5 6 7 9 9 9 8 6 5 4
25 24 24 23 22 20 19 18 16 13 12 12 10 9 7 5 5 7 7 8 9 8 8 7 7 6 4 3 4 2 1 2 3 3 6 6 7 7 7 5 6 5 4
24 25 25 23 22 22 21 21 19 16 13 12 11 10 8 7 7 6 6 6 8 8 7 8 10 9 7 5 4 4 2 2 2 2 3 5 5 6 7 7 5 5 4
26 23 20 20 20 21 23 23 22 20 17 14 13 12 11 9 7 6 7 8 9 8 7 7 7 8 9 8 8 7 5 4 1 1 3 5 7 7 7 7 6 6 6
31 23 21 20 20 23 25 26 25 23 20 18 16 15 13 11 8 6 8 9 9 8 8 7 6 6 8 8 9 8 7 5 4 3 3 3 6 8 8 8 7 7 8
24 23 24 23 23 23 26 27 26 24 22 21 19 17 15 13 10 8 8 10 9 8 9 9 8 6 7 8 9 8 8 7 7 6 5 4 4 6 8 9 8 7 7
30 29 28 26 26 24 24 24 26 25 24 23 22 20 19 16 14 12 8 9 12 12 11 12 9 9 8 7 8 7 8 9 8 8 7 7 7 6 6 7 8 9 9
23 27 19 28 31 30 27 23 23 22 24 25 24 23 23 21 20 17 13 11 12 11 14 14 12 11 12 11 9 9 9 10 11 10 10 9 9 9 9 8 7 7 8
19 14 22 22 24 32 36 14 30 32 26 24 26 28 25 25 24 23 20 15 13 12 13 14 15 17 14 12 13 12 12 11 12 11 10 11 11 12 12 11 10 9 9
15 18 27 24 30 32 32 35 25 36 36 30 30 31 30 28 28 27 25 21 18 15 14 15 17 16 16 16 17 15 15 14 14 14 14 13 12 13 12 11 12 11 11
16 18 22 25 27 22 28 33 30 27 40 32 31 31 31 29 30 29 29 27 24 21 18 16 15 16 19 18 18 18 17 16 17 18 17 15 14 14 13 12 13 12 13
22 22 23 24 20 30 18 21 22 23 27 31 33 28 26 27 30 30 31 31 30 27 24 21 19 17 18 19 22 21 20 22 21 21 20 18 16 16 16 16 16 15 15
26 22 26 28 21 20 18 20 22 24 21 27 26 36 33 32 30 29 31 31 32 31 29 27 27 23 21 21 22 23 24 24 23 22 22 22 19 21 20 21 20 19 18
28 26 26 29 28 25 23 22 22 22 20 19 22 26 36 40 41 38 34 31 30 31 34 32 31 30 27 27 26 25 26 23 23 27 27 25 26 26 25 24 23 23 22
28 26 22 20 16 23 24 23 22 22 20 18 27 16 16 18 34 28 19 23 27 29 32 36 37 34 32 33 34 31 30 30 30 31 30 30 29 29 28 27 27 26 26
33 30 28 23 22 18 22 19 19 21 19 19 15 14 12 11 15 22 22 26 24 22 26 20 25 35 31 35 39 38 36 34 36 35 34 38 35 36 34 32 32 31 30
39 35 33 30 29 30 24 24 26 22 22 23 21 20 17 17 22 21 23 19 21 21 16 19 22 30 26 34 36 40 39 36 33 36 33 33 37 43 39 37 37 36 35
41 43 41 39 39 38 36 32 29 29 28 26 24 22 22 22 21 19 18 18 17 17 19 21 21 22 25 17 19 23 33 38 44 37 37 38 38 36 36 39 43 41 40
39 39 43 45 45 43 43 38 33 34 32 30 29 25 25 23 21 20 19 19 18 19 21 19 20 20 18 17 19 25 25 24 26 29 33 37 44 40 40 42 44 43 42
36 35 37 39 42 44 44 42 39 38 36 34 31 28 28 29 24 21 21 22 22 22 22 21 20 18 19 19 21 24 29 35 33 34 34 36 33 41 45 43 43 41 41
40 40 42 42 42 43 43 44 44 43 40 38 38 35 35 34 31 28 27 27 28 27 28 29 29 27 28 30 29 30 30 31 34 34 38 42 41 43 45 39 39 43 44
44 45 46 47 46 44 47 48 48 48 48 47 44 41 42 39 39 39 36 37 38 38 39 40 40 40 39 38 37 37 38 39 37 38 39 40 40 41 43 43 42 36 38
54 46 47 50 51 51 50 52 51 52 53 52 52 51 50 49 46 44 43 44 46 46 48 49 49 49 45 41 41 42 44 43 45 45 44 44 45 46 47 45 45 46 45

GFSMW_500_spd_105.txt.gz
Wind_Speed
19 17 15 14 12 10 9 8 8 8 7 8 9 10 11 10 10 10 11 11 11 10 9 8 7 7 8 7 7 7 9 10 10 9 12 13 12 11 10 10 8 8 6
21 19 16 15 13 11 10 9 8 7 7 6 8 8 10 10 9 9 9 8 8 6 6 5 4 4 4 6 5 5 6 8 8 8 8 10 11 10 9 8 6 5 3
22 21 19 16 15 14 12 11 10 9 6 6 7 7 7 8 8 8 8 8 7 5 4 3 2 2 2 3 6 5 4 5 7 6 6 6 10 9 8 7 5 5 4
26 25 23 20 17 15 15 13 11 10 8 8 7 7 6 5 5 6 8 8 7 6 4 2 1 1 0 2 3 4 4 3 5 6 6 8 8 8 6 6 7 6 4
27 27 24 22 20 18 17 15 13 11 11 11 9 7 6 5 16 6 7 8 8 7 5 4 3 1 2 1 1 3 3 3 3 5 5 6 7 7 7 7 6 5 4
26 26 25 24 21 19 18 17 15 13 11 11 11 10 8 7 4 4 5 3 4 5 5 4 5 5 5 3 1 1 2 3 2 1 4 5 3 4 5 6 5 5 4
28 24 22 25 23 22 21 19 19 17 14 12 12 11 10 8 6 4 1 1 4 3 4 4 4 5 5 5 4 2 1 1 1 1 0 2 4 6 6 6 4 11 5
37 31 30 28 23 23 21 23 22 20 18 15 13 13 12 9 7 5 12 12 8 3 3 3 3 3 4 4 5 4 5 4 2 1 0 1 2 4 5 5 7 7 5
9 29 25 25 21 28 29 25 24 24 21 19 18 15 14 11 10 13 9 2 7 7 5 4 3 3 3 2 4 5 6 7 6 4 3 2 3 4 3 4 5 6 7
12 31 30 28 28 28 26 24 24 24 24 22 21 20 17 15 13 11 11 19 9 8 14 9 8 6 4 3 4 4 6 7 7 6 6 6 5 5 6 5 6 7 8
16 19 26 29 29 28 23 21 24 25 23 23 24 23 22 20 18 17 14 16 17 14 15 12 10 10 7 6 6 6 7 6 7 9 9 9 9 8 8 9 8 8 9
19 29 33 36 36 31 23 30 22 23 23 23 25 25 25 24 23 22 20 18 16 14 15 14 13 12 10 9 8 9 10 9 9 10 11 11 11 11 11 11 11 11 12
21 17 18 27 27 31 30 27 22 27 28 29 28 27 26 27 26 26 24 22 19 17 16 16 15 15 12 11 12 11 12 11 11 11 12 12 12 13 12 12 13 12 13
14 16 17 19 25 26 23 24 28 31 27 31 34 36 29 29 30 28 27 26 25 22 21 18 17 16 15 16 15 15 14 13 13 13 13 13 14 14 14 15 14 14 13
18 15 15 16 21 26 21 25 22 18 18 24 30 41 28 28 32 30 30 29 28 28 27 24 21 18 17 17 19 18 17 16 16 16 16 16 16 17 18 18 18 17 16
24 19 18 17 17 18 18 16 18 13 17 20 18 26 31 34 31 30 31 30 29 31 31 30 28 25 21 23 20 19 19 18 19 20 18 18 20 20 21 22 21 21 21
23 22 22 21 19 22 23 19 18 19 19 16 19 20 20 23 30 28 32 32 31 33 32 32 30 31 28 29 26 23 23 22 21 21 21 22 22 23 24 24 24 24 25
26 29 28 28 26 27 25 25 24 22 21 20 19 19 20 19 26 28 32 36 36 36 35 33 32 36 34 34 30 28 28 28 28 26 24 24 24 27 28 29 28 28 27
34 28 28 27 27 25 25 26 24 20 20 22 20 19 18 17 15 18 18 25 26 20 23 24 23 22 27 34 35 33 33 35 35 33 32 29 30 31 31 32 32 33 33
41 37 33 32 29 27 24 23 24 23 20 19 21 20 21 17 16 18 16 14 21 24 26 24 20 23 19 20 26 29 28 33 34 36 35 31 33 31 29 28 29 39 39
44 44 42 39 36 35 35 33 30 25 22 23 26 23 23 21 21 20 19 20 18 20 20 23 21 19 17 20 19 24 25 21 25 32 32 35 37 36 34 36 34 33 33
46 47 47 45 42 43 42 39 39 38 35 31 29 29 28 24 23 23 23 21 23 22 24 21 21 23 24 23 22 22 21 19 17 18 20 24 25 28 31 30 34 39 37
45 46 46 51 53 50 48 47 47 44 41 37 34 35 32 30 28 26 25 26 26 25 25 25 22 24 23 22 21 19 20 21 21 23 25 29 32 34 34 33 33 32 36
43 44 44 45 48 52 53 53 53 50 48 46 42 39 36 34 35 33 33 31 30 28 27 25 25 24 24 26 27 28 26 27 29 30 31 30 31 33 36 37 36 37 37
42 42 43 45 45 47 47 49 49 49 46 44 44 45 43 40 38 38 38 37 34 33 31 31 33 32 32 35 36 37 35 38 42 43 40 39 39 38 39 40 39 38 40
42 42 43 45 46 47 46 46 48 47 49 48 47 47 47 45 44 44 44 46 44 41 40 41 40 43 44 44 44 44 47 48 48 44 44 43 45 46 47 45 45 46 47

GFSMW_500_spd_108.txt.gz
Wind_Speed
17 14 11 10 9 7 7 7 8 9 8 7 7 8 9 12 13 13 13 13 13 11 10 6 5 16 14 9 9 9 6 9 6 8 10 14 12 11 10 8 7 4 2
21 17 13 11 10 10 7 7 7 7 8 7 7 7 6 7 9 10 10 10 9 8 8 6 8 12 7 7 7 6 6 6 7 5 1 10 12 11 9 7 5 4 4
21 19 17 14 12 11 10 7 6 7 8 8 6 7 7 6 7 6 6 5 5 5 5 6 6 6 4 5 4 6 4 3 5 7 7 3 8 10 11 10 7 5 5
26 22 20 17 14 13 12 10 8 7 6 6 6 5 6 7 6 5 5 4 3 3 2 2 4 4 5 4 4 4 4 3 3 4 6 6 14 7 5 5 9 5 5
24 25 22 19 16 14 13 12 9 8 7 4 6 7 5 5 13 10 4 3 5 4 2 2 1 3 3 3 4 4 4 4 4 3 3 6 5 8 11 6 12 4 8
25 26 23 23 21 19 16 14 12 9 9 9 8 7 6 8 6 8 7 3 5 5 4 2 2 2 1 1 3 3 3 4 5 3 4 4 3 5 9 15 5 8 14
32 28 25 25 22 21 19 18 16 13 10 8 9 9 10 4 5 2 2 4 6 7 5 4 2 1 2 1 1 2 2 2 2 3 1 2 3 15 7 2 2 20 16
31 33 26 23 25 24 22 21 19 16 14 11 10 12 12 10 6 7 6 14 9 8 5 4 3 3 2 1 1 1 1 2 1 0 1 2 1 3 2 6 6 9 13
5 27 28 26 29 26 23 21 22 20 16 15 13 13 13 13 12 10 7 10 9 4 1 3 4 3 3 2 2 2 2 3 3 3 3 4 3 3 3 5 7 8 9
9 10 35 30 31 23 23 19 16 20 19 16 17 17 16 14 13 13 11 14 6 4 11 6 7 6 4 3 3 2 2 3 3 3 4 4 4 4 5 5 6 9 10
11 12 25 30 28 25 26 26 28 21 22 18 19 20 20 19 16 15 13 14 11 10 15 12 10 7 6 5 7 5 4 5 4 4 5 5 5 6 7 8 8 9 9
15 12 16 28 28 32 36 29 24 20 21 21 20 20 23 23 21 20 17 17 14 14 14 14 12 10 10 9 10 9 8 8 7 5 5 5 6 7 8 9 10 10 10
17 17 22 27 31 32 34 31 26 19 19 23 19 17 21 24 25 25 21 20 20 16 12 12 12 12 12 14 14 13 11 11 9 8 8 7 7 9 10 10 11 11 11
18 21 26 24 25 27 23 32 15 23 26 25 18 20 19 25 24 26 28 24 22 21 17 16 15 16 18 18 17 17 14 14 13 12 11 11 11 12 12 12 12 11 11
25 24 25 25 21 16 28 15 32 27 29 25 24 19 24 28 23 28 28 30 27 25 24 24 23 21 18 20 20 19 18 18 17 17 16 15 15 14 14 13 14 14 15
32 30 28 25 20 14 22 27 19 22 19 28 24 22 27 18 22 27 28 28 33 30 29 29 28 27 23 25 24 20 19 19 20 20 20 17 18 18 18 18 18 18 18
33 28 30 28 22 18 16 15 12 9 16 19 16 17 17 20 23 20 26 27 31 31 28 27 28 30 32 32 29 27 25 23 22 21 23 21 22 22 22 22 23 23 22
31 32 25 26 25 25 19 19 17 17 18 18 19 17 16 16 16 20 19 25 25 31 29 31 28 33 35 36 35 34 32 31 28 24 25 22 26 26 25 23 25 27 27
34 31 31 32 28 26 25 23 22 23 23 22 20 21 20 20 17 18 19 22 28 27 26 35 32 31 35 28 37 33 37 35 31 30 30 30 30 30 30 31 30 28 33
42 37 33 31 29 28 27 27 28 28 24 20 20 20 20 21 19 17 17 20 22 23 29 28 22 25 27 28 22 23 29 33 36 35 28 32 36 36 34 32 33 29 28
39 42 40 37 32 27 28 29 26 25 26 25 25 22 19 18 20 20 21 20 21 21 27 24 23 25 23 22 20 16 16 23 26 27 28 30 32 34 33 35 36 35 32
40 42 42 40 40 37 36 34 34 31 30 28 28 27 24 21 23 24 23 24 26 24 24 28 23 19 21 21 24 20 20 20 21 20 20 18 17 17 22 26 26 27 30
44 46 47 45 45 43 43 40 40 40 35 36 37 36 33 29 28 30 30 28 27 29 27 25 25 27 24 23 27 25 24 29 25 25 22 22 22 23 24 29 30 31 32
46 47 47 46 45 46 47 48 48 46 45 45 45 43 43 40 36 33 34 33 32 32 32 31 30 29 29 30 29 29 29 26 27 27 25 26 27 30 31 32 33 33 34
44 46 46 45 44 45 45 49 52 53 54 53 52 52 50 46 44 40 39 40 39 38 37 35 35 37 34 34 33 33 33 33 34 34 34 37 37 40 42 42 40 39 41
42 42 44 44 45 47 48 49 49 50 51 53 51 52 50 46 45 43 45 44 43 43 42 42 41 41 40 40 40 40 40 40 42 43 43 45 48 48 49 47 46 45 41

GFSMW_500_spd_111.txt.gz
Wind_Speed
15 12 10 8 10 9 10 11 10 9 10 9 11 11 11 14 17 16 16 13 13 15 13 11 9 10 10 10 10 13 9 8 10 8 7 11 15 15 15 13 10 6 3
20 16 13 10 9 9 9 8 9 10 9 9 9 10 11 10 12 13 12 13 12 12 10 11 11 9 10 9 7 9 10 7 7 8 5 6 10 14 15 12 10 6 5
23 18 16 14 12 11 11 9 7 8 8 8 8 5 7 8 7 8 7 7 7 10 9 9 9 10 9 8 7 7 6 6 4 3 8 7 7 9 10 14 18 15 11
24 22 19 15 14 12 12 12 9 8 6 5 6 6 5 6 4 5 5 4 3 5 6 7 7 7 8 7 7 7 5 3 2 2 5 3 8 13 13 12 12 10 6
27 23 22 20 17 15 14 12 11 10 7 5 6 5 4 3 7 6 8 7 5 3 3 4 5 5 6 5 7 6 3 3 1 1 3 3 10 5 9 12 16 9 6
26 25 25 22 21 18 17 15 13 12 10 9 7 5 5 4 4 3 14 5 5 5 4 5 4 4 4 4 5 6 4 3 2 2 3 6 5 4 3 11 1 1 6
26 27 29 25 25 21 19 16 14 13 12 10 9 8 6 6 2 6 4 4 4 4 4 4 5 5 5 4 3 4 4 3 1 2 1 5 6 4 5 17 8 6 5
31 31 28 25 24 23 20 20 18 15 12 10 9 9 9 8 6 4 2 5 6 4 4 5 4 4 4 5 5 5 5 4 1 0 2 3 6 9 8 7 5 7 7
21 34 33 26 27 25 24 24 22 20 17 14 11 10 7 10 7 8 6 7 7 8 8 7 5 3 3 4 5 4 4 3 2 2 5 3 2 3 5 7 9 10 10
2 36 32 31 29 24 29 27 25 21 19 18 17 15 13 12 11 10 8 8 9 12 15 7 5 4 3 3 3 4 4 4 3 5 6 6 5 6 5 6 7 8 9
10 9 15 31 29 26 28 26 28 24 24 22 21 20 19 17 15 13 10 9 7 6 5 8 5 6 6 6 4 5 5 5 5 6 7 7 7 7 7 6 6 6 8
17 17 14 20 33 38 33 27 28 27 24 23 23 20 20 18 17 16 13 12 12 10 10 12 9 10 9 9 8 9 9 8 7 7 8 7 8 8 8 8 8 9 9
15 13 10 8 24 27 30 30 25 27 26 22 24 23 21 20 20 18 16 17 16 14 13 13 12 12 12 13 14 14 14 11 10 11 11 10 10 10 8 8 7 9 9
12 17 18 20 15 23 25 23 28 34 29 23 21 25 22 19 21 20 18 20 20 19 18 15 15 15 14 16 18 18 16 17 15 14 15 14 15 13 11 11 10 10 10
22 20 20 19 22 21 16 20 31 37 32 22 20 21 22 20 20 21 24 21 24 23 23 23 21 19 19 18 19 19 21 20 20 18 17 17 17 17 17 16 15 15 14
32 27 24 23 21 16 20 24 22 26 29 27 29 24 24 19 24 13 21 21 23 24 27 27 24 24 26 24 24 23 21 19 21 22 21 21 23 20 20 20 20 19 19
23 23 25 26 27 22 21 20 16 19 22 27 22 19 22 26 23 19 16 18 26 26 23 25 28 30 30 30 31 29 26 25 23 24 23 24 26 23 23 23 23 23 24
25 20 26 25 25 21 22 19 17 16 15 15 18 20 19 18 17 17 17 20 18 29 26 24 27 30 29 30 34 32 32 32 32 31 30 27 27 25 24 25 26 25 26
42 29 25 26 22 23 25 23 19 21 20 22 21 17 20 19 17 16 18 17 22 21 23 25 26 33 35 32 33 34 31 33 38 39 38 36 34 31 30 31 31 30 29
26 34 27 28 29 24 25 28 25 25 23 20 19 20 21 21 19 19 18 16 17 21 23 25 28 25 26 32 35 34 35 33 32 35 38 40 38 33 35 36 35 35 32
38 41 37 37 34 33 35 33 25 24 23 25 22 20 19 18 21 22 20 19 19 21 23 25 25 27 28 28 27 27 29 32 30 29 34 33 29 29 29 25 26 29 32
32 32 34 35 35 31 30 29 29 30 30 28 32 26 26 24 26 25 22 20 21 23 25 24 25 24 29 25 25 25 26 24 21 22 22 23 23 24 21 18 19 18 21
52 40 43 40 40 41 42 42 40 37 33 34 33 29 29 31 32 28 25 22 23 23 25 24 27 28 27 27 27 24 27 30 28 25 22 23 27 28 25 25 25 23 24
43 40 48 46 48 47 43 43 43 43 42 38 37 38 37 37 37 37 34 31 30 29 29 31 33 32 33 30 29 31 32 32 31 31 31 32 32 30 29 26 27 32 32
48 41 45 50 47 47 47 45 44 44 46 46 45 45 46 44 44 43 44 42 41 39 35 34 36 38 38 36 35 34 36 36 37 37 35 33 32 34 35 36 37 39 41
43 48 47 49 50 50 48 47 47 46 46 47 47 49 51 53 53 52 53 51 49 48 44 41 40 42 43 42 40 40 40 41 41 39 38 38 38 39 41 43 45 46 47

GFSMW_500_spd_114.txt.gz
Wind_Speed
14 12 10 10 13 12 12 13 14 14 13 12 13 13 11 13 12 12 13 11 12 12 11 15 14 13 13 16 15 11 11 10 9 10 11 12 13 13 13 11 11 8 5
15 12 10 9 9 12 11 11 13 12 13 12 13 13 14 10 10 9 9 9 9 10 11 11 11 10 11 12 13 12 9 10 8 7 8 10 11 9 9 8 10 9 8
18 16 13 13 11 10 12 12 12 11 11 12 11 10 12 10 9 8 6 4 6 8 8 8 7 8 8 9 11 9 8 9 8 6 6 5 8 7 9 10 12 12 13
20 20 15 13 12 11 12 13 12 12 11 11 9 11 10 10 9 6 5 4 3 4 5 8 6 7 6 5 8 9 7 5 8 5 5 4 7 7 9 12 13 11 15
22 22 20 17 16 16 13 13 12 12 13 12 10 10 8 7 7 5 4 4 5 5 1 1 5 6 5 5 5 5 5 3 6 6 4 4 4 5 9 10 10 12 13
24 22 22 21 19 16 15 12 13 11 11 11 9 8 7 8 4 3 7 5 6 6 6 5 4 5 5 5 5 3 3 2 3 6 4 1 2 2 9 12 4 4 6
26 23 19 20 20 18 18 16 14 13 12 12 11 10 7 8 7 6 4 6 7 6 5 4 6 6 6 6 6 5 4 3 1 5 6 4 4 4 4 4 8 2 1
27 28 28 25 23 22 21 19 17 16 16 14 13 12 11 9 6 6 4 5 8 5 6 7 6 6 5 6 7 7 4 4 2 2 4 3 3 3 3 3 3 2 2
27 28 30 23 26 29 28 23 22 18 18 17 14 12 12 12 11 10 6 4 3 2 6 8 7 7 7 8 7 8 9 7 5 6 2 3 2 3 3 4 1 2 2
21 23 29 29 27 26 26 26 24 23 22 20 17 14 13 13 13 11 10 10 9 11 11 10 9 6 5 6 6 6 7 8 9 7 5 5 4 5 4 1 2 3 4
21 14 20 28 34 26 25 27 27 24 24 23 21 19 17 15 14 11 10 10 9 10 12 13 10 8 7 8 8 7 7 7 8 8 8 7 8 7 7 6 6 7 7
16 13 11 21 31 28 29 23 29 26 26 24 22 23 19 19 18 16 14 13 12 10 11 11 10 10 10 11 10 10 9 9 9 9 10 9 10 11 9 7 7 7 8
15 11 11 14 14 26 35 32 25 28 29 25 28 25 24 22 20 19 18 18 16 14 13 13 14 14 12 14 13 13 12 12 12 12 13 13 12 11 11 10 10 8 10
18 15 15 14 11 9 26 30 27 29 28 27 29 26 26 25 22 22 20 20 19 18 19 18 17 16 18 17 17 14 16 17 17 15 15 17 18 16 14 13 12 12 12
17 15 16 18 17 13 13 20 21 11 17 29 32 29 23 25 25 18 17 16 21 22 22 23 23 22 21 18 18 16 19 19 19 19 20 21 21 19 18 17 17 17 15
27 29 25 23 21 21 20 22 22 24 24 15 29 24 25 25 22 22 20 15 14 22 24 25 26 27 27 23 21 20 19 19 20 19 22 25 25 23 22 20 22 22 20
34 36 31 26 24 23 24 25 29 29 29 24 20 29 25 27 26 27 22 21 21 19 26 25 28 29 29 29 27 27 26 25 26 24 25 27 26 24 24 25 23 23 24
4 21 20 23 25 25 25 26 28 29 27 22 19 27 38 33 31 28 28 27 22 24 29 34 34 27 26 29 30 30 31 31 32 33 32 33 32 30 28 28 28 27 27
27 24 7 17 26 25 24 25 29 28 26 22 25 27 38 24 23 27 29 25 25 25 24 25 27 24 26 26 27 31 29 30 33 34 35 36 38 38 36 34 33 32 32
20 14 13 20 27 26 30 36 34 30 23 32 27 33 34 24 25 25 19 24 22 23 24 24 28 29 28 30 32 30 37 33 36 38 36 35 37 38 39 40 39 38 37
23 21 19 26 32 31 35 46 29 16 31 28 22 26 23 27 27 27 24 22 22 22 22 24 27 27 29 29 25 27 26 28 29 31 34 32 34 37 39 40 38 36 38
41 41 37 32 35 37 40 39 39 33 31 35 23 16 25 23 25 19 19 22 22 25 25 28 27 26 25 25 24 25 29 30 33 31 30 30 29 31 29 29 29 28 25
44 41 41 45 42 33 35 37 32 29 28 23 21 22 26 34 27 25 19 24 26 25 27 28 29 30 28 28 28 26 28 30 29 31 28 26 28 26 27 28 29 30 30
57 53 50 46 48 47 41 41 42 41 40 40 37 34 32 31 26 27 27 31 33 32 30 29 29 31 32 32 32 31 32 31 29 29 33 35 34 32 31 33 33 31 30
39 44 50 51 51 51 52 49 48 44 45 45 44 43 39 39 37 36 37 37 38 39 39 39 38 39 39 38 38 38 36 37 38 36 37 38 38 39 36 34 36 36 36
37 34 31 47 48 50 51 54 53 53 47 47 47 48 48 48 48 48 47 45 46 47 47 48 48 48 47 45 44 44 44 44 43 43 40 39 40 42 43 41 42 41 41

GFSMW_500_spd_117.txt.gz
Wind_Speed
12 10 9 9 12 13 13 13 14 16 12 13 15 14 13 14 13 11 11 10 11 14 14 14 14 12 13 13 15 14 10 10 9 9 7 6 5 6 9 11 10 11 13
13 12 10 11 11 12 13 13 13 16 15 15 14 16 15 13 12 9 10 8 9 11 12 12 13 11 11 9 12 13 12 12 10 8 6 5 4 6 8 10 11 12 14
17 14 13 12 11 12 12 13 13 14 14 14 14 13 13 12 11 9 9 7 6 7 9 8 9 8 8 9 9 10 11 8 8 8 8 7 6 5 6 10 12 14 16
20 16 14 12 10 12 10 10 12 12 13 12 13 14 13 12 9 7 6 6 5 5 5 5 5 6 6 6 6 6 8 8 8 7 6 5 5 7 6 6 10 11 14
21 21 17 14 11 10 11 10 9 10 10 12 10 8 10 10 8 7 6 4 3 3 5 3 3 2 3 4 5 4 5 5 5 5 4 3 1 4 4 5 8 8 11
23 26 21 17 14 10 11 12 11 10 10 10 11 8 8 8 8 7 7 6 6 5 4 4 5 3 2 2 4 3 4 4 5 5 4 4 4 5 4 5 7 4 5
28 27 23 19 15 14 14 14 13 12 11 10 9 9 9 7 7 8 6 7 6 6 6 5 5 5 5 4 5 5 5 4 3 3 4 4 4 4 4 2 3 6 7
30 29 27 23 23 21 18 15 14 13 12 11 11 9 9 9 7 4 5 4 4 4 6 7 6 7 8 8 6 6 5 5 6 6 5 3 3 3 4 2 2 4 4
37 32 31 26 25 22 20 19 16 14 14 13 12 12 12 10 8 7 5 2 6 6 4 7 6 7 8 9 9 8 7 7 7 6 5 4 4 4 4 6 4 3 3
35 35 33 29 28 26 24 22 18 18 16 15 13 13 13 14 11 11 10 8 10 10 11 12 10 8 7 8 7 7 7 8 7 7 7 7 7 7 6 7 9 5 6
34 28 30 29 28 26 27 25 24 23 21 19 18 17 17 15 14 14 15 13 12 11 11 10 11 11 11 10 9 7 7 7 7 6 6 7 7 7 7 8 10 8 7
25 28 22 27 31 30 29 24 26 26 26 23 22 20 19 20 20 18 17 15 13 12 10 10 14 13 12 11 11 10 10 10 9 7 7 7 8 8 8 8 9 8 6
26 19 13 18 28 33 35 30 27 25 24 22 23 22 24 24 25 24 21 19 18 16 16 15 16 18 16 16 18 15 14 14 13 10 9 9 10 9 11 11 10 12 10
22 24 19 17 19 29 34 31 33 28 21 24 24 24 27 28 26 27 26 23 21 21 21 20 18 19 18 19 19 17 19 20 18 13 14 14 14 12 12 12 11 13 14
30 22 20 20 23 22 26 31 32 29 27 21 26 24 28 30 25 27 29 28 26 24 23 24 22 22 24 22 20 19 19 19 16 15 17 18 18 18 17 16 15 15 16
24 29 27 23 21 24 18 27 31 29 29 18 19 18 26 34 32 30 33 30 27 28 29 27 25 27 27 28 24 22 23 20 20 21 19 19 20 19 18 20 22 20 18
28 30 31 25 20 25 27 24 28 25 27 27 24 30 25 34 41 34 33 30 27 26 23 26 26 27 29 32 31 30 29 26 23 24 24 26 24 23 23 24 24 24 22
36 42 34 33 27 28 31 32 33 33 32 24 33 31 26 29 31 34 32 34 33 30 25 25 30 28 24 27 30 35 33 32 30 31 31 33 35 32 30 29 28 27 26
31 37 24 13 35 34 33 33 32 29 32 37 37 32 25 31 31 35 32 37 39 40 35 31 30 29 32 26 30 26 26 30 32 31 30 29 28 33 33 32 31 33 32
33 33 28 5 12 15 36 38 34 36 36 37 35 33 29 31 32 42 38 34 38 36 33 32 31 33 24 27 24 25 28 30 32 34 36 33 34 34 39 39 36 37 37
24 24 14 18 18 18 20 24 27 29 35 40 35 31 31 38 33 43 35 32 29 34 23 25 27 30 34 35 33 30 30 30 27 30 31 35 33 32 38 38 38 38 39
35 28 20 18 22 29 25 27 30 32 35 28 26 29 38 34 38 34 30 28 26 27 26 25 24 25 27 25 26 29 29 29 29 29 33 34 34 34 35 37 36 36 37
45 41 38 32 29 30 35 38 39 39 36 36 35 29 18 18 21 19 16 23 27 22 24 28 28 28 28 29 30 29 29 29 29 29 32 31 31 32 33 30 32 35 35
37 36 38 40 35 36 40 43 44 44 39 35 37 37 33 31 31 29 27 32 30 28 24 27 30 31 31 32 31 30 31 31 33 33 33 33 33 31 30 33 35 35 35
45 42 42 42 44 43 43 45 48 48 47 46 43 41 42 39 36 35 33 31 30 29 29 33 36 36 36 36 37 37 37 37 38 37 38 38 39 39 39 39 39 39 39
48 48 50 46 46 42 34 36 44 47 50 49 48 47 44 43 42 38 39 41 39 39 38 39 40 42 45 47 48 49 47 47 46 45 44 45 42 43 44 43 44 44 42

GFSMW_500_spd_120.txt.gz
Wind_Speed
14 12 12 12 11 11 12 13 14 18 17 15 18 17 13 14 13 13 13 12 12 13 13 14 11 11 12 13 11 10 7 5 6 2 0 2 3 5 6 9 11 11 13
15 13 12 13 11 12 12 13 12 16 19 17 15 15 14 11 10 12 12 11 12 12 13 12 12 10 9 9 10 11 11 9 7 5 4 4 2 4 7 9 12 12 14
17 14 13 12 12 13 12 11 11 14 16 18 16 14 14 12 11 11 10 10 9 9 10 9 9 8 8 7 6 6 8 9 8 7 7 6 4 5 6 9 13 16 17
16 16 14 13 12 12 13 12 10 11 13 14 15 14 13 11 10 8 8 9 9 8 8 7 6 5 5 4 5 4 5 6 6 7 7 7 7 7 7 9 11 16 15
19 16 16 14 14 13 11 11 12 10 9 11 11 9 8 8 8 6 3 3 5 5 5 7 6 7 5 5 4 4 5 5 5 4 2 3 3 4 3 4 8 8 10
23 22 20 16 14 14 14 11 10 10 10 9 10 9 8 8 7 7 6 5 3 3 2 2 4 5 6 7 6 4 4 4 5 5 4 3 3 4 4 6 8 9 9
27 25 21 17 15 16 15 14 12 10 9 9 9 8 9 9 8 8 6 4 3 3 4 4 5 5 5 5 7 7 5 4 4 4 4 4 4 4 4 4 4 5 6
28 28 25 24 23 20 18 15 13 13 12 10 10 8 9 7 7 8 5 5 5 3 3 4 5 6 7 7 7 7 6 5 5 5 4 4 4 4 6 6 5 6 7
30 25 28 29 28 23 20 18 17 15 14 13 12 11 10 9 7 8 7 6 8 8 4 2 4 5 5 5 5 6 7 8 8 7 6 6 5 5 5 5 4 6 8
37 37 35 32 30 26 24 21 19 18 16 14 13 13 13 11 11 11 10 8 8 9 8 8 8 6 6 6 4 5 7 7 7 7 9 8 8 7 7 7 7 7 8
37 38 38 36 33 31 29 26 22 20 18 17 16 16 15 13 12 13 14 12 12 12 12 13 11 9 8 8 6 6 6 7 7 7 8 9 8 8 7 8 8 7 8
32 42 38 36 33 31 29 28 24 23 21 22 21 20 18 17 17 16 15 16 16 16 14 14 12 10 11 10 10 10 10 9 7 9 10 10 9 8 8 7 6 7 7
34 39 41 38 33 31 28 27 27 26 25 24 24 23 22 22 22 22 20 19 19 19 18 15 13 14 14 14 13 13 14 14 13 12 13 13 12 11 10 9 8 8 7
19 30 32 31 29 33 33 32 29 29 27 29 29 27 27 26 25 25 24 23 23 23 22 20 18 18 17 17 17 18 18 19 20 20 19 18 15 13 12 12 13 12 11
12 22 26 23 26 33 32 36 34 37 29 28 24 30 28 30 30 28 28 30 27 26 25 23 24 23 23 21 19 21 19 19 21 19 20 20 17 17 16 17 17 16 15
15 11 18 21 28 29 40 38 36 33 31 33 32 29 27 29 29 33 31 31 28 28 27 27 28 28 29 29 25 23 24 23 23 23 21 20 17 17 17 19 18 18 18
19 22 15 26 23 21 24 29 26 27 33 31 34 30 24 19 22 30 35 37 35 32 30 31 28 31 33 31 30 28 27 28 27 26 26 22 21 21 23 23 24 22 19
18 19 24 28 23 26 33 31 32 29 31 34 30 31 28 29 38 35 31 37 41 36 33 32 32 29 31 31 33 34 28 24 31 33 32 30 29 28 27 27 28 29 28
28 28 29 30 31 27 28 36 32 35 32 34 40 36 39 37 45 34 31 33 31 33 40 29 40 33 34 32 33 27 33 27 30 32 33 33 32 34 29 26 29 27 30
27 28 26 24 34 27 26 34 38 37 40 41 42 38 32 39 35 30 33 37 38 36 36 45 44 46 35 34 32 27 27 25 21 21 28 30 32 35 30 35 33 32 36
33 28 27 22 16 28 31 19 24 39 41 47 42 41 27 32 32 29 31 37 39 44 48 38 45 37 37 35 38 29 34 27 26 34 32 29 29 29 29 34 34 32 32
35 34 32 27 19 22 19 20 23 27 27 31 30 28 28 40 36 33 40 41 45 39 36 32 34 39 33 29 34 29 31 31 27 23 23 28 30 32 34 36 37 37 34
34 35 30 29 29 28 25 24 28 30 35 32 30 29 33 36 29 35 44 37 37 36 32 29 30 40 33 24 24 27 29 28 25 25 27 29 30 30 31 35 36 35 35
32 29 29 25 20 21 29 31 29 29 32 36 33 34 31 28 39 24 26 17 16 17 18 20 20 19 22 24 30 32 31 30 31 31 32 32 32 32 34 34 35 35 36
31 30 33 33 33 30 28 30 35 37 36 38 40 39 31 35 34 33 35 27 27 27 21 20 24 25 25 29 33 35 37 38 38 38 37 38 38 39 41 41 40 40 40
35 34 33 34 39 40 43 41 43 46 42 35 32 37 37 36 36 37 36 38 39 32 29 34 30 33 35 37 38 41 42 43 45 45 46 47 49 49 47 47 47 48 48